[[{"header":{"parameterUnit":"m.s-1","parameterCategory":1,"la1":31.0,"la2":29.5877,"lo1":-88.7671,"lo2":-86.6584,"dy":0.0162,"dx":0.0185,"nx":115,"ny":88,"refTime":"2023-10-14T00:00:00:Z","depth":0,"parameterNumber":2,"parameterNumberName":"U-component_of_WINDS"},"data":[0.0,0.0,0.0,0.0,0.0,0.0,0.0,0.0,0.0,0.0,0.0,0.0,0.0,0.0,0.0,0.0,0.0,0.0,0.0,0.0,0.0,0.0,0.0,0.0,0.0,0.0,0.0,0.0,0.0,0.0,0.0,0.0,0.0,0.0,0.0,0.0,0.0,0.0,0.0,0.0,0.0,0.0,0.0,0.0,0.0,0.0,0.0,0.0,0.0,0.0,0.0,0.0,0.0,0.0,0.0,0.0,0.0,0.0,0.0,0.0,0.0,0.0,0.0,0.0,0.0,0.0,0.0,0.0,0.0,0.0,0.0,0.0,0.0,0.0,0.0,0.0,0.0,0.0,0.0,0.0,0.0,0.0,0.0,0.0,0.0,0.0,0.0,0.0,0.0,0.0,0.0,0.0,0.0,0.0,0.0,0.0,0.0,0.0,0.0,0.0,0.0,0.0,0.0,0.0,0.0,0.0,0.0,0.0,0.0,0.0,0.0,0.0,0.0,0.0,0.0,0.0,0.0,0.0,0.0,0.0,0.0,0.0,0.0,0.0,0.0,0.0,0.0,0.0,0.0,0.0,0.0,0.0,0.0,0.0,0.0,0.0,0.0,0.0,0.0,0.0,0.0,0.0,0.0,0.0,0.0,0.0,0.0,0.0,0.0,0.0,0.0,0.0,0.0,0.0,0.0,0.0,0.0,0.0,0.0,0.0,0.0,0.0,0.0,0.0,0.0,0.0,0.0,0.0,0.0,0.0,0.0,0.0,0.0,0.0,0.0,0.0,0.0,0.0,0.0,0.0,0.0,0.0,0.0,0.0,0.0,0.0,0.0,0.0,0.0,0.0,0.0,0.0,0.0,0.0,0.0,0.0,0.0,0.0,0.0,0.0,0.0,0.0,0.0,0.0,0.0,0.0,0.0,0.0,0.0,0.0,0.0,0.0,0.0,0.0,0.0,0.0,0.0,0.0,0.0,0.0,0.0,0.0,0.0,0.0,0.0,0.0,0.0,0.0,0.0,0.0,0.0,0.0,0.0,0.0,0.0,0.0,0.0,0.0,0.0,0.0,0.0,0.0,0.0,0.0,0.0,0.0,0.0,0.0,0.0,0.0,0.0,0.0,0.0,0.0,0.0,0.0,0.0,0.0,0.0,0.0,0.0,0.0,0.0,0.0,0.0,0.0,0.0,0.0,0.0,0.0,0.0,0.0,0.0,0.0,0.0,0.0,0.0,0.0,0.0,0.0,0.0,0.0,0.0,0.0,0.0,0.0,0.0,0.0,0.0,0.0,0.0,0.0,0.0,0.0,0.0,0.0,0.0,0.0,0.0,0.0,0.0,0.0,0.0,0.0,0.0,0.0,0.0,0.0,0.0,0.0,0.0,0.0,0.0,0.0,0.0,0.0,0.0,0.0,0.0,0.0,0.0,0.0,0.0,0.0,0.0,0.0,0.0,0.0,0.0,0.0,0.0,0.0,0.0,0.0,0.0,0.0,0.0,0.0,0.0,0.0,0.0,0.0,0.0,0.0,0.0,0.0,0.0,0.0,0.0,0.0,0.0,0.0,0.0,0.0,0.0,0.0,0.0,0.0,0.0,0.0,0.0,0.0,0.0,0.0,0.0,0.0,0.0,0.0,0.0,0.0,0.0,0.0,0.0,0.0,0.0,0.0,0.0,0.0,0.0,0.0,0.0,0.0,0.0,0.0,0.0,0.0,0.0,0.0,0.0,0.0,0.0,0.0,0.0,0.0,0.0,0.0,0.0,0.0,0.0,0.0,0.0,0.0,0.0,0.0,0.0,0.0,0.0,0.0,0.0,0.0,0.0,0.0,0.0,0.0,0.0,0.0,0.0,0.0,0.0,0.0,0.0,0.0,0.0,0.0,0.0,0.0,0.0,0.0,0.0,0.0,0.0,0.0,0.0,0.0,0.0,0.0,0.0,0.0,0.0,0.0,0.0,0.0,0.0,0.0,0.0,0.0,0.0,0.0,0.0,0.0,0.0,0.0,0.0,0.0,0.0,0.0,0.0,0.0,0.0,0.0,0.0,0.0,0.0,0.0,0.0,0.0,0.0,0.0,0.0,0.0,0.0,0.0,0.0,0.0,0.0,0.0,0.0,0.0,0.0,0.0,0.0,0.0,0.0,0.0,0.0,0.0,0.0,0.0,0.0,0.0,0.0,0.0,0.0,0.0,0.0,0.0,0.0,0.0,0.0,0.0,0.0,0.0,0.0,0.0,0.0,0.0,0.0,0.0,0.0,0.0,0.0,0.0,0.0,0.0,0.0,0.0,0.0,0.0,0.0,0.0,0.0,0.0,0.0,0.0,0.0,0.0,0.0,0.0,0.0,0.0,0.0,0.0,0.0,0.0,0.0,0.0,0.0,0.0,0.0,0.0,0.0,0.0,0.0,0.0,0.0,0.0,0.0,0.0,0.0,0.0,0.0,0.0,0.0,0.0,0.0,0.0,0.0,0.0,0.0,0.0,0.0,0.0,0.0,0.0,0.0,0.0,0.0,0.0,0.0,0.0,0.0,0.0,0.0,0.0,0.0,0.0,0.0,0.0,0.0,0.0,0.0,0.0,0.0,0.0,0.0,0.0,0.0,0.0,0.0,0.0,0.0,0.0,0.0,0.0,0.0,0.0,0.0,0.0,0.0,0.0,0.0,0.0,0.0,0.0,0.0,0.0,0.0,0.0,0.0,0.0,0.0,0.0,0.0,0.0,0.0,0.0,0.0,0.0,0.0,0.0,0.0,0.0,0.0,0.0,0.0,0.0,0.0,0.0,0.0,0.0,0.0,0.0,0.0,0.0,0.0,0.0,0.0,0.0,0.0,0.0,0.0,0.0,0.0,0.0,0.0,0.0,0.0,0.0,0.0,0.0,0.0,0.0,0.0,0.0,0.0,0.0,0.0,0.0,0.0,0.0,0.0,0.0,0.0,0.0,0.0,0.0,0.0,0.0,0.0,0.0,0.0,0.0,0.0,0.0,0.0,0.0,0.0,0.0,0.0,0.0,0.0,0.0,0.0,0.0,0.0,0.0,0.0,0.0,0.0,0.0,0.0,0.0,0.0,0.0,0.0,0.0,0.0,0.0,0.0,0.0,0.0,0.0,0.0,0.0,0.0,0.0,0.0,0.0,0.0,0.0,0.0,0.0,0.0,0.0,0.0,0.0,0.0,0.0,0.0,0.0,0.0,0.0,0.0,0.0,0.0,0.0,0.0,0.0,0.0,0.0,0.0,0.0,0.0,0.0,0.0,0.0,0.0,0.0,0.0,0.0,0.0,0.0,0.0,0.0,0.0,0.0,0.0,0.0,0.0,0.0,0.0,0.0,0.0,0.0,0.0,0.0,0.0,0.0,0.0,0.0,0.0,0.0,0.0,0.0,0.0,0.0,0.0,0.0,0.0,0.0,0.0,0.0,0.0,0.0,0.0,0.0,0.0,0.0,0.0,0.0,0.0,0.0,0.0,0.0,0.0,0.0,0.0,0.0,0.0,0.0,0.0,0.0,0.0,0.0,0.0,0.0,0.0,0.0,0.0,0.0,0.0,0.0,0.0,0.0,0.0,0.0,0.0,0.0,0.0,0.0,0.0,0.0,0.0,0.0,0.0,0.0,0.0,0.0,0.0,0.0,0.0,0.0,0.0,0.0,0.0,0.0,0.0,0.0,0.0,0.0,0.0,0.0,0.0,0.0,0.0,0.0,0.0,0.0,0.0,0.0,0.0,0.0,0.0,0.0,0.0,0.0,0.0,0.0,0.0,0.0,0.0,0.0,0.0,0.0,0.0,0.0,0.0,0.0,0.0,0.0,0.0,0.0,0.0,0.0,0.0,0.0,0.0,0.0,0.0,0.0,0.0,0.0,0.0,0.0,0.0,0.0,0.0,0.0,0.0,0.0,0.0,0.0,0.0,0.0,0.0,0.0,0.0,0.0,0.0,0.0,0.0,0.0,0.0,0.0,0.0,0.0,0.0,0.0,0.0,0.0,0.0,0.0,0.0,0.0,0.0,0.0,0.0,0.0,0.0,0.0,0.0,0.0,0.0,0.0,0.0,0.0,0.0,0.0,0.0,0.0,0.0,0.0,0.0,0.0,0.0,0.0,0.0,0.0,0.0,0.0,0.0,0.0,0.0,0.0,0.0,0.0,0.0,0.0,0.0,0.0,0.0,0.0,0.0,0.0,0.0,0.0,0.0,0.0,0.0,0.0,0.0,0.0,0.0,0.0,0.0,0.0,0.0,0.0,0.0,0.0,0.0,0.0,0.0,0.0,0.0,0.0,0.1759,0.0,0.0,0.0,0.0,0.0,0.0,0.0,0.0,0.0,0.0,0.0,0.0,0.0,0.0,0.0,0.0,0.0,0.0,0.0,0.0,0.0,0.0,0.0,0.0,0.0,0.0,0.0,0.0,0.0,0.0,0.0,0.0,0.0,0.0,0.0,0.0,0.0,0.0,0.0,0.0,0.0,0.0,0.0,0.0,0.0,0.0,0.0,0.0,0.0,0.0,0.0,0.0,0.0,0.0,0.0,0.0,0.0,0.0,0.0,0.0,0.0,0.0,0.0,0.0,0.0,0.0,0.0,0.0,0.0,0.0,0.0,0.0,0.0,0.0,0.0,0.0,0.0,0.0,0.0,0.0,0.0,0.0,0.0,0.0,0.0,0.0,0.0,0.0,0.0,0.0,0.0,0.0,0.0,0.0,0.0,0.0,0.0,0.0,0.0,0.0,0.0,0.0,0.0,0.0,0.0,0.0,0.0,0.0,0.0,0.0,0.3444,0.3404,0.3157,0.3184,0.3523,0.0,0.0,0.0,0.0,0.0,0.0,0.0,0.0,0.0,0.0,0.0,0.0,0.0,0.0,0.0,0.0,0.0,0.0,0.0,0.0,0.0,0.0,0.0,0.0,0.0,0.0,0.0,0.0,0.0,0.0,0.0,0.0,0.0,0.0,0.0,0.0,0.0,0.0,0.0,0.0,0.0,0.0,0.0,0.0,0.0,0.0,0.0,0.0,0.0,0.0,0.0,0.0,0.0,0.0,0.0,0.0,0.0,0.0,0.0,0.0,0.0,0.0,0.0,0.0,0.0,0.0,0.0,0.0,0.0,0.0,0.0,0.0,0.0,0.0,0.0,0.0,0.0,0.0,0.0,0.0,0.0,0.0,0.0,0.0,0.0,0.0,0.0,0.0,0.0,0.0,0.0,0.0,0.0,0.0,0.0,0.0,0.0,0.0,0.0,0.0,0.0,0.0,0.0,0.0,0.0,0.0,0.0,0.0,0.0,0.0,0.0,0.0,0.4287,0.4564,0.5208,0.0,0.0,0.0,0.0,0.0,0.0,0.0,0.0,0.0,0.0,0.0,0.0,0.0,0.0,0.0,0.0,0.0,0.0,0.0,0.0,0.0,0.0,0.0,0.0,0.0,0.0,0.0,0.0,0.0,0.0,0.0,0.0,0.0,0.0,0.0,0.0,0.0,0.0,0.0,0.0,0.0,0.0,0.0,0.0,0.0,0.0,0.0,0.0,0.0,0.0,0.0,0.0,0.0,0.0,0.0,0.0,0.0,0.0,0.0,0.0,0.0,0.0,0.0,0.0,0.0,0.0,0.0,0.0,0.0,0.0,0.0,0.0,0.0,0.0,0.0,0.0,0.0,0.0,0.0,0.0,0.0,0.0,0.0,0.0,0.0,0.0,0.0,0.0,0.0,0.0,0.0,0.0,0.0,0.0,0.0,0.0,0.0,0.0,0.0,0.0,0.0,0.0,0.0,0.0,0.0,0.0,0.0,0.0,0.0,0.0,0.5016,0.536,0.5689,0.0,0.6236,0.0,0.0,0.0,0.0,0.0,0.0,0.0,0.0,0.0,0.0,0.0,0.0,0.0,0.0,0.0,0.0,0.0,0.0,0.0,0.0,0.0,0.0,0.0,0.0,0.0,0.0,0.0,0.0,0.0,0.0,0.0,0.0,0.0,0.0,0.0,0.0,0.0,0.0,0.0,0.0,0.0,0.0,0.0,0.0,0.0,0.0,0.0,0.0,0.0,0.0,0.0,0.0,0.0,0.0,0.0,0.0,0.0,0.0,0.0,0.0,0.0,0.0,0.0,0.0,0.0,0.0,0.0,0.0,0.0,0.0,0.0,0.0,0.0,0.0,0.0,0.0,0.0,0.0,0.0,0.0,0.0,0.0,0.0,0.0,0.0,0.0,0.0,0.0,0.0,0.0,0.0,0.0,0.0,0.0,0.0,0.0,0.0,0.0,0.0,0.0,0.0,0.0,0.0,0.0,0.0,0.0,0.0,0.0,0.0,0.0,0.6576,0.6173,0.6549,0.6623,0.0,0.0,0.0,0.0,0.0,0.0,0.0,0.0,0.0,0.0,0.0,0.0,0.0,0.0,0.0,0.0,0.0,0.0,0.0,0.0,0.0,0.0,0.0,0.0,0.0,0.0,0.0,0.0,0.0,0.0,0.0,0.0,0.0,0.0,0.0,0.0,0.0,0.0,0.0,0.0,0.0,0.0,0.0,0.0,0.0,0.0,0.0,0.0,0.0,0.0,0.0,0.0,0.0,0.0,0.0,0.0,0.0,0.0,0.0,0.0,0.0,0.0,0.0,0.0,0.0,0.0,0.0,0.0,0.0,0.0,0.0,0.0,0.0,0.0,0.0,0.0,0.0,0.0,0.0,0.0,0.0,0.0,0.0,0.0,0.0,0.0,0.0,0.0,0.0,0.0,0.0,0.0,0.0,0.0,0.0,0.0,0.0,0.0,0.0,0.0,0.0,0.0,0.0,0.0,0.0,0.0,0.0,0.0,0.0,0.0,0.6873,0.7273,0.6859,0.7494,0.7257,0.5927,0.0,0.0,0.0,0.0,0.0,0.0,0.0,0.0,0.0,0.0,0.0,0.0,0.0,0.0,0.0,0.0,0.0,0.0,0.0,0.0,0.0,0.0,0.0,0.0,0.0,0.0,0.0,0.0,0.0,0.0,0.0,0.0,0.0,0.0,0.0,0.0,0.0,0.0,0.0,0.0,0.0,0.0,0.0,0.0,0.0,0.0,0.0,0.0,0.0,0.0,0.0,0.0,0.0,0.0,0.0,0.0,0.0,0.0,0.0,0.0,0.0,0.0,0.0,0.0,0.0,0.0,0.0,0.0,0.0,0.0,0.0,0.0,0.0,0.0,0.0,0.0,0.0,0.0,0.0,0.0,0.0,0.0,0.0,0.0,0.0,0.0,0.0,0.0,0.0,0.0,0.0,0.0,0.0,0.0,0.0,0.0,0.0,0.0,0.0,0.0,0.0,0.0,0.0,0.0,0.0,0.0,0.0,0.0,0.7048,0.6607,0.6598,0.7254,0.8698,0.8046,0.0,0.0,0.0,0.0,0.0,0.0,0.0,0.0,0.0,0.0,0.0,0.0,0.0,0.0,0.0,0.0,0.0,0.0,0.0,0.0,0.0,0.0,0.0,0.0,0.0,0.0,0.0,0.0,0.0,0.0,0.0,0.0,0.0,0.0,0.0,0.0,0.0,0.0,0.0,0.0,0.0,0.0,0.0,0.0,0.0,0.0,0.0,0.0,0.0,0.0,0.0,0.0,0.0,0.0,0.0,0.0,0.0,0.0,0.0,0.0,0.0,0.0,0.0,0.0,0.0,0.0,0.0,0.0,0.0,0.0,0.0,0.0,0.0,0.0,0.0,0.0,0.0,0.0,0.0,0.0,0.0,0.0,0.0,0.0,0.0,0.0,0.0,0.0,0.0,0.0,0.0,0.0,0.0,0.0,0.0,0.0,0.0,0.0,0.0,0.0,0.0,0.0,0.0,0.0,0.0,0.0,0.0,0.0,0.0,0.5872,0.6566,0.6849,0.6761,0.7343,0.7261,0.0,0.0,0.0,0.0,0.0,0.0,0.0,0.0,0.0,0.0,0.0,0.0,0.0,0.0,0.0,0.0,0.0,0.0,0.0,0.0,0.0,0.0,0.0,0.0,0.0,0.0,0.0,0.0,0.0,0.0,0.0,0.0,0.0,0.0,0.0,0.0,0.0,0.0,0.0,0.0,0.0,0.0,0.0,0.0,0.0,0.0,0.0,0.0,0.0,0.0,0.0,0.0,0.0,0.0,0.0,0.0,0.0,0.0,0.0,0.0,0.0,0.0,0.0,0.0,0.0,0.0,0.0,0.0,0.0,0.0,0.0,0.0,0.0,0.0,0.0,0.0,0.0,0.0,0.0,0.0,0.0,0.0,0.0,0.0,0.0,0.0,0.0,0.0,0.0,0.0,0.0,0.0,0.0,0.0,0.0,0.0,0.0,0.0,0.0,0.0,0.0,0.0,0.0,0.0,0.0,0.0,0.0,0.0,0.0,0.5715,0.0,0.6932,0.6742,0.6967,0.6934,0.0,0.0,0.0,0.0,0.0,0.0,0.0,0.0,0.0,0.0,0.0,0.0,0.0,0.0,0.0,0.0,0.0,0.0,0.0,0.0,0.0,0.0,0.0,0.0,0.0,0.0,0.0,0.0,0.0,0.0,0.0,0.0,0.0,0.0,0.0,0.0,0.0,0.0,0.0,0.0,0.0,0.0,0.0,0.0,0.0,0.0,0.0,0.0,0.0,0.0,0.0,0.0,0.0,0.0,0.0,0.0,0.0,0.0,0.0,0.0,0.0,0.0,0.0,0.0,0.0,0.0,0.0,0.0,0.0,0.0,0.0,0.0,0.0,0.0,0.0,0.0,0.0,0.0,0.0,0.0,0.0,0.0,0.0,0.0,0.0,0.0,0.0,0.0,0.0,0.0,0.0,0.0,0.0,0.0,0.0,0.0,0.0,0.0,0.0,0.0,0.0,0.0,0.0,0.0,0.0,0.0,0.0,0.0,0.5179,0.6945,0.6783,0.7033,0.7446,0.7861,0.7136,0.0,0.0,0.0,0.0,0.0,0.0,0.0,0.0,0.0,0.0,0.0,0.0,0.0,0.0,0.0,0.0,0.0,0.0,0.0,0.0,0.0,0.0,0.0,0.0,0.0,0.0,0.0,0.0,0.0,0.0,0.0,0.0,0.0,0.0,0.0,0.0,0.0,0.0,0.0,0.0,0.0,0.0,0.0,0.0,0.0,0.0,0.0,0.0,0.0,0.0,0.0,0.0,0.0,0.0,0.0,0.0,0.0,0.0,0.0,0.0,0.0,0.0,0.0,0.0,0.0,0.0,0.0,0.0,0.0,0.0,0.0,0.0,0.0,0.0,0.0,0.0,0.0,0.0,0.0,0.0,0.0,0.0,0.0,0.0,0.0,0.0,0.0,0.0,0.0,0.0,0.0,0.0,0.0,0.0,0.0,0.0,0.0,0.0,0.0,0.0,0.0,0.0,0.0,0.0,0.0,0.0,0.0,0.0,0.0,0.8885,0.9494,0.9919,1.0101,0.8543,0.7634,0.0,0.0,0.0,0.0,0.0,0.0,0.0,0.0,0.0,0.0,0.0,0.0,0.0,0.0,0.0,0.0,0.0,0.0,0.0,0.0,0.0,0.0,0.0,0.0,0.0,0.0,0.0,0.0,0.0,0.0,0.0,0.0,0.0,0.0,0.0,0.0,0.0,0.0,0.0,0.0,0.0,0.0,0.0,0.0,0.0,0.0,0.0,0.0,0.0,0.0,0.0,0.0,0.0,0.0,0.0,0.0,0.0,0.0,0.0,0.0,0.0,0.0,0.0,0.0,0.0,0.0,0.0,0.0,0.0,0.0,0.0,0.0,0.0,0.0,0.0,0.0,0.0,0.0,0.0,0.0,0.0,0.0,0.0,0.0,0.0,0.0,0.0,0.0,0.0,0.0,0.0,0.0,0.0,0.0,0.0,0.0,0.0,0.0,0.0,0.0,0.0,0.0,0.0,0.0,0.0,0.0,0.0,0.0,0.0,0.9997,1.1034,1.1322,1.0838,0.9236,0.8174,0.7725,0.0,0.0,0.0,0.0,0.0,0.0,0.0,0.0,0.0,0.0,0.0,0.0,0.0,0.0,0.0,0.0,0.0,0.0,0.0,0.0,0.0,0.0,0.0,0.0,0.0,0.0,0.0,0.0,0.0,0.0,0.0,0.0,0.0,0.0,0.0,0.0,0.0,0.0,0.0,0.0,0.0,0.0,0.0,0.0,0.0,0.0,0.0,0.0,0.0,0.0,0.0,0.0,0.0,0.0,0.0,0.0,0.0,0.0,0.0,0.0,0.0,0.0,0.0,0.0,0.0,0.0,0.0,0.0,0.0,0.0,0.0,0.0,0.0,0.0,0.0,0.0,0.0,0.0,0.0,0.0,0.0,0.0,0.0,0.0,0.0,0.0,0.0,0.0,0.0,0.0,0.0,0.0,0.0,0.0,0.0,0.0,0.0,0.0,0.0,0.0,0.0,0.0,0.0,0.0,0.0,0.0,0.0,0.0,1.05,1.1587,1.1568,1.0285,1.0112,0.8936,0.0,0.0,0.0,0.0,0.0,0.0,0.0,0.0,0.0,0.0,0.0,0.0,0.0,0.0,0.0,0.0,0.0,0.0,0.0,0.0,0.0,0.0,0.0,0.0,0.0,0.0,0.0,0.0,0.0,0.0,0.0,0.0,0.0,0.0,0.0,0.0,0.0,0.0,0.0,0.0,0.0,0.0,0.0,0.0,0.0,0.0,0.0,0.0,0.0,0.0,0.0,0.0,0.0,0.0,0.0,0.0,0.0,0.0,0.0,0.0,0.0,0.0,0.0,0.0,0.0,0.0,0.0,0.0,0.0,0.0,0.0,0.0,0.0,0.0,0.0,0.0,0.0,0.0,0.0,0.0,0.0,0.0,0.0,0.0,0.0,0.0,0.0,0.0,0.0,0.0,0.0,0.0,0.0,0.0,0.0,0.0,0.0,0.0,0.0,0.0,0.0,0.0,0.0,0.0,0.0,0.0,0.0,0.0,0.0,1.1886,1.3538,1.4064,1.3443,1.2298,1.0848,0.0,0.0,0.0,0.0,0.0,0.0,0.0,0.0,0.0,0.0,0.0,0.0,0.0,0.0,0.0,0.0,0.0,0.0,0.0,0.0,0.0,0.0,0.0,0.0,0.0,0.0,0.0,0.0,0.0,0.0,0.0,0.0,0.0,0.0,0.0,0.0,0.0,0.0,0.0,0.0,0.0,0.0,0.0,0.0,0.0,0.0,0.0,0.0,0.0,0.0,0.0,0.0,0.0,0.0,0.0,0.0,0.0,0.0,0.0,0.0,0.0,0.0,0.0,0.0,0.0,0.0,0.0,0.0,0.0,0.0,0.0,0.0,0.0,0.0,0.0,0.0,0.0,0.0,0.0,0.0,0.0,0.0,0.0,0.0,0.0,0.0,0.0,0.0,0.0,0.0,0.0,0.0,0.0,0.0,0.0,0.0,0.0,0.0,0.0,0.0,0.0,0.0,0.0,0.0,0.0,0.0,0.0,0.0,1.0614,1.28,1.4869,1.6034,1.6209,1.4724,1.2879,0.0,0.0,0.0,0.0,0.0,0.0,0.0,0.0,0.0,0.0,0.0,0.0,0.0,0.0,0.0,0.0,0.0,0.0,0.0,0.0,0.0,0.0,0.0,0.0,0.0,0.0,0.0,0.0,0.0,0.0,0.0,0.0,0.0,0.0,0.0,0.0,0.0,0.0,0.0,0.0,0.0,0.0,0.0,0.0,0.0,0.0,0.0,0.0,0.0,0.0,0.0,0.0,0.0,0.0,0.0,0.0,0.0,0.0,0.0,0.0,0.0,0.0,0.0,0.0,0.0,0.0,0.0,0.0,0.0,0.0,0.0,0.0,0.0,0.0,0.0,0.0,0.0,0.0,0.0,0.0,0.0,0.0,0.0,0.0,0.0,0.0,0.0,0.0,0.0,0.0,0.0,0.0,0.0,0.0,0.0,0.0,0.0,0.0,0.0,0.0,0.0,0.0,0.0,0.0,0.0,0.0,0.0,0.0,1.1299,1.3311,1.5727,1.7407,1.8193,1.6911,1.473,0.0,0.0,0.0,0.0,0.0,0.0,0.0,0.0,0.0,0.0,0.0,0.0,0.0,0.0,0.0,0.0,0.0,0.0,0.0,0.0,0.0,0.0,0.0,0.0,0.0,0.0,0.0,0.0,0.0,0.0,0.0,0.0,0.0,0.0,0.0,0.0,0.0,0.0,0.0,0.0,0.0,0.0,0.0,0.0,0.0,0.0,0.0,0.0,0.0,0.0,0.0,0.0,0.0,0.0,0.0,0.0,0.0,0.0,0.0,0.0,0.0,0.0,0.0,0.0,0.0,0.0,0.0,0.0,0.0,0.0,0.0,0.0,0.0,0.0,0.0,0.0,0.0,0.0,0.0,0.0,0.0,0.0,0.0,0.0,0.0,0.0,0.0,0.0,0.0,0.0,0.0,0.0,0.0,0.0,0.0,0.0,0.0,0.0,0.0,0.0,0.0,0.0,0.0,0.0,0.0,0.0,0.0,0.0,1.1168,1.3495,1.5748,1.7287,1.8031,1.6766,1.4911,0.0,0.0,0.0,0.0,0.0,0.0,0.0,0.0,0.0,0.0,0.0,0.0,0.0,0.0,0.0,0.0,0.0,0.0,0.0,0.0,0.0,0.0,0.0,0.0,0.0,0.0,0.0,0.0,0.0,0.0,0.0,0.0,0.0,0.0,0.0,0.0,0.0,0.0,0.0,0.0,0.0,0.0,0.0,0.0,0.0,0.0,0.0,0.0,1.9193,0.0,0.0,0.0,0.0,0.0,0.0,0.0,0.0,0.0,0.0,0.0,0.0,0.0,0.0,0.0,0.0,0.0,0.0,0.0,0.0,0.0,0.0,0.0,0.0,0.0,0.0,0.0,0.0,0.0,0.0,0.0,0.0,0.0,0.0,0.0,0.0,0.0,0.0,0.0,0.0,0.0,0.0,0.0,0.0,0.0,0.0,0.0,0.0,0.0,0.0,0.0,0.0,0.0,0.0,0.0,0.0,0.0,0.0,0.0,1.179,1.3848,1.5612,1.6782,1.7274,1.6079,1.472,0.0,0.0,0.0,0.0,0.0,0.0,0.0,0.0,0.0,0.0,0.0,0.0,0.0,0.0,0.0,0.0,0.0,0.0,0.0,0.0,0.0,0.0,0.0,0.0,0.0,0.0,0.0,0.0,0.0,0.0,0.0,0.0,0.0,0.0,0.0,0.0,0.0,0.0,0.0,0.0,0.0,0.0,0.0,0.0,0.0,0.0,0.0,0.0,0.0,0.0,0.0,0.0,0.0,0.0,0.0,0.0,0.0,0.0,0.0,0.0,0.0,0.0,0.0,0.0,0.0,0.0,0.0,0.0,0.0,0.0,0.0,0.0,0.0,0.0,0.0,0.0,0.0,0.0,0.0,0.0,0.0,0.0,0.0,0.0,0.0,0.0,0.0,0.0,0.0,0.0,0.0,0.0,0.0,0.0,0.0,0.0,0.0,0.0,0.0,0.0,0.0,0.0,0.0,0.0,0.0,0.0,0.0,1.0276,1.2347,1.4096,1.536,1.6107,1.6262,1.5242,1.4251,1.3356,0.0,0.0,0.0,0.0,0.0,0.0,0.0,0.0,0.0,0.0,0.0,0.0,0.0,0.0,0.0,0.0,0.0,0.0,0.0,0.0,0.0,0.0,0.0,0.0,0.0,0.0,0.0,0.0,0.0,0.0,0.0,0.0,0.0,0.0,0.0,0.0,0.0,0.0,1.6165,2.2406,0.0,0.0,0.0,0.0,0.0,0.0,0.0,0.0,2.0731,0.0,0.0,0.0,0.0,0.0,0.0,0.0,0.0,0.0,0.0,0.0,0.0,0.0,0.0,0.0,0.0,0.0,0.0,0.0,0.0,0.0,0.0,0.0,0.0,0.0,0.0,0.0,0.0,0.0,0.0,0.0,0.0,0.0,0.0,0.0,0.0,0.0,0.0,0.0,0.0,0.0,0.0,0.0,0.0,0.0,0.0,0.0,0.0,0.0,0.0,0.0,0.0,0.0,0.0,0.0,0.0,0.8086,0.9454,1.1341,1.3825,1.4987,1.5355,1.4882,1.4649,1.3348,1.0907,0.0,0.0,0.0,0.0,0.0,0.0,0.0,0.0,0.0,0.0,0.0,0.0,0.0,0.0,0.0,0.0,0.0,0.0,0.0,0.0,0.0,0.0,0.0,0.0,0.0,0.0,0.0,0.0,0.0,0.0,0.0,0.0,0.0,0.0,0.0,0.0,0.0,0.0,0.0,2.7375,2.7791,0.0,0.0,0.0,0.0,0.0,0.0,0.0,0.0,2.2224,0.0,0.0,0.0,0.0,0.0,0.0,0.0,0.0,0.0,0.0,0.0,0.0,0.0,0.0,0.0,0.0,0.0,0.0,0.0,0.0,0.0,0.0,0.0,0.0,0.0,0.0,0.0,0.0,0.0,0.0,0.0,0.0,0.0,0.0,0.0,0.0,0.0,0.0,0.0,0.0,0.0,0.0,0.0,0.0,0.0,0.0,0.0,0.0,0.0,0.0,0.0,0.0,0.0,0.0,0.0,0.7923,0.9591,1.148,1.3595,1.3609,1.3321,1.2742,1.195,1.0639,0.0,0.0,0.0,0.0,0.0,0.0,0.0,0.0,0.0,0.0,0.0,0.0,0.0,0.0,0.0,0.0,0.0,0.0,0.0,0.0,0.0,0.0,0.0,0.0,0.0,0.0,0.0,0.0,0.0,0.0,0.0,0.0,0.0,0.0,0.0,0.0,0.0,0.0,0.0,0.0,2.9956,2.9167,3.0632,0.0,0.0,0.0,0.0,0.0,0.0,2.5213,2.449,0.0,0.0,0.0,0.0,0.0,0.0,0.0,0.0,0.0,0.0,0.0,0.0,0.0,0.0,0.0,0.0,0.0,0.0,0.0,0.0,0.0,0.0,0.0,0.0,0.0,0.0,0.0,0.0,0.0,0.0,0.0,0.0,0.0,0.0,0.0,0.0,0.0,0.0,0.0,0.0,0.0,0.0,0.0,0.0,0.0,0.0,0.0,0.0,0.0,0.0,0.0,0.0,0.0,0.0,0.0,0.7761,0.9698,1.1585,1.3267,1.2303,1.1468,1.0982,0.9526,0.8295,0.0,0.0,0.0,0.0,0.0,0.0,0.0,0.0,0.0,0.0,0.0,0.0,0.0,0.0,0.0,0.0,0.0,0.0,0.0,0.0,0.0,0.0,0.0,0.0,0.0,0.0,0.0,0.0,0.0,0.0,0.0,0.0,0.0,0.0,0.0,0.0,0.0,0.0,0.0,0.0,0.0,3.033,3.2743,3.4529,0.0,0.0,0.0,0.0,2.9401,2.9503,0.0,0.0,0.0,0.0,0.0,0.0,0.0,0.0,0.0,0.0,0.0,0.0,0.0,0.0,0.0,0.0,0.0,0.0,0.0,0.0,0.0,0.0,0.0,0.0,0.0,0.0,0.0,0.0,0.0,0.0,0.0,0.0,0.0,0.0,0.0,0.0,0.0,0.0,0.0,0.0,0.0,0.0,0.0,0.0,0.0,0.0,0.0,0.0,0.0,0.0,0.0,0.0,0.0,0.0,0.0,0.0,0.7596,0.8973,1.0687,1.264,1.1803,1.1069,1.0644,0.9351,0.8059,0.0,0.0,0.0,0.0,0.0,0.0,0.0,0.0,0.0,0.0,0.0,0.0,0.0,0.0,0.0,0.0,0.0,0.0,0.0,0.0,0.0,0.0,0.0,0.0,0.0,0.0,0.0,0.0,0.0,0.0,0.0,0.0,0.0,0.0,0.0,0.0,0.0,0.0,0.0,0.0,0.0,3.1108,3.2471,3.6285,3.7692,0.0,0.0,3.6042,3.1529,3.5076,0.0,0.0,0.0,0.0,0.0,0.0,0.0,0.0,0.0,0.0,0.0,0.0,0.0,0.0,0.0,0.0,0.0,0.0,0.0,0.0,0.0,0.0,0.0,0.0,0.0,0.0,0.0,0.0,0.0,0.0,0.0,0.0,0.0,0.0,0.0,0.0,0.0,0.0,0.0,0.0,0.0,0.0,0.0,0.0,0.0,0.0,0.0,0.0,0.0,0.0,0.0,0.0,0.0,0.0,0.0,0.6834,0.8101,0.9761,1.1159,1.2121,1.0306,0.9322,0.9403,0.7671,0.6514,0.0,0.0,0.0,0.0,0.0,0.0,0.0,0.0,0.0,0.0,0.0,0.0,0.0,0.0,0.0,0.0,0.0,0.0,0.0,0.0,0.0,0.0,0.0,0.0,0.0,0.0,0.0,0.0,0.0,0.0,0.0,0.0,0.0,0.0,0.0,0.0,0.0,0.0,0.0,0.0,0.0,0.0,3.5908,4.0064,0.0,0.0,0.0,4.1615,3.6146,0.0,0.0,0.0,0.0,0.0,0.0,0.0,0.0,0.0,0.0,0.0,0.0,0.0,0.0,0.0,0.0,0.0,0.0,0.0,0.0,0.0,0.0,0.0,0.0,0.0,0.0,0.0,0.0,0.0,0.0,0.0,0.0,0.0,0.0,0.0,0.0,0.0,0.0,0.0,0.0,0.0,0.0,0.0,0.0,0.0,0.0,0.0,0.0,0.0,0.0,0.0,0.0,0.0,0.0,0.0,0.0,0.0,0.8301,1.0284,1.142,1.1523,0.9339,0.8276,0.8467,0.6745,0.0,0.0,0.0,0.0,0.0,0.0,0.0,0.0,0.0,0.0,0.0,0.0,0.0,0.0,0.0,0.0,0.0,0.0,0.0,0.0,0.0,0.0,0.0,0.0,0.0,0.0,0.0,1.0731,0.0,0.0,0.0,0.0,0.0,0.0,0.0,0.0,0.0,0.0,0.0,0.0,0.0,0.0,2.6417,3.7819,4.3013,4.4832,0.0,0.0,4.6176,4.1469,4.3162,4.4322,0.0,0.0,0.0,0.0,0.0,0.0,0.0,0.0,0.0,0.0,0.0,0.0,0.0,0.0,0.0,0.0,0.0,0.0,0.0,0.0,0.0,0.0,0.0,0.0,0.0,0.0,0.0,0.0,0.0,0.0,0.0,0.0,0.0,0.0,0.0,0.0,0.0,0.0,0.0,0.0,0.0,0.0,0.0,0.0,0.0,0.0,0.0,0.0,0.0,0.0,0.0,0.0,0.0,0.0,0.727,0.7782,0.9721,1.0764,1.0771,0.9756,0.9004,0.8599,0.7665,0.6776,0.0,0.0,0.0,0.0,0.0,0.0,0.0,0.0,0.0,0.0,0.0,0.0,0.0,0.0,0.0,0.0,0.0,0.0,0.0,0.0,0.0,0.0,0.0,0.0,0.0,0.0,0.0,0.0,0.0,0.0,0.0,0.0,0.0,0.0,0.0,0.0,0.0,0.0,0.0,0.0,0.0,2.3343,3.552,4.4067,4.8327,0.0,4.7747,4.8711,4.697,4.9977,4.9416,4.0143,0.0,0.0,0.0,0.0,0.0,0.0,0.0,0.0,0.0,0.0,0.0,0.0,0.0,0.0,0.0,0.0,0.0,0.0,0.0,0.0,0.0,0.0,0.0,0.0,0.0,0.0,0.0,0.0,0.0,0.0,0.0,0.0,0.0,0.0,0.0,0.0,0.0,0.0,0.0,0.0,0.0,0.0,0.0,0.0,0.0,0.0,0.0,0.0,0.0,0.0,0.0,0.0,0.0,0.7347,0.8309,0.9724,1.0547,1.0673,0.9981,0.9478,0.9246,0.8205,0.737,0.0,0.0,0.0,0.0,0.0,0.0,0.0,0.0,0.0,0.0,0.0,0.0,0.0,0.0,0.0,0.0,0.0,0.0,0.0,0.0,0.0,0.0,0.0,0.0,0.0,0.0,0.0,0.0,1.5204,1.5508,1.5545,0.0,0.0,0.0,0.0,0.0,0.0,0.0,0.0,0.0,0.0,3.2751,3.9516,4.5432,0.0,0.0,4.85,4.9555,4.9865,4.9519,4.6865,3.9795,3.9829,0.0,0.0,0.0,0.0,0.0,0.0,0.0,0.0,0.0,0.0,0.0,0.0,0.0,0.0,0.0,0.0,0.0,0.0,0.0,0.0,0.0,0.0,0.0,0.0,0.0,0.0,0.0,0.0,0.0,0.0,0.0,0.0,0.0,0.0,0.0,0.0,0.0,0.0,0.0,0.0,0.0,0.0,0.0,0.0,0.0,0.0,0.0,0.0,0.0,0.0,0.0,0.0,0.7287,0.8528,0.956,1.025,1.066,1.0291,0.9994,0.9887,0.9061,0.8126,0.0,0.0,0.0,0.0,0.0,0.0,0.0,0.0,0.0,0.0,0.0,0.0,0.0,0.0,0.0,0.0,0.0,0.0,0.0,0.0,0.0,0.0,0.0,0.0,0.0,0.0,0.0,0.0,1.6597,1.6031,1.5627,0.0,0.0,0.0,0.0,0.0,0.0,0.0,0.0,0.0,0.0,3.9726,4.2302,4.5927,4.8212,4.7879,4.8325,4.9014,4.9987,4.836,4.4817,3.8706,0.0,0.0,0.0,0.0,0.0,0.0,0.0,0.0,0.0,0.0,0.0,0.0,0.0,0.0,0.0,0.0,0.0,0.0,0.0,0.0,0.0,0.0,0.0,0.0,0.0,0.0,0.0,0.1132,0.0,0.0,0.0,0.0,0.0,0.0,0.0,0.0,0.0,0.0,0.0,0.0,0.0,0.0,0.0,0.0,0.0,0.0,0.0,0.0,0.0,0.0,0.0,0.0,0.0,0.7006,0.8192,0.9093,0.9915,1.069,1.0649,1.0658,1.0681,1.029,0.9247,0.7515,0.0,0.0,0.0,0.0,0.0,0.0,0.0,0.0,0.0,0.0,0.0,0.0,0.0,0.0,0.0,0.0,0.0,0.0,0.0,0.0,0.0,0.0,0.0,0.0,0.0,0.0,1.7486,1.6563,1.519,0.0,0.0,0.0,0.0,0.0,0.0,0.0,0.0,0.0,3.076,3.7445,4.1789,4.2617,4.5196,4.7125,4.7266,4.7133,4.7043,4.7176,4.7121,4.4422,0.0,0.0,0.0,0.0,0.0,0.0,0.0,0.0,0.0,0.0,0.0,0.0,0.0,0.0,0.0,0.0,0.0,0.0,0.0,0.0,0.0,0.0,0.0,0.0,0.0,0.0,0.0,0.5008,0.3191,0.0,0.0,0.0,0.0,0.0,0.0,0.0,0.0,0.0,0.0,0.0,1.4239,1.5502,0.0,0.0,0.0,0.0,0.0,0.0,0.0,0.0,0.0,0.0,0.0,0.0,0.7327,0.8172,0.8964,0.9619,1.0182,1.111,1.1556,1.142,1.1202,0.9796,0.7108,0.0,0.0,0.0,0.0,0.0,0.0,0.0,0.0,0.0,0.0,0.0,0.0,0.0,0.0,0.0,0.0,0.0,0.0,0.0,0.0,0.0,0.0,0.0,0.0,0.0,1.3372,0.0,0.0,0.0,0.0,0.0,0.0,0.0,0.0,0.0,0.0,0.0,2.6284,3.2286,3.7706,4.081,3.995,4.3617,4.6348,0.0,0.0,0.0,0.0,0.0,0.0,0.0,0.0,0.0,0.0,0.0,0.0,0.0,0.0,3.3743,2.9468,2.6827,2.5285,2.5293,0.0,0.0,0.0,0.0,0.0,0.0,0.0,0.0,0.0,0.0,0.0,0.0,0.0,0.0,0.7381,0.0,0.5267,0.0,0.0,0.0,0.0,0.0,0.0,0.0,0.0,1.5198,1.6755,1.7193,1.837,1.8346,0.0,1.6669,1.4995,0.0,0.0,0.0,0.0,0.0,0.0,0.0,0.0,0.7401,0.8202,0.8665,0.9374,1.0374,1.1408,1.2053,1.2081,1.0994,0.9417,0.7364,0.5451,0.439,0.0,0.0,0.0,0.0,0.0,0.0,0.0,0.0,0.0,0.0,0.0,0.0,0.0,0.0,0.0,0.0,0.0,0.0,0.0,0.0,0.0,0.0,0.0,1.2253,0.0,0.0,0.0,0.0,0.0,0.0,0.0,0.0,0.0,2.6106,2.6224,2.7936,3.3498,3.6887,3.8755,3.8727,0.0,0.0,0.0,0.0,0.0,0.0,0.0,4.1708,4.1182,3.9652,3.8413,3.8197,3.976,4.036,3.83,0.0,0.0,3.2803,2.9828,2.8007,2.7891,2.785,2.8076,2.8785,2.973,3.0885,0.0,0.0,0.0,0.0,0.0,0.0,0.0,0.0,0.8017,0.8432,0.0,0.8744,0.0,0.0,0.0,0.0,0.9362,1.3275,0.0,0.0,1.8032,1.9801,1.9685,2.0193,2.0406,2.0406,2.0554,1.958,1.7413,1.2631,0.0,0.0,0.0,0.0,0.0,0.0,0.733,0.8211,0.8303,0.9249,1.1194,1.1658,1.2121,1.259,0.9742,0.818,0.8186,0.5708,0.4232,0.4088,0.3888,0.0,0.0,0.0,0.0,0.0,0.0,0.0,0.0,0.0,0.0,0.0,0.0,0.0,0.0,0.0,0.0,0.0,0.0,0.0,0.0,0.9874,0.0,0.0,0.0,0.0,0.0,0.0,0.0,0.0,0.0,0.0,2.1587,2.3192,2.6916,3.4289,0.0,0.0,0.0,0.0,3.898,4.0845,4.3261,4.4229,4.2489,4.1452,4.0896,4.0996,0.0,0.0,4.0254,4.0804,4.0849,3.8854,3.9572,3.9638,3.7457,3.5129,3.3417,3.2557,3.2371,3.2333,3.174,3.298,3.4566,0.8199,0.0,0.0,0.0,0.0,0.9648,1.0856,1.1885,1.2389,1.2581,1.2555,1.2394,0.0,0.0,0.0,0.0,0.0,0.0,1.7248,1.7664,2.0488,2.1985,2.2384,2.2842,2.2777,2.2154,2.1779,2.0853,1.9329,1.6942,1.4459,1.1926,0.0,0.0,0.0,0.0,0.8602,0.8658,0.9195,0.993,1.0769,1.2152,1.2788,1.2625,0.9791,0.8195,0.8076,0.5589,0.4046,0.3699,0.3653,0.0,0.0,0.0,0.0,0.0,0.0,0.0,0.0,0.0,0.0,0.0,0.0,0.0,0.0,0.0,0.0,0.0,0.0,0.0,1.2552,1.2861,1.2964,0.0,0.0,0.0,0.0,0.0,0.0,0.0,0.0,0.0,2.305,2.4599,2.7428,0.0,0.0,3.6074,3.6109,3.7194,3.8508,3.9928,4.1941,0.0,4.2427,4.2297,4.225,4.2069,4.3304,4.4142,4.3535,4.3407,4.3399,4.3368,4.2286,4.1026,3.9978,3.6885,3.4352,3.3563,3.3825,3.3941,3.3259,3.3864,3.4921,0.9041,0.8573,0.8794,0.8925,0.92,1.062,1.2022,1.3335,1.4142,1.476,1.5235,1.5361,1.4449,1.2836,1.2735,0.0,0.0,0.0,1.9348,2.0166,2.2196,2.3503,2.4123,2.4199,2.4155,2.3916,2.2896,2.2,2.1177,1.9871,1.7947,1.5463,0.0,0.0,1.0666,1.025,0.976,0.9244,0.9844,1.0499,1.1137,1.2239,1.2759,1.2503,0.9567,0.7744,0.728,0.5267,0.3929,0.3399,0.3441,0.3517,0.0,0.0,0.0,0.0,0.0,0.0,0.0,0.0,0.0,0.0,0.0,0.6722,0.585,0.0,0.0,0.0,0.8567,1.1643,1.7909,1.6862,0.0,0.0,0.0,0.0,0.0,0.0,0.0,1.7814,1.9534,2.1761,2.4747,2.523,2.7451,3.3385,3.5101,3.5645,3.5301,0.0,3.714,3.8338,4.0294,4.1764,4.2052,4.226,4.2643,4.3342,4.4936,4.5843,4.5346,4.5057,4.4893,4.4686,4.3756,4.2481,4.1364,3.9027,3.6827,3.5493,3.5533,3.5568,3.4849,3.5318,3.616,0.9403,0.9444,0.9175,0.9202,0.9578,1.1009,1.2253,1.3304,1.4159,1.5515,1.7213,1.7664,1.7425,1.6661,1.6463,0.0,1.7992,1.9903,2.121,2.1976,2.3443,2.4485,2.5075,2.4657,2.4817,2.5468,2.396,2.315,2.2892,2.1784,2.0622,1.946,1.6521,1.4233,1.2698,1.18,1.0945,1.003,1.0466,1.1153,1.2075,1.2215,1.237,1.2452,0.9259,0.7121,0.6242,0.4845,0.3818,0.3272,0.3264,0.334,0.3475,0.0,0.0,0.0,0.0,0.0,0.0,0.0,0.0,0.0,0.0,0.0,0.0,0.0,0.0,0.774,0.9618,0.0,2.301,2.1262,0.0,0.0,0.0,1.5658,1.5648,1.6688,1.8192,2.0293,0.0,0.0,2.6318,2.5689,2.7795,3.5584,3.5514,3.5054,3.5893,3.543,3.5333,3.6496,3.8564,4.0473,4.1541,4.1977,4.2775,4.4403,4.6108,4.6649,4.5864,4.573,4.5244,4.4204,4.4053,4.3634,4.1667,4.1267,4.071,3.798,3.7511,3.7279,3.6486,3.7136,3.7746,0.8692,0.8948,0.8928,0.9591,1.0708,1.2062,1.3364,1.4637,1.5831,1.7022,1.8135,1.8826,1.9092,1.9023,1.9512,2.0015,2.0603,2.2466,2.3461,2.373,2.47,2.5176,2.5274,2.5583,2.542,2.4899,2.519,2.4757,2.3614,2.3274,2.2497,2.124,1.9455,1.7119,1.435,1.339,1.2571,1.186,1.2158,1.2737,1.3594,1.3255,1.2841,1.233,0.9784,0.7753,0.6409,0.4797,0.379,0.3454,0.3293,0.3238,0.3264,0.3659,0.0,0.0,0.0,0.0,0.0,0.0,0.0,0.0,0.0,0.6552,0.5051,0.0,0.7427,0.0,0.9819,1.3614,2.076,2.2613,0.0,0.0,1.8814,1.8544,1.964,2.0193,2.1084,2.2457,2.3306,2.4332,2.6048,2.9833,3.3275,3.5955,3.6789,3.6662,3.5588,3.5425,3.5722,3.6615,3.8008,3.9674,4.1626,4.3175,4.4125,4.4527,4.5584,4.6086,4.5402,4.5052,4.4845,4.4798,4.3797,4.2871,4.2303,4.1871,4.0952,3.9464,3.9067,3.8461,3.675,3.7187,3.7729,0.8124,0.8714,0.8806,0.9526,1.071,1.1492,1.285,1.4623,1.575,1.7154,1.8735,1.9798,2.0482,2.0853,2.1184,2.1714,2.2478,2.4043,2.5029,2.55,2.6316,2.6802,2.7017,2.6868,2.6617,2.632,2.6185,2.5553,2.455,2.4062,2.3442,2.2648,2.0833,1.8891,1.6837,1.5097,1.3957,1.3465,1.3853,1.4332,1.4865,1.4266,1.3456,1.2446,1.0739,0.9031,0.7379,0.6305,0.5287,0.4267,0.4072,0.375,0.3254,0.4028,0.4397,0.0,0.0,0.0,0.0,0.0,0.0,0.0,0.0,0.0,0.0,0.0,0.7963,0.9156,1.084,1.4654,2.1531,2.3603,2.3885,2.2055,2.1415,2.138,2.2201,2.2753,2.3566,2.4866,2.5376,2.6083,2.751,3.2203,3.5749,3.6474,3.7458,3.7718,3.6614,3.6089,3.6165,3.7323,3.815,3.9331,4.1405,4.3109,4.4303,4.4619,4.5292,4.5624,4.4932,4.4678,4.4574,4.4435,4.3406,4.2445,4.2259,4.1928,4.1204,4.0065,3.9626,3.9151,3.8056,3.8063,3.8153,0.7648,0.8527,0.8672,0.9344,1.0213,1.0321,1.1704,1.3919,1.4862,1.6664,1.9082,2.0554,2.154,2.2167,2.2154,2.2791,2.3954,2.5092,2.6145,2.7075,2.7849,2.8497,2.9007,2.8142,2.7946,2.8277,2.7082,2.6183,2.5657,2.4669,2.4023,2.3582,2.1424,1.9957,1.9151,1.6665,1.5157,1.4774,1.5324,1.5733,1.5976,1.5252,1.4218,1.2926,1.181,1.0427,0.8743,0.8202,0.7156,0.5459,0.5229,0.4684,0.3633,0.478,0.5365,0.0,0.5926,0.0,0.0,0.0,0.0,0.0,0.0,0.0,0.0,0.8258,0.8925,0.9992,1.2045,1.6359,2.369,2.446,2.4235,2.3734,2.3696,2.3825,2.394,2.4584,2.553,2.6922,2.7215,2.7923,2.9499,3.3364,3.6023,3.6257,3.6982,3.7602,3.7774,3.7037,3.7018,3.8405,3.8731,3.9534,4.0854,4.2257,4.3456,4.4232,4.4839,4.5038,4.4381,4.4418,4.4291,4.3518,4.2853,4.2236,4.1754,4.1603,4.1121,3.9953,3.9631,3.9558,3.9421,3.9133,3.8873,0.7171,0.7937,0.8427,0.928,1.0378,1.0588,1.1599,1.3217,1.4477,1.6578,1.9165,2.0849,2.1987,2.2678,2.3202,2.4207,2.5546,2.602,2.6862,2.7974,2.8118,2.8232,2.832,2.8637,2.837,2.7676,2.8254,2.7893,2.6632,2.6415,2.5547,2.4067,2.2294,2.0591,1.8965,0.0,0.0,0.0,1.6032,1.6499,1.6959,1.6195,1.5301,1.4382,1.241,0.0,0.9518,0.807,0.7043,0.6512,0.6316,0.0,0.0,0.0,0.0,0.0,0.0,0.0,0.0,0.0,0.0,0.0,0.9526,0.9243,0.8361,0.9638,1.0856,1.1605,1.2465,1.6538,2.4981,2.4871,2.4593,2.5283,2.4693,2.4585,2.542,2.5546,2.5893,2.6754,2.8086,2.9371,3.0633,3.2451,3.3541,3.374,3.4462,3.5588,3.7064,3.8006,3.8672,3.8823,3.9372,3.9986,4.0337,4.1292,4.2266,4.275,4.3424,4.3813,4.365,4.3789,4.3655,4.2842,4.2284,4.1763,4.1083,4.0656,4.0321,3.9815,3.9564,3.9469,3.9552,3.9283,3.8844,0.6834,0.7524,0.8044,0.9016,0.0,1.0814,1.1499,1.2425,1.3994,1.6336,1.9129,2.0732,2.1927,2.2746,2.3338,2.4428,2.5863,2.6645,2.7595,2.869,2.9218,2.9413,2.9392,2.9652,2.9456,2.8793,2.9101,2.8784,2.7832,2.7056,2.6113,2.493,2.2928,2.1245,1.9832,1.8547,1.7471,1.6651,1.7004,1.7346,1.7604,1.6947,1.6043,1.4866,1.3844,0.0,0.0,0.0,0.0,0.0,0.0,0.0,0.0,0.8241,0.0,0.9464,0.9388,0.9945,1.1216,1.0665,1.0411,1.0815,1.1273,1.1114,1.0161,1.1423,1.2594,1.3347,1.4144,1.7731,2.4919,2.5267,2.5026,2.5426,2.5242,2.5471,2.6204,2.6244,2.6198,2.651,2.7924,2.9383,3.0284,3.0425,3.0836,3.1439,3.317,3.4694,3.5838,3.7845,3.916,3.9156,3.9807,4.028,4.0285,4.0974,4.1605,4.1944,4.2757,4.322,4.2852,4.2687,4.2704,4.2881,4.2162,4.1229,4.1116,4.0507,3.9911,3.9781,3.9564,3.932,3.932,3.9138,3.8844,0.6432,0.7157,0.7653,0.8684,1.0108,1.0987,1.1611,1.2095,0.0,0.0,0.0,2.0352,2.1546,2.2441,2.3017,2.4179,2.5837,2.6963,2.8176,2.9396,3.0263,3.0691,3.0712,3.0575,3.041,3.0196,2.9718,2.9191,2.8658,2.732,2.6166,2.5148,2.3126,2.1531,2.0411,1.9335,1.8539,1.799,1.8151,1.8223,1.8188,1.7651,1.6696,1.5329,1.5226,1.4048,1.1708,1.205,1.1295,0.9138,0.9519,0.9811,0.9867,1.0576,1.0694,1.0067,1.0917,1.1953,1.3056,1.2488,1.2188,1.244,1.3106,1.3204,1.2517,1.3509,1.4421,1.4955,1.6408,1.94,2.4218,2.5198,2.5333,2.5114,2.5364,2.5816,2.6578,2.6381,2.5926,2.5889,2.6916,2.8181,2.8707,2.7999,2.8094,2.9795,3.1995,3.4118,3.4843,3.7119,3.9007,3.9354,3.985,4.0188,4.0197,4.0587,4.1134,4.1181,4.1986,4.2511,4.2207,4.1816,4.2129,4.3,4.1875,4.1124,4.1071,4.0454,3.9864,3.9845,3.9514,3.9184,3.8997,3.8939,3.8792,0.5736,0.6789,0.748,0.8651,1.0181,1.1137,1.2122,1.317,1.4467,1.6157,1.822,1.9565,2.075,2.177,2.2441,2.4023,2.6219,2.6743,2.8103,3.0046,3.0393,3.0583,3.07,3.0622,3.0496,3.0259,2.9912,2.9238,2.8296,2.7596,2.6069,2.3774,2.2243,2.073,1.9024,1.8608,1.9024,2.0095,1.9438,1.9089,1.9022,1.8353,1.7638,1.6881,1.5646,1.4179,1.2434,1.1912,1.1394,1.0853,1.0905,1.1256,1.1923,1.2031,1.1964,1.1746,1.1689,1.2625,1.4743,1.4552,1.4405,1.4585,1.5193,1.5272,1.4593,1.6032,1.6731,1.6221,1.8782,2.09,2.1757,2.3682,2.4963,2.4981,2.4708,2.5082,2.6404,2.5579,2.4671,2.4309,2.4853,2.5545,2.5889,2.5234,2.595,2.8821,3.0565,3.1693,3.4425,3.6747,3.842,3.9182,3.9481,3.956,3.9514,3.9608,4.0029,4.044,4.015,4.0544,4.1761,4.1848,4.1825,4.1824,4.1367,4.0886,4.0299,4.0044,3.9826,3.9623,3.9309,3.9016,3.8851,3.8695,3.8541,0.4364,0.5429,0.6379,0.7863,0.9707,1.114,1.249,1.3619,1.4,1.5018,1.6662,1.8747,2.0135,2.0882,2.1866,2.348,2.5506,2.5931,2.7069,2.8638,2.8954,2.916,2.933,2.974,2.963,2.9089,2.9312,2.8868,2.7835,2.7054,2.5745,2.3952,2.2547,2.1063,1.9716,2.0306,2.0702,2.0697,2.0315,2.0099,2.0005,1.9294,1.8404,1.7348,1.621,1.4902,1.3325,1.2954,1.2533,1.1984,1.2392,1.2766,1.3092,1.3527,1.3729,1.368,1.357,1.4362,1.6377,1.5921,1.5812,1.6199,1.618,1.6367,1.6787,1.7457,1.7989,1.8288,2.0239,2.1006,2.0168,2.2147,2.3818,2.4445,2.4463,2.4619,2.487,2.4555,2.3835,2.3192,2.3357,2.3624,2.3708,2.3671,2.4567,2.7435,2.9377,3.188,3.4312,3.5871,3.7125,3.8056,3.8877,3.9127,3.8727,3.9177,3.9633,3.9989,3.9597,3.9676,4.0598,4.0778,4.0915,4.0934,4.0756,4.0431,3.9954,3.987,3.9693,3.9502,3.9156,3.8833,3.8572,3.835,3.8138,0.2751,0.3891,0.5222,0.7248,0.9628,1.1066,1.2378,1.3516,1.3334,1.3802,1.4999,1.7541,1.9189,2.0038,2.0998,2.2591,2.4467,2.4957,2.5905,2.7277,2.7695,2.7939,2.814,2.8804,2.8737,2.8143,2.8579,2.8318,2.733,2.6541,2.543,2.396,2.2337,2.1176,2.0575,2.165,2.1965,2.1493,2.1508,2.1224,2.0639,2.0084,1.9039,1.7428,1.6772,1.5666,1.4042,1.3922,1.3612,1.3023,1.3707,1.4135,1.4111,1.5076,1.5598,1.5475,1.5223,1.5873,1.7467,1.7087,1.6953,1.7496,1.7189,1.741,1.8357,1.8546,1.892,1.9929,2.0923,2.0948,1.9802,2.1227,2.2849,2.3642,2.4165,2.4213,2.372,2.3596,2.3258,2.2535,2.2515,2.2576,2.246,2.2842,2.4242,2.6783,2.9379,3.1756,3.3428,3.4465,3.5366,3.6167,3.7675,3.8606,3.8023,3.8727,3.9456,3.9675,3.9674,3.9664,3.9763,3.9879,4.0058,4.0385,4.0272,4.0036,3.9937,3.9743,3.9526,3.9298,3.8931,3.8541,3.8153,3.7915,3.7631,0.0856,0.2692,0.4337,0.7241,1.0458,1.0789,1.1543,1.2554,1.2733,1.2899,1.348,1.5554,1.7505,1.9089,1.9351,2.1113,2.3892,2.3995,2.5079,2.6968,2.7541,2.7808,2.7935,2.8193,2.8218,2.8046,2.8092,2.762,2.6701,2.6418,2.5026,2.2496,2.061,2.023,2.0878,2.1131,2.191,2.3397,2.3603,2.2639,2.0566,2.0478,1.9444,1.7296,1.7213,1.6146,1.4188,1.3943,1.3981,1.3944,1.4724,1.5182,1.5326,1.672,1.7372,1.6809,1.5938,1.6254,1.8123,1.8119,1.8023,1.8303,1.8659,1.8851,1.8918,1.9467,1.9892,2.0185,2.129,2.1207,1.9551,2.1449,2.2857,2.2801,2.3552,2.3867,2.3611,2.3107,2.2664,2.2596,2.2649,2.2579,2.2394,2.2432,2.3989,2.7227,2.8537,2.9738,3.0954,3.2418,3.3157,3.3331,3.5211,3.7254,3.769,3.8452,3.922,3.9745,3.9977,3.9979,4.0001,4.0139,4.036,4.0234,4.0177,4.0019,3.9693,3.9452,3.9376,3.9017,3.856,3.8044,3.7721,3.7361,3.6967,-0.1374,0.0541,0.2452,0.5629,0.9285,1.0624,1.1289,1.1547,1.1983,1.2328,1.2789,1.3968,1.5529,1.7384,1.8458,2.0273,2.2374,2.2771,2.3857,2.5403,2.5899,2.6184,2.6406,2.7073,2.715,2.675,2.7127,2.6661,2.5363,2.4241,2.2979,2.1799,2.0842,2.0821,2.1548,2.2,2.2793,2.3963,2.4149,2.3556,2.2362,2.2229,2.0942,1.852,1.8523,1.7908,1.6324,1.6154,1.6208,1.6249,1.6646,1.6851,1.6833,1.7519,1.7902,1.7916,1.7798,1.7847,1.8193,1.8512,1.879,1.897,1.9196,1.941,1.9672,1.9598,1.958,1.998,2.1268,2.1512,2.031,2.2608,2.4144,2.3565,2.4049,2.4164,2.3078,2.323,2.3229,2.2815,2.2816,2.2712,2.2422,2.2327,2.3453,2.5974,2.7302,2.8489,2.9386,3.0986,3.1937,3.1982,3.2973,3.4354,3.6084,3.7982,3.912,4.0085,4.0408,4.0356,4.0211,4.037,4.0438,4.0233,4.0176,3.9994,3.967,3.935,3.9165,3.8637,3.7377,3.6416,3.6101,3.5738,3.4786,-0.3501,-0.1471,0.1288,0.475,0.842,1.0318,1.1105,1.1181,1.1464,1.1932,1.2535,1.3093,1.4179,1.5771,1.7647,1.9383,2.0941,2.1927,2.2936,2.3966,2.4667,2.5072,2.5235,2.6008,2.6174,2.5788,2.623,2.5798,2.4334,2.2864,2.2001,2.1817,2.1421,2.1624,2.2407,2.2937,2.3492,2.4227,2.4379,2.4095,2.3583,2.3738,2.2376,1.9535,1.9325,1.8844,1.77,1.7657,1.7702,1.7771,1.8018,1.8075,1.7874,1.8263,1.8683,1.8985,1.9126,1.8823,1.7966,1.846,1.8927,1.9174,1.9263,1.9549,1.9963,1.9617,1.9612,2.0272,2.1306,2.1515,2.1109,2.3333,2.4648,2.405,2.4431,2.4143,2.2846,2.3302,2.3505,2.2981,2.279,2.2685,2.2377,2.2282,2.2794,2.3928,2.5693,2.7307,2.808,2.9572,3.0771,3.0748,3.059,3.1914,3.4592,3.6534,3.8377,3.9191,3.9389,4.0023,3.9986,4.0081,4.0485,4.0252,4.0134,3.9853,3.9471,3.9165,3.8501,3.7726,3.6182,3.4629,3.4878,3.4276,3.241,-0.5355,-0.3114,0.1706,0.5369,0.8204,0.9548,1.0669,1.1518,1.147,1.1913,1.2751,1.3324,1.3887,1.4811,1.6797,1.8481,2.0201,2.1671,2.2641,2.3287,2.4431,2.5006,2.5024,2.5385,2.5524,2.5446,2.5634,2.5205,2.4235,2.3398,2.2995,2.2828,2.1967,2.2238,2.3347,2.3427,2.3786,2.4476,2.4487,2.4195,2.3884,2.461,2.3441,2.048,1.9277,1.864,1.7888,1.7673,1.7715,1.7741,1.8563,1.8634,1.805,1.9244,2.0039,2.0017,1.9397,1.8592,1.7828,1.798,1.8378,1.8706,1.8982,1.9314,1.9969,1.9848,2.0192,2.1445,2.1607,2.1614,2.144,2.3031,2.41,2.4017,2.4098,2.3776,2.2829,2.317,2.3271,2.2989,2.2712,2.247,2.2321,2.2118,2.2061,2.2513,2.3528,2.4972,2.6423,2.7835,2.8639,2.8858,2.9132,3.0222,3.3865,3.5545,3.5799,3.6671,3.8204,3.9172,3.9069,3.9138,3.9804,4.0177,3.997,3.965,3.9219,3.8501,3.7535,3.6123,3.3723,3.2585,3.3348,3.3499,3.1827,-0.5976,-0.3011,0.1096,0.4271,0.6694,0.8721,0.9992,1.0727,1.1407,1.1884,1.2378,1.3447,1.4279,1.5018,1.7465,1.9065,2.0067,2.1604,2.2775,2.362,2.4391,2.4799,2.4955,2.5091,2.5236,2.5343,2.5408,2.4782,2.3494,2.2654,2.2243,2.2261,2.239,2.2959,2.3725,2.3807,2.4113,2.471,2.4746,2.4662,2.4601,2.4873,2.4159,2.269,2.1632,2.0505,1.9201,1.9725,2.0039,2.0065,2.09,2.1259,2.0938,2.0737,2.0481,2.0107,1.9261,1.8305,1.7482,1.7887,1.8367,1.8586,1.9029,1.9516,1.9947,2.008,2.0478,2.1462,2.3189,2.3486,2.2507,2.3248,2.4129,2.4257,2.4145,2.3838,2.3425,2.3369,2.3317,2.3136,2.302,2.2893,2.2321,2.1928,2.1705,2.1847,2.2835,2.3977,2.5124,2.6467,2.7601,2.8102,2.8344,2.892,3.0281,3.3388,3.5038,3.5846,3.6944,3.8044,3.8424,3.9114,3.9792,3.9599,3.9467,3.882,3.8116,3.6778,3.5906,3.4394,3.1929,3.105,3.1776,3.1579,3.0296,-0.614,-0.3179,-0.0045,0.2838,0.5471,0.7942,0.9524,1.0458,1.1555,1.2087,1.244,1.3705,1.462,1.5551,1.8087,1.9574,2.0226,2.1892,2.3061,2.3614,2.4295,2.467,2.4804,2.493,2.5057,2.5206,2.532,2.466,2.3463,2.2838,2.2578,2.263,2.3135,2.3774,2.4381,2.4471,2.4654,2.4967,2.4955,2.4974,2.5063,2.5043,2.4679,2.3964,2.322,2.2201,2.0885,2.1211,2.1515,2.1714,2.2236,2.2409,2.201,2.1274,2.0495,1.9782,1.8939,1.8013,1.7208,1.7513,1.799,1.8404,1.889,1.9432,2.0085,2.0254,2.0722,2.1858,2.3194,2.3868,2.3262,2.3176,2.3474,2.3617,2.3566,2.3448,2.3168,2.3182,2.3147,2.311,2.3193,2.297,2.2192,2.1095,2.0536,2.0536,2.1693,2.2955,2.395,2.5573,2.6954,2.7783,2.8156,2.8327,2.9112,3.112,3.3315,3.4297,3.5738,3.6901,3.785,3.8707,3.8993,3.8867,3.8396,3.7683,3.6583,3.5163,3.386,3.2634,3.1027,2.9674,2.9776,2.953,2.8793,-0.59,-0.3983,-0.1687,0.1363,0.449,0.7037,0.9227,1.088,1.1921,1.2511,1.2987,1.4125,1.4881,1.5832,1.8334,1.9849,2.0608,2.2545,2.334,2.3103,2.4056,2.4578,2.4645,2.4955,2.5095,2.5146,2.5214,2.4859,2.4014,2.3927,2.3985,2.4154,2.4257,2.4791,2.5601,2.5503,2.5418,2.5437,2.5278,2.5108,2.5122,2.5346,2.4982,2.4094,2.3694,2.3239,2.2531,2.1897,2.1821,2.2173,2.2295,2.1726,2.1216,2.0874,2.0215,1.9289,1.8516,1.7837,1.7215,1.7013,1.7539,1.8298,1.8563,1.931,2.0317,2.0547,2.1023,2.207,2.2443,2.2723,2.3335,2.2644,2.1983,2.1897,2.2403,2.2529,2.2395,2.2532,2.2802,2.2832,2.2838,2.2617,2.1528,1.986,1.8636,1.8687,2.013,2.176,2.2909,2.4994,2.6768,2.7465,2.7954,2.83,2.8523,2.8979,3.0815,3.2581,3.4259,3.5679,3.6524,3.7308,3.6924,3.6737,3.6316,3.5599,3.4713,3.3332,3.2177,3.0889,2.942,2.8458,2.8552,2.8602,2.8611,-0.6369,-0.4773,-0.2398,0.0186,0.3039,0.5942,0.8317,1.0254,1.1794,1.2981,1.3876,1.4714,1.5531,1.6638,1.8746,2.0026,2.0552,2.262,2.3611,2.363,2.4044,2.4392,2.4694,2.5265,2.5606,2.5645,2.52,2.4605,2.4089,2.4033,2.4072,2.4369,2.5431,2.6132,2.6464,2.7006,2.7219,2.6988,2.6557,2.6232,2.6051,2.6263,2.5891,2.4938,2.4717,2.4465,2.4052,2.3051,2.2682,2.3019,2.3592,2.3406,2.2453,2.2002,2.0914,1.9183,1.8948,1.8857,1.8577,1.8354,1.8477,1.917,1.9591,2.0226,2.1105,2.156,2.1963,2.2508,2.2412,2.2495,2.2564,2.2007,2.1495,2.1448,2.1629,2.1907,2.202,2.1732,2.1695,2.2057,2.155,2.045,1.9184,1.777,1.7205,1.6668,1.8827,2.0975,2.1875,2.4347,2.6482,2.68,2.7533,2.8174,2.8352,2.828,2.8994,3.0597,3.2256,3.4018,3.4969,3.5472,3.509,3.4654,3.4238,3.3476,3.2576,3.1638,3.0542,2.9315,2.7979,2.7687,2.7904,2.7969,2.7914,-0.6313,-0.5067,-0.2797,-0.0413,0.2046,0.5031,0.751,0.9601,1.1568,1.3022,1.4112,1.4927,1.5972,1.7288,1.8985,2.0204,2.1056,2.278,2.3646,2.3876,2.4018,2.4358,2.4911,2.5801,2.6284,2.633,2.5941,2.5494,2.5133,2.5199,2.5177,2.534,2.6518,2.7075,2.6992,2.7691,2.8051,2.7868,2.7518,2.7206,2.7056,2.7163,2.6921,2.6175,2.5539,2.526,2.5192,2.4507,2.3971,2.388,2.4219,2.3893,2.2923,2.2392,2.1279,1.9575,1.9423,1.9827,1.9984,1.9353,1.9315,1.9941,2.0409,2.1083,2.1976,2.2751,2.3275,2.3208,2.2664,2.2327,2.2242,2.1694,2.1356,2.1325,2.1055,2.1098,2.1279,2.0798,2.0511,2.0644,1.9942,1.8575,1.7336,1.6717,1.5999,1.5315,1.6985,1.9625,2.0575,2.293,2.4326,2.5582,2.6458,2.7173,2.7956,2.783,2.7459,2.8633,3.0044,3.1795,3.3201,3.3566,3.3496,3.3057,3.2626,3.1526,3.0629,3.004,2.9124,2.7823,2.682,2.6885,2.7052,2.7095,2.7112,-0.5755,-0.4856,-0.2959,-0.0808,0.1566,0.418,0.6719,0.9156,1.1181,1.2756,1.3944,1.5026,1.6319,1.7836,1.9216,2.0467,2.1746,2.2722,2.3417,2.3685,2.391,2.4379,2.5459,2.6466,2.6932,2.7026,2.7064,2.7088,2.6862,2.6967,2.7147,2.6572,2.742,2.774,2.7491,2.7867,2.8447,2.8454,2.8233,2.8145,2.8,2.7981,2.7834,2.7546,2.6301,2.5722,2.5892,2.5815,2.539,2.4506,2.419,2.3655,2.2775,2.2327,2.1417,1.9813,2.0228,2.082,2.1065,2.0345,1.9887,2.073,2.1272,2.1741,2.2987,2.3935,2.4446,2.4261,2.3476,2.2642,2.2353,2.1972,2.1551,2.1087,2.0364,1.9975,1.9788,1.9723,1.9644,1.9197,1.8318,1.7231,1.6009,1.573,1.4616,1.4155,1.5125,1.7399,1.9092,2.1133,2.2598,2.3869,2.5094,2.5752,2.6433,2.6887,2.6524,2.6808,2.8117,2.9694,3.1081,3.1445,3.1724,3.1341,3.0889,2.9745,2.897,2.8557,2.794,2.6935,2.6358,2.622,2.621,2.6301,2.6219,-0.5642,-0.4399,-0.3102,-0.1378,0.0674,0.3433,0.5939,0.8214,1.0655,1.2726,1.4492,1.5608,1.6821,1.8416,1.9653,2.0696,2.1576,2.2611,2.3241,2.3371,2.3365,2.4496,2.6066,2.7132,2.754,2.7558,2.7516,2.7453,2.7099,2.7204,2.7241,2.7416,2.8249,2.8741,2.8821,2.9476,2.9978,3.0014,2.9959,2.9516,2.8946,2.8859,2.8512,2.7853,2.74,2.6841,2.6331,2.5914,2.5616,2.513,2.4328,2.3844,2.344,2.3259,2.279,2.2194,2.1721,2.159,2.1681,2.1669,2.1761,2.2069,2.2716,2.3431,2.4035,2.4765,2.5059,2.5096,2.5045,2.4389,2.2802,2.2646,2.2149,2.0297,1.931,1.8703,1.8769,1.8681,1.8617,1.8502,1.7046,1.6037,1.5376,1.4288,1.3247,1.35,1.5082,1.7014,1.8413,1.9938,2.1681,2.2548,2.3556,2.4188,2.4774,2.5377,2.5527,2.5344,2.63,2.7684,2.8648,2.9104,2.9349,2.933,2.9149,2.8272,2.7851,2.7463,2.6714,2.6137,2.525,2.4851,2.5403,2.566,2.5345,-0.4834,-0.3734,-0.2711,-0.1244,0.0489,0.2797,0.5134,0.7442,0.9804,1.2233,1.4317,1.5521,1.6943,1.8723,1.9704,2.064,2.1549,2.2462,2.295,2.321,2.3601,2.4659,2.6085,2.7136,2.7652,2.7593,2.7416,2.7366,2.7417,2.7475,2.774,2.8151,2.9021,2.9428,2.9311,3.0225,3.072,3.0693,3.0711,3.0348,2.9834,2.9815,2.9588,2.8992,2.8695,2.8076,2.7374,2.6669,2.606,2.5538,2.5059,2.4584,2.391,2.3642,2.3383,2.3045,2.2409,2.2073,2.2107,2.2462,2.2932,2.3455,2.4213,2.4712,2.5257,2.5924,2.6517,2.6152,2.6539,2.5842,2.4543,2.3468,2.1904,2.0227,1.8878,1.8173,1.804,1.7777,1.7957,1.7768,1.6698,1.4932,1.4735,1.3335,1.3124,1.3742,1.5594,1.6767,1.7758,1.9322,2.0592,2.1408,2.1903,2.2415,2.3087,2.3716,2.4577,2.447,2.4778,2.6062,2.6856,2.7332,2.762,2.7816,2.7403,2.7081,2.6789,2.6509,2.6173,2.5417,2.4272,2.3809,2.4337,2.4523,2.4296,-0.383,-0.3023,-0.1969,-0.0672,0.0849,0.2406,0.4542,0.6907,0.8913,1.126,1.3514,1.4927,1.6639,1.8766,1.9366,2.0366,2.1707,2.2207,2.2548,2.3041,2.3708,2.4678,2.5313,2.6543,2.7067,2.7073,2.6786,2.7061,2.7407,2.7847,2.8239,2.8569,2.9483,2.9802,2.9743,3.0307,3.0676,3.0774,3.0747,3.0656,3.0496,3.051,3.0413,3.0168,2.9422,2.9013,2.8542,2.7925,2.7076,2.5931,2.6118,2.5455,2.433,2.3777,2.307,2.2605,2.2443,2.2377,2.2439,2.2831,2.3555,2.4511,2.5203,2.5798,2.6217,2.7118,2.7507,2.6979,2.7173,2.6965,2.6356,2.3729,2.1471,2.0266,1.9288,1.8288,1.7612,1.7102,1.716,1.7875,1.6316,1.4805,1.379,1.3415,1.3805,1.4411,1.5865,1.6327,1.7212,1.8462,1.9456,2.0128,2.0457,2.0615,2.1334,2.2048,2.3024,2.3642,2.385,2.4673,2.5676,2.6214,2.6413,2.6494,2.6351,2.6134,2.5872,2.5609,2.553,2.4566,2.3312,2.3133,2.3215,2.3106,2.293,-0.356,-0.2281,-0.157,-0.0367,0.1122,0.2614,0.4416,0.6507,0.8343,1.0437,1.2557,1.4351,1.617,1.7848,1.8979,2.018,2.1195,2.1698,2.2079,2.25,2.326,2.3732,2.4289,2.5367,2.6065,2.6135,2.6117,2.6376,2.6843,2.7117,2.7643,2.8623,2.9008,2.9517,3.021,3.0458,3.0723,3.08,3.0782,3.0771,3.076,3.0828,3.0856,3.0717,2.9901,2.9323,2.9159,2.9137,2.8668,2.7698,2.683,2.6245,2.5528,2.4272,2.3302,2.2834,2.272,2.2684,2.2688,2.3765,2.4695,2.5213,2.5872,2.6346,2.6961,2.7346,2.7594,2.7347,2.7233,2.711,2.6262,2.3562,2.1633,2.0639,1.9419,1.8171,1.7421,1.6964,1.659,1.6031,1.5775,1.533,1.4713,1.3614,1.4116,1.5236,1.5697,1.5915,1.681,1.7828,1.8435,1.9075,1.8999,1.9228,1.9966,2.0761,2.1751,2.2601,2.2896,2.3293,2.4303,2.4894,2.5071,2.5287,2.5424,2.5201,2.4927,2.5252,2.5275,2.3816,2.2458,2.2096,2.1856,2.172,2.1674,-0.2822,-0.1885,-0.1027,0.0094,0.1383,0.2576,0.4267,0.6216,0.7801,0.9795,1.1985,1.39,1.5564,1.7167,1.8446,1.9576,2.0516,2.1165,2.1565,2.1903,2.2371,2.2593,2.2806,2.366,2.441,2.4963,2.4855,2.5212,2.5841,2.63,2.7082,2.8547,2.8765,2.9454,3.0337,3.0605,3.072,3.0793,3.0797,3.0799,3.0804,3.1235,3.168,3.1804,3.1363,3.1041,3.1028,3.1035,3.0563,2.9644,2.8653,2.7778,2.7011,2.5676,2.4385,2.332,2.3398,2.4053,2.468,2.5048,2.5781,2.6826,2.7203,2.7517,2.7998,2.8227,2.8027,2.783,2.7448,2.6958,2.4464,2.3654,2.1945,2.0624,1.9494,1.838,1.7558,1.6824,1.6182,1.5538,1.5417,1.5521,1.5073,1.4383,1.4492,1.5675,1.5534,1.5773,1.6614,1.7497,1.7648,1.792,1.768,1.7882,1.863,1.9534,2.0585,2.131,2.1801,2.2262,2.3036,2.3393,2.3611,2.409,2.4592,2.4296,2.4135,2.4521,2.4293,2.2659,2.1404,2.0914,2.0613,2.0678,2.0617,-0.1944,-0.1448,-0.0471,0.0623,0.1721,0.2537,0.4105,0.6152,0.7309,0.9197,1.1505,1.3277,1.4834,1.6376,1.7732,1.8887,2.0015,2.0787,2.1295,2.1275,2.1707,2.1784,2.187,2.2332,2.3072,2.3935,2.3839,2.4241,2.4999,2.5523,2.6481,2.8115,2.8602,2.9255,3.0173,3.0605,3.073,3.0796,3.08,3.0811,3.0958,3.1604,3.2342,3.2917,3.2934,3.2757,3.2647,3.2641,3.2382,3.1452,3.0954,2.9955,2.8558,2.7253,2.5646,2.3738,2.4086,2.5692,2.7184,2.7093,2.7046,2.9013,2.874,2.8669,2.8932,2.8913,2.8519,2.8002,2.7401,2.6076,2.2047,2.1869,2.1808,2.0681,1.9641,1.8712,1.7907,1.674,1.6176,1.5818,1.5606,1.5637,1.5892,1.5686,1.5815,1.5863,1.5698,1.5782,1.6646,1.7001,1.7109,1.7003,1.6834,1.7047,1.7733,1.8956,1.9924,2.0433,2.0863,2.1342,2.1871,2.2146,2.2591,2.3374,2.3716,2.3458,2.3242,2.3371,2.2717,2.121,2.0377,1.9894,1.9693,1.9662,1.9735,-0.1467,-0.033,0.0098,0.1145,0.2337,0.2837,0.4117,0.5882,0.6962,0.8448,1.042,1.226,1.3903,1.5339,1.6915,1.8507,2.008,2.0876,2.1098,2.1031,2.1483,2.1695,2.1567,2.2029,2.2519,2.2955,2.3401,2.4082,2.4432,2.4704,2.5991,2.7384,2.7969,2.8821,3.0076,3.0571,3.0735,3.0781,3.0829,3.0859,3.104,3.1783,3.2705,3.3483,3.3601,3.3429,3.3326,3.3557,3.334,3.2315,3.2577,3.1288,2.9494,2.7942,2.6242,2.4771,2.5112,2.7113,2.9661,2.9059,2.887,2.945,2.9302,2.9028,2.9098,2.8861,2.8336,2.7504,2.6664,2.5386,2.3367,2.2224,2.1424,2.0802,1.9995,1.893,1.8198,1.7352,1.6469,1.6115,1.5926,1.5903,1.6261,1.6532,1.6532,1.6571,1.6568,1.6491,1.6899,1.6781,1.643,1.6283,1.6081,1.6456,1.6918,1.8345,1.9507,1.9878,2.0267,2.0588,2.0965,2.1135,2.1635,2.2309,2.2761,2.2771,2.2604,2.2437,2.1886,2.0912,1.9943,1.9059,1.945,1.9832,1.9574,-0.0722,-0.0148,0.0562,0.1502,0.253,0.3251,0.4414,0.5962,0.7114,0.8443,1.0202,1.21,1.3655,1.5028,1.7042,1.8948,2.0318,2.0877,2.1167,2.1373,2.1833,2.2075,2.1979,2.2524,2.295,2.3534,2.4204,2.4444,2.4377,2.4959,2.6,2.7233,2.802,2.9079,3.0142,3.0599,3.0697,3.0759,3.0819,3.0857,3.1011,3.2055,3.3301,3.4321,3.46,3.4547,3.4533,3.4585,3.432,3.3544,3.3409,3.241,3.1092,2.9853,2.853,2.6801,2.681,2.8417,3.0906,3.0213,2.9782,3.0711,3.0204,2.9843,2.9653,2.9197,2.8072,2.6821,2.6336,2.5688,2.49,2.2485,2.1158,2.0889,2.0142,1.9317,1.8687,1.8058,1.7363,1.6656,1.627,1.634,1.6814,1.6997,1.7101,1.7216,1.7386,1.7417,1.7408,1.6858,1.6369,1.6336,1.6346,1.6592,1.7137,1.8278,1.9266,1.9598,1.9813,2.0102,2.0202,2.0395,2.062,2.1059,2.1409,2.1868,2.17,2.1396,2.0996,2.084,2.0528,2.023,2.0062,1.9998,1.9771,-0.0101,0.0051,0.1052,0.1922,0.2728,0.3708,0.4892,0.625,0.7384,0.8731,1.0297,1.2099,1.3577,1.5056,1.7214,1.9346,2.0779,2.0937,2.1311,2.1603,2.221,2.2561,2.2833,2.3437,2.3897,2.4119,2.5162,2.547,2.4985,2.5609,2.6632,2.7634,2.8611,2.9423,3.019,3.0535,3.0644,3.0725,3.0768,3.0874,3.1621,3.2687,3.4206,3.571,3.5878,3.5736,3.5582,3.5485,3.5133,3.4595,3.4292,3.3846,3.2977,3.2593,3.1597,3.0013,2.9242,3.0322,3.1496,3.1185,3.0959,3.1982,3.1076,3.059,2.9899,2.8898,2.766,2.618,2.5749,2.586,2.5419,2.3487,2.1861,2.1007,2.0573,1.9864,1.9479,1.896,1.8336,1.7635,1.6864,1.6763,1.7176,1.6693,1.662,1.8211,1.8432,1.8391,1.8245,1.7288,1.6843,1.6822,1.6854,1.7067,1.7643,1.8541,1.9258,1.9623,1.9709,1.9838,1.9799,1.9734,1.999,2.0335,2.0423,2.0788,2.0563,2.0757,2.0921,2.1101,2.1327,2.1167,2.0592,2.0387,2.0257,0.0205,0.0847,0.1594,0.2324,0.3142,0.4128,0.5373,0.6694,0.7614,0.8903,1.0559,1.1746,1.3155,1.5039,1.7323,1.9118,2.0269,2.1112,2.1422,2.1571,2.2435,2.2869,2.2754,2.3537,2.4372,2.485,2.5793,2.5877,2.5856,2.6542,2.7424,2.8304,2.8703,2.9249,3.0201,3.047,3.0568,3.0686,3.0781,3.1558,3.283,3.3341,3.4401,3.5502,3.5958,3.5967,3.5949,3.5907,3.565,3.5468,3.5856,3.5548,3.481,3.4967,3.4554,3.3524,3.2711,3.2619,3.422,3.3225,3.223,3.2686,3.1689,3.0542,2.9489,2.8186,2.689,2.6322,2.5897,2.5691,2.5728,2.5078,2.3813,2.2544,2.145,2.1114,2.0759,1.9919,1.9318,1.8614,1.786,1.7475,1.7497,1.6705,1.6268,1.8062,1.9444,1.9372,1.9074,1.8204,1.7642,1.7702,1.7173,1.7281,1.7713,1.8637,1.9434,1.9723,1.9668,1.9693,1.9666,1.9664,1.9658,1.992,1.9989,2.0332,2.0727,2.1024,2.1172,2.1485,2.1793,2.1379,2.0716,2.0648,2.0883,0.092,0.1372,0.1974,0.2756,0.3611,0.4642,0.5891,0.7186,0.8182,0.9321,1.0643,1.1882,1.3719,1.6026,1.7883,1.9331,2.074,2.1464,2.1975,2.2395,2.3308,2.383,2.4077,2.4891,2.563,2.5717,2.6615,2.7276,2.7237,2.7494,2.8175,2.8641,2.9231,2.9773,3.0228,3.0414,3.0529,3.0769,3.1289,3.2428,3.3672,3.4212,3.4732,3.5938,3.5958,3.6192,3.6463,3.6503,3.6697,3.6787,3.7247,3.7175,3.6805,3.6685,3.6427,3.7031,3.6352,3.6266,3.653,3.4989,3.4128,3.3231,3.2196,3.0924,2.923,2.7708,2.6623,2.6364,2.6222,2.5934,2.5654,2.5524,2.4617,2.348,2.2368,2.1896,2.1535,2.1024,2.0267,1.9562,1.8852,1.8326,1.7598,1.6523,1.6481,1.8153,1.9689,2.0249,1.9991,1.9404,1.8974,1.8819,1.8042,1.7326,1.7834,1.8518,1.9623,1.9952,1.972,1.977,1.9805,1.9825,1.9953,2.0177,2.0489,2.0752,2.1078,2.0991,2.0943,2.1537,2.2233,2.1862,2.1531,2.1713,2.1798,0.1961,0.2076,0.2465,0.3186,0.4061,0.5261,0.6509,0.77,0.8666,0.9762,1.1056,1.2534,1.48,1.6951,1.8142,1.9523,2.1102,2.1619,2.2275,2.3245,2.4162,2.4637,2.4932,2.5853,2.663,2.6433,2.7575,2.8252,2.85,2.8611,2.8778,2.895,2.9577,3.0032,3.0279,3.0656,3.0994,3.1533,3.2114,3.3197,3.435,3.4629,3.5152,3.5767,3.6215,3.6538,3.7091,3.7377,3.7724,3.8276,3.8537,3.8584,3.8556,3.8694,3.8478,3.8868,3.8612,3.8825,3.8228,3.6931,3.5349,3.3952,3.2179,3.0384,2.8304,2.7214,2.6725,2.6415,2.6345,2.597,2.547,2.524,2.4812,2.3995,2.3202,2.2631,2.1958,2.1284,2.0685,2.0033,1.9333,1.8682,1.7771,1.6468,1.6732,1.8328,1.9625,2.0809,2.0671,2.0186,1.9717,1.9369,1.9306,1.833,1.8033,1.8684,1.968,2.026,2.0042,1.99,2.0015,2.0307,2.0545,2.0749,2.0965,2.1537,2.2116,2.1332,2.0772,2.1693,2.2464,2.2597,2.2559,2.2669,2.262,0.3352,0.3246,0.314,0.3583,0.457,0.5955,0.7101,0.8168,0.9022,1.0244,1.1771,1.3755,1.5329,1.6712,1.8338,1.9585,2.0359,2.1369,2.1974,2.2744,2.3715,2.4468,2.5096,2.5999,2.7234,2.7883,2.8454,2.9036,2.9637,2.9502,2.9569,2.9608,3.0031,3.0,3.038,3.1104,3.2008,3.2617,3.317,3.3723,3.4549,3.4898,3.5213,3.6001,3.6707,3.7219,3.7253,3.7903,3.8749,3.9491,3.9817,4.002,4.0093,4.0542,4.045,3.9928,4.0332,4.0423,3.9743,3.8361,3.6854,3.4809,3.2241,2.9483,2.7485,2.7044,2.664,2.6376,2.6435,2.5897,2.5179,2.4533,2.4433,2.4295,2.3692,2.3163,2.2361,2.1379,2.0838,2.0335,1.9674,1.8867,1.7688,1.6259,1.6247,1.768,1.95,2.0693,2.0927,2.0538,1.9978,1.9809,2.0341,1.9734,1.8522,1.9133,2.0275,2.0689,2.057,2.0422,2.0334,2.0643,2.0888,2.1393,2.1711,2.2407,2.2827,2.2235,2.1934,2.2322,2.2752,2.309,2.304,2.2893,2.2975,0.3683,0.4177,0.4015,0.4291,0.5011,0.6648,0.7877,0.8806,0.9852,1.1182,1.2695,1.4343,1.5604,1.6811,1.831,1.9592,2.0156,2.1202,2.1746,2.2569,2.358,2.4323,2.4988,2.5931,2.7188,2.8215,2.8729,2.9548,3.0574,3.0368,3.0742,3.0843,3.0734,3.0774,3.1157,3.1864,3.2924,3.3699,3.4121,3.4534,3.5291,3.5513,3.5663,3.6015,3.6855,3.7539,3.8025,3.878,3.98,4.068,4.1069,4.1264,4.144,4.197,4.1665,4.0998,4.1545,4.128,4.0344,3.8758,3.6602,3.3315,3.0911,2.8902,2.7213,2.6809,2.6521,2.6455,2.6798,2.6583,2.6062,2.4856,2.4032,2.421,2.4024,2.3501,2.2688,2.1577,2.0636,2.0053,1.9465,1.8806,1.7412,1.6002,1.6351,1.7026,1.8879,2.0375,2.055,2.0728,2.017,2.002,2.0489,2.106,2.0016,2.0415,2.1004,2.1093,2.1224,2.1024,2.0837,2.0825,2.1143,2.1705,2.2356,2.2954,2.3219,2.3,2.2985,2.3138,2.3478,2.383,2.365,2.3204,2.3154,0.4521,0.5191,0.5477,0.5495,0.5749,0.7207,0.844,0.939,1.0546,1.1983,1.3584,1.4836,1.5976,1.7111,1.8489,1.9527,2.0258,2.1118,2.1698,2.2597,2.3579,2.4384,2.5051,2.6022,2.7487,2.8544,2.9147,2.9971,3.1524,3.1014,3.125,3.1579,3.1751,3.1661,3.1924,3.2774,3.3812,3.4603,3.4975,3.5185,3.5899,3.5946,3.5951,3.6229,3.71,3.7878,3.8722,3.9682,4.1082,4.1906,4.2425,4.268,4.2864,4.2938,4.275,4.267,4.25,4.1922,4.0311,3.8079,3.5552,3.2314,3.0882,2.916,2.7809,2.7029,2.6989,2.6349,2.7225,2.7897,2.7139,2.549,2.396,2.3906,2.3593,2.3054,2.2374,2.1393,2.0496,1.9723,1.9073,1.834,1.6896,1.5618,1.6166,1.6668,1.7903,1.9252,1.9843,2.007,2.02,2.0218,2.0561,2.1182,2.1659,2.1757,2.1787,2.1944,2.1949,2.1569,2.1395,2.1444,2.1582,2.2192,2.2855,2.351,2.3694,2.3683,2.3704,2.3739,2.3964,2.4035,2.3885,2.3453,2.3198,0.6402,0.6402,0.7426,0.7293,0.6633,0.7678,0.8869,0.9959,1.116,1.2552,1.4169,1.5517,1.662,1.7571,1.8835,1.9681,2.0411,2.1318,2.1944,2.2546,2.3579,2.4728,2.5488,2.6374,2.7653,2.973,3.0128,3.0595,3.2488,3.1719,3.1784,3.2298,3.2674,3.2661,3.264,3.3599,3.4627,3.5445,3.5682,3.5807,3.588,3.5962,3.5982,3.6328,3.7489,3.8342,3.9032,4.0638,4.2013,4.2949,4.3436,4.3824,4.4317,4.4162,4.3989,4.3949,4.3638,4.2441,4.0329,3.7183,3.4421,3.2092,3.0972,2.9799,2.8528,2.7944,2.7664,2.7002,2.7761,2.8717,2.7686,2.5951,2.4411,2.348,2.3157,2.2711,2.2034,2.1199,2.0317,1.9354,1.8507,1.7622,1.6237,1.531,1.5894,1.6527,1.7255,1.8098,1.8983,1.9664,2.0038,2.0403,2.0744,2.1447,2.2049,2.24,2.2584,2.2756,2.2688,2.2318,2.2352,2.2568,2.2752,2.292,2.3351,2.3928,2.4286,2.4536,2.4595,2.46,2.4024,2.3936,2.3827,2.3702,2.3462,0.7777,0.7852,0.8273,0.8239,0.8123,0.9003,0.9925,1.09,1.2347,1.3847,1.5153,1.6168,1.7002,1.7977,1.8984,1.996,2.0824,2.1162,2.1746,2.265,2.3531,2.4356,2.5222,2.6134,2.762,2.973,3.0375,3.1183,3.3304,3.2605,3.3047,3.3695,3.4011,3.435,3.4485,3.4943,3.5365,3.565,3.5779,3.5845,3.5883,3.5923,3.5974,3.6093,3.7626,3.8653,3.9201,4.1072,4.2478,4.3462,4.3886,4.4214,4.4619,4.4467,4.4325,4.4097,4.3675,4.1969,3.9265,3.6415,3.4458,3.2765,3.1288,3.0248,2.9006,2.8508,2.8139,2.7923,2.8233,2.887,2.8273,2.5746,2.4109,2.3437,2.2994,2.2526,2.1852,2.0922,2.0029,1.9064,1.8166,1.7192,1.5925,1.5603,1.6001,1.6303,1.6966,1.7674,1.852,1.946,2.0068,2.0542,2.1015,2.1732,2.233,2.2778,2.3171,2.3366,2.3301,2.3113,2.325,2.3501,2.3688,2.3821,2.4049,2.4313,2.4735,2.5104,2.5453,2.5362,2.4831,2.4426,2.4393,2.4109,2.362,0.9061,0.9058,0.9121,0.9371,0.9745,1.0151,1.1063,1.2411,1.3901,1.5282,1.6498,1.7027,1.779,1.8839,1.9744,2.0487,2.1459,2.2096,2.2325,2.3112,2.3839,2.4866,2.5575,2.6102,2.8131,3.0076,3.0902,3.1617,3.3605,3.3571,3.3941,3.4694,3.5512,3.5691,3.5762,3.5727,3.5507,3.5678,3.5756,3.5826,3.5891,3.5931,3.5947,3.6426,3.7465,3.8686,3.9563,4.0884,4.2381,4.3203,4.3674,4.3866,4.4146,4.4252,4.4192,4.4036,4.2601,4.0887,3.833,3.656,3.4993,3.3904,3.2057,3.066,2.9913,2.9651,2.9559,2.9349,2.8989,2.8266,2.7599,2.5056,2.4292,2.361,2.2859,2.2402,2.1582,2.0703,1.9788,1.8824,1.7381,1.651,1.6213,1.6143,1.6264,1.6409,1.6617,1.7408,1.8222,1.9272,2.0277,2.0858,2.1401,2.2114,2.2743,2.3229,2.361,2.3948,2.399,2.4013,2.3998,2.4254,2.4482,2.4708,2.4994,2.5254,2.5424,2.566,2.5851,2.5889,2.5661,2.5289,2.5063,2.4583,2.4036,1.0422,1.0043,1.0154,1.069,1.1319,1.1277,1.2406,1.4473,1.5371,1.6591,1.7915,1.8012,1.8854,2.0146,2.104,2.1707,2.2203,2.3326,2.3617,2.398,2.4717,2.5788,2.6518,2.7017,2.8854,3.0491,3.1502,3.2019,3.3744,3.4231,3.4674,3.5419,3.6334,3.6689,3.6633,3.6228,3.5821,3.5746,3.5766,3.5846,3.5905,3.5955,3.6092,3.6618,3.7608,3.8539,3.9527,4.0812,4.1654,4.2333,4.29,4.3261,4.3551,4.382,4.4061,4.3503,4.1632,3.9788,3.8062,3.6612,3.6025,3.5043,3.3266,3.1862,3.0964,3.0747,3.0712,3.0543,3.0125,2.8102,2.6318,2.5433,2.457,2.3767,2.2889,2.2161,2.1335,2.0463,1.9598,1.8298,1.6526,1.5822,1.6607,1.673,1.6535,1.659,1.6896,1.7692,1.8533,1.9502,2.052,2.1366,2.1962,2.2621,2.3152,2.3644,2.4166,2.4567,2.4981,2.5062,2.5076,2.5139,2.5418,2.5734,2.5983,2.6193,2.6162,2.6111,2.615,2.6133,2.6275,2.5863,2.5537,2.5049,2.4667,1.2672,1.2488,1.2493,1.2535,1.2581,1.3105,1.3884,1.4773,1.6314,1.7498,1.8038,1.8937,1.9939,2.0878,2.1364,2.2379,2.3162,2.3823,2.4366,2.4953,2.5556,2.6581,2.7316,2.8036,2.9685,3.1079,3.2104,3.2562,3.411,3.4849,3.5698,3.6439,3.7269,3.7636,3.7481,3.6957,3.6454,3.5979,3.5974,3.5942,3.6025,3.6118,3.6406,3.7112,3.7893,3.8792,3.9966,4.0893,4.1687,4.2335,4.2443,4.2561,4.2464,4.2835,4.3187,4.3277,4.1577,3.9756,3.8078,3.738,3.6899,3.6149,3.4675,3.2993,3.2067,3.1618,3.158,3.113,3.0657,2.8784,2.6623,2.536,2.467,2.4036,2.3201,2.236,2.1554,2.0752,1.9838,1.8548,1.6729,1.6184,1.6918,1.7057,1.6854,1.688,1.7255,1.8028,1.8827,1.9809,2.0869,2.1754,2.2579,2.3236,2.3618,2.4038,2.4676,2.5203,2.5619,2.6092,2.6259,2.6339,2.654,2.6629,2.6725,2.6753,2.6774,2.6736,2.6774,2.6907,2.7004,2.6486,2.5969,2.5601,2.5566,1.3837,1.3392,1.3239,1.3249,1.3617,1.4722,1.5359,1.5715,1.7079,1.8068,1.8883,1.9912,2.0965,2.1937,2.2562,2.3365,2.4403,2.5001,2.5473,2.5756,2.6426,2.747,2.8287,2.8986,3.036,3.1661,3.2618,3.3184,3.4772,3.6198,3.716,3.7919,3.8504,3.8574,3.8554,3.8297,3.77,3.698,3.6443,3.6234,3.6403,3.6734,3.7315,3.7741,3.8462,3.9382,4.0138,4.0881,4.132,4.1679,4.1482,4.1581,4.1734,4.231,4.2904,4.2905,4.1607,4.0692,3.9779,3.854,3.7864,3.7059,3.6093,3.4623,3.3055,3.2207,3.1641,3.1036,3.0401,2.937,2.7153,2.524,2.4791,2.4302,2.3508,2.2723,2.1955,2.1202,2.0119,1.8945,1.7909,1.7107,1.699,1.711,1.7207,1.7262,1.7618,1.8382,1.9228,2.0114,2.1226,2.2309,2.3172,2.3926,2.4209,2.4567,2.5395,2.5986,2.6336,2.6763,2.7161,2.7213,2.7121,2.7199,2.7312,2.7321,2.7269,2.7408,2.7494,2.7619,2.7563,2.7167,2.673,2.6376,2.6587,1.4374,1.3495,1.3023,1.3528,1.442,1.5828,1.6486,1.6747,1.7715,1.8838,1.9948,2.0925,2.2,2.3093,2.377,2.4457,2.5364,2.6035,2.6512,2.6744,2.7716,2.8645,2.9321,2.995,3.1268,3.2272,3.3213,3.4253,3.584,3.7238,3.8416,3.9464,3.9572,3.9614,3.9617,3.9382,3.8843,3.8259,3.7318,3.6791,3.7468,3.8063,3.8673,3.8663,3.908,3.9615,3.9689,3.9925,4.0177,4.0217,4.0306,4.0562,4.1311,4.1944,4.2573,4.272,4.1743,4.1611,4.1032,3.9881,3.8649,3.7932,3.7299,3.5997,3.4545,3.3534,3.291,3.1301,3.0533,2.886,2.6659,2.5259,2.4589,2.4284,2.3746,2.296,2.2123,2.128,2.0257,1.933,1.882,1.8016,1.7572,1.7785,1.8134,1.7944,1.7926,1.8667,1.9622,2.0515,2.1538,2.2731,2.3703,2.4387,2.4566,2.5121,2.6234,2.6844,2.7046,2.7357,2.7649,2.7682,2.7595,2.7524,2.7473,2.769,2.779,2.7875,2.7951,2.8047,2.7961,2.7703,2.7417,2.7202,2.7515,1.5785,1.5465,1.4724,1.4663,1.52,1.6004,1.6565,1.6896,1.8532,1.9526,2.0272,2.1362,2.2674,2.4053,2.4532,2.5191,2.6289,2.6945,2.7445,2.7898,2.8748,2.9685,3.0401,3.1099,3.2353,3.3669,3.4686,3.5585,3.7129,3.8339,3.9108,3.9584,4.0009,4.0403,4.0431,4.0127,3.963,3.9354,3.8627,3.799,3.8376,3.9435,4.0214,3.9613,3.9519,3.9755,3.9885,4.0111,4.008,3.9962,3.9695,4.0067,4.0827,4.1287,4.1976,4.252,4.2228,4.2239,4.1841,4.0778,3.9506,3.854,3.7836,3.6978,3.6115,3.5428,3.4138,3.2171,3.0262,2.8316,2.6532,2.5377,2.4482,2.4271,2.3985,2.3136,2.2348,2.1424,2.0509,1.9971,1.9559,1.903,1.8528,1.8553,1.8929,1.8836,1.8448,1.8878,2.0032,2.0969,2.1716,2.2902,2.4163,2.4806,2.4969,2.5612,2.6744,2.7323,2.7561,2.789,2.8171,2.791,2.761,2.7575,2.7575,2.779,2.7989,2.8152,2.8274,2.8358,2.8855,2.8813,2.8463,2.8174,2.8524,1.7134,1.6562,1.6244,1.6181,1.6449,1.6928,1.7409,1.7941,1.9198,2.0121,2.0866,2.2052,2.3434,2.4827,2.5216,2.5945,2.7078,2.77,2.8258,2.8857,2.9649,3.0591,3.1432,3.2324,3.3599,3.4933,3.636,3.7503,3.8429,3.935,4.0036,4.0184,4.0713,4.0956,4.0941,4.0536,4.0315,4.029,3.9738,3.9588,3.9505,4.0331,4.0757,4.0121,4.0091,4.0203,4.0065,4.0213,3.9962,3.9698,3.9413,3.9885,4.0496,4.0862,4.156,4.2356,4.2595,4.245,4.2092,4.1318,4.017,3.931,3.8333,3.7484,3.6551,3.5732,3.4728,3.2865,3.1024,2.914,2.6647,2.5155,2.4878,2.4654,2.4202,2.3522,2.3013,2.2446,2.1597,2.0952,2.0476,1.9837,1.9369,1.9171,1.9522,1.961,1.9239,1.9352,2.0425,2.1118,2.1983,2.2982,2.4172,2.5044,2.5344,2.6123,2.7195,2.7655,2.7955,2.8039,2.8073,2.786,2.7645,2.771,2.7775,2.7875,2.8088,2.8201,2.833,2.8419,2.921,3.002,2.9605,2.9282,2.9728,1.8313,1.7142,1.741,1.7568,1.7637,1.7972,1.8436,1.8996,1.9647,2.0566,2.1655,2.2963,2.4217,2.5176,2.6176,2.7056,2.7765,2.8384,2.9012,2.9793,3.0618,3.1585,3.261,3.3688,3.4932,3.6362,3.7868,3.8613,3.9284,4.01,4.0649,4.0956,4.1127,4.1225,4.124,4.1231,4.1199,4.0976,4.0742,4.0865,4.0928,4.0917,4.0761,4.0751,4.0789,4.0694,4.0386,4.0061,3.9794,3.9585,3.932,3.981,4.0266,4.0613,4.1542,4.2282,4.267,4.249,4.2213,4.1604,4.082,4.0047,3.8968,3.783,3.6817,3.5914,3.4925,3.3246,3.1399,2.9665,2.7211,2.5685,2.5511,2.4857,2.4363,2.4077,2.3713,2.3305,2.259,2.1891,2.1251,2.0667,2.0297,2.0028,1.9952,2.0118,2.0233,2.0435,2.0696,2.1108,2.169,2.2767,2.3978,2.4776,2.5506,2.6546,2.754,2.765,2.7905,2.7989,2.8088,2.7974,2.7974,2.7925,2.7974,2.7925,2.7989,2.8088,2.8232,2.8501,2.9049,2.9913,3.0753,3.0586,3.0936,1.9101,1.7581,1.766,1.7661,1.7641,1.7638,1.819,1.9189,1.9683,2.0764,2.2439,2.3482,2.4465,2.5198,2.6451,2.75,2.8512,2.9088,2.9789,3.0559,3.1664,3.2579,3.3688,3.5003,3.6296,3.781,3.9216,3.9871,4.0438,4.0804,4.1194,4.1858,4.2002,4.2089,4.213,4.2076,4.1882,4.1522,4.1117,4.105,4.089,4.0798,4.0668,4.0668,4.0694,4.0515,4.0214,3.981,3.9651,3.9477,3.9341,3.9755,4.0166,4.0578,4.1325,4.2204,4.257,4.2512,4.2199,4.1542,4.081,3.9946,3.881,3.7574,3.6738,3.6114,3.4694,3.265,3.11,3.019,2.8315,2.7303,2.6807,2.5246,2.4287,2.444,2.4371,2.3781,2.3164,2.2564,2.2007,2.1457,2.0991,2.0669,2.0295,2.0296,2.0131,2.0335,2.0628,2.1014,2.1375,2.2582,2.3803,2.4725,2.5565,2.6722,2.758,2.7725,2.7855,2.8039,2.8186,2.8299,2.825,2.8039,2.794,2.784,2.794,2.8039,2.8449,2.8688,2.8808,2.9448,3.066,3.1597,3.1765]},{"header":{"parameterUnit":"m.s-1","parameterCategory":1,"la1":31.0,"la2":29.5877,"lo1":-88.7671,"lo2":-86.6584,"dy":0.0162,"dx":0.0185,"nx":115,"ny":88,"refTime":"2023-10-14T00:00:00:Z","depth":0,"parameterNumber":3,"parameterNumberName":"V-component_of_WINDS"},"data":[0.0,0.0,0.0,0.0,0.0,0.0,0.0,0.0,0.0,0.0,0.0,0.0,0.0,0.0,0.0,0.0,0.0,0.0,0.0,0.0,0.0,0.0,0.0,0.0,0.0,0.0,0.0,0.0,0.0,0.0,0.0,0.0,0.0,0.0,0.0,0.0,0.0,0.0,0.0,0.0,0.0,0.0,0.0,0.0,0.0,0.0,0.0,0.0,0.0,0.0,0.0,0.0,0.0,0.0,0.0,0.0,0.0,0.0,0.0,0.0,0.0,0.0,0.0,0.0,0.0,0.0,0.0,0.0,0.0,0.0,0.0,0.0,0.0,0.0,0.0,0.0,0.0,0.0,0.0,0.0,0.0,0.0,0.0,0.0,0.0,0.0,0.0,0.0,0.0,0.0,0.0,0.0,0.0,0.0,0.0,0.0,0.0,0.0,0.0,0.0,0.0,0.0,0.0,0.0,0.0,0.0,0.0,0.0,0.0,0.0,0.0,0.0,0.0,0.0,0.0,0.0,0.0,0.0,0.0,0.0,0.0,0.0,0.0,0.0,0.0,0.0,0.0,0.0,0.0,0.0,0.0,0.0,0.0,0.0,0.0,0.0,0.0,0.0,0.0,0.0,0.0,0.0,0.0,0.0,0.0,0.0,0.0,0.0,0.0,0.0,0.0,0.0,0.0,0.0,0.0,0.0,0.0,0.0,0.0,0.0,0.0,0.0,0.0,0.0,0.0,0.0,0.0,0.0,0.0,0.0,0.0,0.0,0.0,0.0,0.0,0.0,0.0,0.0,0.0,0.0,0.0,0.0,0.0,0.0,0.0,0.0,0.0,0.0,0.0,0.0,0.0,0.0,0.0,0.0,0.0,0.0,0.0,0.0,0.0,0.0,0.0,0.0,0.0,0.0,0.0,0.0,0.0,0.0,0.0,0.0,0.0,0.0,0.0,0.0,0.0,0.0,0.0,0.0,0.0,0.0,0.0,0.0,0.0,0.0,0.0,0.0,0.0,0.0,0.0,0.0,0.0,0.0,0.0,0.0,0.0,0.0,0.0,0.0,0.0,0.0,0.0,0.0,0.0,0.0,0.0,0.0,0.0,0.0,0.0,0.0,0.0,0.0,0.0,0.0,0.0,0.0,0.0,0.0,0.0,0.0,0.0,0.0,0.0,0.0,0.0,0.0,0.0,0.0,0.0,0.0,0.0,0.0,0.0,0.0,0.0,0.0,0.0,0.0,0.0,0.0,0.0,0.0,0.0,0.0,0.0,0.0,0.0,0.0,0.0,0.0,0.0,0.0,0.0,0.0,0.0,0.0,0.0,0.0,0.0,0.0,0.0,0.0,0.0,0.0,0.0,0.0,0.0,0.0,0.0,0.0,0.0,0.0,0.0,0.0,0.0,0.0,0.0,0.0,0.0,0.0,0.0,0.0,0.0,0.0,0.0,0.0,0.0,0.0,0.0,0.0,0.0,0.0,0.0,0.0,0.0,0.0,0.0,0.0,0.0,0.0,0.0,0.0,0.0,0.0,0.0,0.0,0.0,0.0,0.0,0.0,0.0,0.0,0.0,0.0,0.0,0.0,0.0,0.0,0.0,0.0,0.0,0.0,0.0,0.0,0.0,0.0,0.0,0.0,0.0,0.0,0.0,0.0,0.0,0.0,0.0,0.0,0.0,0.0,0.0,0.0,0.0,0.0,0.0,0.0,0.0,0.0,0.0,0.0,0.0,0.0,0.0,0.0,0.0,0.0,0.0,0.0,0.0,0.0,0.0,0.0,0.0,0.0,0.0,0.0,0.0,0.0,0.0,0.0,0.0,0.0,0.0,0.0,0.0,0.0,0.0,0.0,0.0,0.0,0.0,0.0,0.0,0.0,0.0,0.0,0.0,0.0,0.0,0.0,0.0,0.0,0.0,0.0,0.0,0.0,0.0,0.0,0.0,0.0,0.0,0.0,0.0,0.0,0.0,0.0,0.0,0.0,0.0,0.0,0.0,0.0,0.0,0.0,0.0,0.0,0.0,0.0,0.0,0.0,0.0,0.0,0.0,0.0,0.0,0.0,0.0,0.0,0.0,0.0,0.0,0.0,0.0,0.0,0.0,0.0,0.0,0.0,0.0,0.0,0.0,0.0,0.0,0.0,0.0,0.0,0.0,0.0,0.0,0.0,0.0,0.0,0.0,0.0,0.0,0.0,0.0,0.0,0.0,0.0,0.0,0.0,0.0,0.0,0.0,0.0,0.0,0.0,0.0,0.0,0.0,0.0,0.0,0.0,0.0,0.0,0.0,0.0,0.0,0.0,0.0,0.0,0.0,0.0,0.0,0.0,0.0,0.0,0.0,0.0,0.0,0.0,0.0,0.0,0.0,0.0,0.0,0.0,0.0,0.0,0.0,0.0,0.0,0.0,0.0,0.0,0.0,0.0,0.0,0.0,0.0,0.0,0.0,0.0,0.0,0.0,0.0,0.0,0.0,0.0,0.0,0.0,0.0,0.0,0.0,0.0,0.0,0.0,0.0,0.0,0.0,0.0,0.0,0.0,0.0,0.0,0.0,0.0,0.0,0.0,0.0,0.0,0.0,0.0,0.0,0.0,0.0,0.0,0.0,0.0,0.0,0.0,0.0,0.0,0.0,0.0,0.0,0.0,0.0,0.0,0.0,0.0,0.0,0.0,0.0,0.0,0.0,0.0,0.0,0.0,0.0,0.0,0.0,0.0,0.0,0.0,0.0,0.0,0.0,0.0,0.0,0.0,0.0,0.0,0.0,0.0,0.0,0.0,0.0,0.0,0.0,0.0,0.0,0.0,0.0,0.0,0.0,0.0,0.0,0.0,0.0,0.0,0.0,0.0,0.0,0.0,0.0,0.0,0.0,0.0,0.0,0.0,0.0,0.0,0.0,0.0,0.0,0.0,0.0,0.0,0.0,0.0,0.0,0.0,0.0,0.0,0.0,0.0,0.0,0.0,0.0,0.0,0.0,0.0,0.0,0.0,0.0,0.0,0.0,0.0,0.0,0.0,0.0,0.0,0.0,0.0,0.0,0.0,0.0,0.0,0.0,0.0,0.0,0.0,0.0,0.0,0.0,0.0,0.0,0.0,0.0,0.0,0.0,0.0,0.0,0.0,0.0,0.0,0.0,0.0,0.0,0.0,0.0,0.0,0.0,0.0,0.0,0.0,0.0,0.0,0.0,0.0,0.0,0.0,0.0,0.0,0.0,0.0,0.0,0.0,0.0,0.0,0.0,0.0,0.0,0.0,0.0,0.0,0.0,0.0,0.0,0.0,0.0,0.0,0.0,0.0,0.0,0.0,0.0,0.0,0.0,0.0,0.0,0.0,0.0,0.0,0.0,0.0,0.0,0.0,0.0,0.0,0.0,0.0,0.0,0.0,0.0,0.0,0.0,0.0,0.0,0.0,0.0,0.0,0.0,0.0,0.0,0.0,0.0,0.0,0.0,0.0,0.0,0.0,0.0,0.0,0.0,0.0,0.0,0.0,0.0,0.0,0.0,0.0,0.0,0.0,0.0,0.0,0.0,0.0,0.0,0.0,0.0,0.0,0.0,0.0,0.0,0.0,0.0,0.0,0.0,0.0,0.0,0.0,0.0,0.0,0.0,0.0,0.0,0.0,0.0,0.0,0.0,0.0,0.0,0.0,0.0,0.0,0.0,0.0,0.0,0.0,0.0,0.0,0.0,0.0,0.0,0.0,0.0,0.0,0.0,0.0,0.0,0.0,0.0,0.0,0.0,0.0,0.0,0.0,0.0,0.0,0.0,0.0,0.0,0.0,0.0,0.0,0.0,0.0,0.0,0.0,0.0,0.0,0.0,0.0,0.0,0.0,0.0,0.0,0.0,0.0,0.0,0.0,0.0,0.0,0.0,0.0,0.0,0.0,0.0,0.0,0.0,0.0,0.0,0.0,0.0,0.0,0.0,0.0,0.0,0.0,0.0,0.0,0.0,0.0,0.0,0.0,0.0,0.0,0.0,0.0,0.0,0.0,0.0,0.0,0.0,0.0,0.0,0.0,0.0,0.0,0.0,0.0,0.0,0.0,0.0,0.0,0.0,0.0,0.0,0.0,0.0,0.0,0.0,0.0,0.0,0.0,0.0,0.0,0.0,0.0,0.0,0.0,0.0,0.0,0.0,0.0,0.0,0.0,0.0,0.0,0.0,0.0,0.0,0.0,0.0,0.0,0.0,0.0,0.0,0.0,0.0,0.0,0.0,0.0,0.0,0.0,0.0,0.0,0.0,0.0,0.0,0.0,0.0,0.0,0.0,0.0,-0.1016,0.0,0.0,0.0,0.0,0.0,0.0,0.0,0.0,0.0,0.0,0.0,0.0,0.0,0.0,0.0,0.0,0.0,0.0,0.0,0.0,0.0,0.0,0.0,0.0,0.0,0.0,0.0,0.0,0.0,0.0,0.0,0.0,0.0,0.0,0.0,0.0,0.0,0.0,0.0,0.0,0.0,0.0,0.0,0.0,0.0,0.0,0.0,0.0,0.0,0.0,0.0,0.0,0.0,0.0,0.0,0.0,0.0,0.0,0.0,0.0,0.0,0.0,0.0,0.0,0.0,0.0,0.0,0.0,0.0,0.0,0.0,0.0,0.0,0.0,0.0,0.0,0.0,0.0,0.0,0.0,0.0,0.0,0.0,0.0,0.0,0.0,0.0,0.0,0.0,0.0,0.0,0.0,0.0,0.0,0.0,0.0,0.0,0.0,0.0,0.0,0.0,0.0,0.0,0.0,0.0,0.0,0.0,0.0,0.0,0.0,-0.3034,-0.3079,-0.213,-0.1443,-0.1102,0.0,0.0,0.0,0.0,0.0,0.0,0.0,0.0,0.0,0.0,0.0,0.0,0.0,0.0,0.0,0.0,0.0,0.0,0.0,0.0,0.0,0.0,0.0,0.0,0.0,0.0,0.0,0.0,0.0,0.0,0.0,0.0,0.0,0.0,0.0,0.0,0.0,0.0,0.0,0.0,0.0,0.0,0.0,0.0,0.0,0.0,0.0,0.0,0.0,0.0,0.0,0.0,0.0,0.0,0.0,0.0,0.0,0.0,0.0,0.0,0.0,0.0,0.0,0.0,0.0,0.0,0.0,0.0,0.0,0.0,0.0,0.0,0.0,0.0,0.0,0.0,0.0,0.0,0.0,0.0,0.0,0.0,0.0,0.0,0.0,0.0,0.0,0.0,0.0,0.0,0.0,0.0,0.0,0.0,0.0,0.0,0.0,0.0,0.0,0.0,0.0,0.0,0.0,0.0,0.0,0.0,0.0,0.0,0.0,0.0,0.0,0.0,-0.1798,-0.1439,-0.1605,0.0,0.0,0.0,0.0,0.0,0.0,0.0,0.0,0.0,0.0,0.0,0.0,0.0,0.0,0.0,0.0,0.0,0.0,0.0,0.0,0.0,0.0,0.0,0.0,0.0,0.0,0.0,0.0,0.0,0.0,0.0,0.0,0.0,0.0,0.0,0.0,0.0,0.0,0.0,0.0,0.0,0.0,0.0,0.0,0.0,0.0,0.0,0.0,0.0,0.0,0.0,0.0,0.0,0.0,0.0,0.0,0.0,0.0,0.0,0.0,0.0,0.0,0.0,0.0,0.0,0.0,0.0,0.0,0.0,0.0,0.0,0.0,0.0,0.0,0.0,0.0,0.0,0.0,0.0,0.0,0.0,0.0,0.0,0.0,0.0,0.0,0.0,0.0,0.0,0.0,0.0,0.0,0.0,0.0,0.0,0.0,0.0,0.0,0.0,0.0,0.0,0.0,0.0,0.0,0.0,0.0,0.0,0.0,0.0,0.0,-0.1976,-0.3252,-0.2342,0.0,-0.2224,0.0,0.0,0.0,0.0,0.0,0.0,0.0,0.0,0.0,0.0,0.0,0.0,0.0,0.0,0.0,0.0,0.0,0.0,0.0,0.0,0.0,0.0,0.0,0.0,0.0,0.0,0.0,0.0,0.0,0.0,0.0,0.0,0.0,0.0,0.0,0.0,0.0,0.0,0.0,0.0,0.0,0.0,0.0,0.0,0.0,0.0,0.0,0.0,0.0,0.0,0.0,0.0,0.0,0.0,0.0,0.0,0.0,0.0,0.0,0.0,0.0,0.0,0.0,0.0,0.0,0.0,0.0,0.0,0.0,0.0,0.0,0.0,0.0,0.0,0.0,0.0,0.0,0.0,0.0,0.0,0.0,0.0,0.0,0.0,0.0,0.0,0.0,0.0,0.0,0.0,0.0,0.0,0.0,0.0,0.0,0.0,0.0,0.0,0.0,0.0,0.0,0.0,0.0,0.0,0.0,0.0,0.0,0.0,0.0,0.0,-0.2377,-0.2447,-0.2335,-0.1915,0.0,0.0,0.0,0.0,0.0,0.0,0.0,0.0,0.0,0.0,0.0,0.0,0.0,0.0,0.0,0.0,0.0,0.0,0.0,0.0,0.0,0.0,0.0,0.0,0.0,0.0,0.0,0.0,0.0,0.0,0.0,0.0,0.0,0.0,0.0,0.0,0.0,0.0,0.0,0.0,0.0,0.0,0.0,0.0,0.0,0.0,0.0,0.0,0.0,0.0,0.0,0.0,0.0,0.0,0.0,0.0,0.0,0.0,0.0,0.0,0.0,0.0,0.0,0.0,0.0,0.0,0.0,0.0,0.0,0.0,0.0,0.0,0.0,0.0,0.0,0.0,0.0,0.0,0.0,0.0,0.0,0.0,0.0,0.0,0.0,0.0,0.0,0.0,0.0,0.0,0.0,0.0,0.0,0.0,0.0,0.0,0.0,0.0,0.0,0.0,0.0,0.0,0.0,0.0,0.0,0.0,0.0,0.0,0.0,0.0,-0.2101,-0.2328,-0.187,-0.2471,-0.2115,-0.0597,0.0,0.0,0.0,0.0,0.0,0.0,0.0,0.0,0.0,0.0,0.0,0.0,0.0,0.0,0.0,0.0,0.0,0.0,0.0,0.0,0.0,0.0,0.0,0.0,0.0,0.0,0.0,0.0,0.0,0.0,0.0,0.0,0.0,0.0,0.0,0.0,0.0,0.0,0.0,0.0,0.0,0.0,0.0,0.0,0.0,0.0,0.0,0.0,0.0,0.0,0.0,0.0,0.0,0.0,0.0,0.0,0.0,0.0,0.0,0.0,0.0,0.0,0.0,0.0,0.0,0.0,0.0,0.0,0.0,0.0,0.0,0.0,0.0,0.0,0.0,0.0,0.0,0.0,0.0,0.0,0.0,0.0,0.0,0.0,0.0,0.0,0.0,0.0,0.0,0.0,0.0,0.0,0.0,0.0,0.0,0.0,0.0,0.0,0.0,0.0,0.0,0.0,0.0,0.0,0.0,0.0,0.0,0.0,-0.1595,-0.1419,-0.1463,-0.1826,-0.2995,-0.2849,0.0,0.0,0.0,0.0,0.0,0.0,0.0,0.0,0.0,0.0,0.0,0.0,0.0,0.0,0.0,0.0,0.0,0.0,0.0,0.0,0.0,0.0,0.0,0.0,0.0,0.0,0.0,0.0,0.0,0.0,0.0,0.0,0.0,0.0,0.0,0.0,0.0,0.0,0.0,0.0,0.0,0.0,0.0,0.0,0.0,0.0,0.0,0.0,0.0,0.0,0.0,0.0,0.0,0.0,0.0,0.0,0.0,0.0,0.0,0.0,0.0,0.0,0.0,0.0,0.0,0.0,0.0,0.0,0.0,0.0,0.0,0.0,0.0,0.0,0.0,0.0,0.0,0.0,0.0,0.0,0.0,0.0,0.0,0.0,0.0,0.0,0.0,0.0,0.0,0.0,0.0,0.0,0.0,0.0,0.0,0.0,0.0,0.0,0.0,0.0,0.0,0.0,0.0,0.0,0.0,0.0,0.0,0.0,0.0,-0.0734,-0.0996,-0.1503,-0.2197,-0.195,-0.1626,0.0,0.0,0.0,0.0,0.0,0.0,0.0,0.0,0.0,0.0,0.0,0.0,0.0,0.0,0.0,0.0,0.0,0.0,0.0,0.0,0.0,0.0,0.0,0.0,0.0,0.0,0.0,0.0,0.0,0.0,0.0,0.0,0.0,0.0,0.0,0.0,0.0,0.0,0.0,0.0,0.0,0.0,0.0,0.0,0.0,0.0,0.0,0.0,0.0,0.0,0.0,0.0,0.0,0.0,0.0,0.0,0.0,0.0,0.0,0.0,0.0,0.0,0.0,0.0,0.0,0.0,0.0,0.0,0.0,0.0,0.0,0.0,0.0,0.0,0.0,0.0,0.0,0.0,0.0,0.0,0.0,0.0,0.0,0.0,0.0,0.0,0.0,0.0,0.0,0.0,0.0,0.0,0.0,0.0,0.0,0.0,0.0,0.0,0.0,0.0,0.0,0.0,0.0,0.0,0.0,0.0,0.0,0.0,0.0,-0.0995,0.0,-0.1664,-0.1997,-0.1417,-0.0898,0.0,0.0,0.0,0.0,0.0,0.0,0.0,0.0,0.0,0.0,0.0,0.0,0.0,0.0,0.0,0.0,0.0,0.0,0.0,0.0,0.0,0.0,0.0,0.0,0.0,0.0,0.0,0.0,0.0,0.0,0.0,0.0,0.0,0.0,0.0,0.0,0.0,0.0,0.0,0.0,0.0,0.0,0.0,0.0,0.0,0.0,0.0,0.0,0.0,0.0,0.0,0.0,0.0,0.0,0.0,0.0,0.0,0.0,0.0,0.0,0.0,0.0,0.0,0.0,0.0,0.0,0.0,0.0,0.0,0.0,0.0,0.0,0.0,0.0,0.0,0.0,0.0,0.0,0.0,0.0,0.0,0.0,0.0,0.0,0.0,0.0,0.0,0.0,0.0,0.0,0.0,0.0,0.0,0.0,0.0,0.0,0.0,0.0,0.0,0.0,0.0,0.0,0.0,0.0,0.0,0.0,0.0,0.0,-0.2526,-0.2562,-0.2319,-0.1901,-0.1179,-0.1528,-0.086,0.0,0.0,0.0,0.0,0.0,0.0,0.0,0.0,0.0,0.0,0.0,0.0,0.0,0.0,0.0,0.0,0.0,0.0,0.0,0.0,0.0,0.0,0.0,0.0,0.0,0.0,0.0,0.0,0.0,0.0,0.0,0.0,0.0,0.0,0.0,0.0,0.0,0.0,0.0,0.0,0.0,0.0,0.0,0.0,0.0,0.0,0.0,0.0,0.0,0.0,0.0,0.0,0.0,0.0,0.0,0.0,0.0,0.0,0.0,0.0,0.0,0.0,0.0,0.0,0.0,0.0,0.0,0.0,0.0,0.0,0.0,0.0,0.0,0.0,0.0,0.0,0.0,0.0,0.0,0.0,0.0,0.0,0.0,0.0,0.0,0.0,0.0,0.0,0.0,0.0,0.0,0.0,0.0,0.0,0.0,0.0,0.0,0.0,0.0,0.0,0.0,0.0,0.0,0.0,0.0,0.0,0.0,0.0,0.0,-0.2866,-0.2745,-0.2751,-0.2825,-0.1372,-0.0584,0.0,0.0,0.0,0.0,0.0,0.0,0.0,0.0,0.0,0.0,0.0,0.0,0.0,0.0,0.0,0.0,0.0,0.0,0.0,0.0,0.0,0.0,0.0,0.0,0.0,0.0,0.0,0.0,0.0,0.0,0.0,0.0,0.0,0.0,0.0,0.0,0.0,0.0,0.0,0.0,0.0,0.0,0.0,0.0,0.0,0.0,0.0,0.0,0.0,0.0,0.0,0.0,0.0,0.0,0.0,0.0,0.0,0.0,0.0,0.0,0.0,0.0,0.0,0.0,0.0,0.0,0.0,0.0,0.0,0.0,0.0,0.0,0.0,0.0,0.0,0.0,0.0,0.0,0.0,0.0,0.0,0.0,0.0,0.0,0.0,0.0,0.0,0.0,0.0,0.0,0.0,0.0,0.0,0.0,0.0,0.0,0.0,0.0,0.0,0.0,0.0,0.0,0.0,0.0,0.0,0.0,0.0,0.0,0.0,-0.3713,-0.3585,-0.3381,-0.3159,-0.136,-0.0393,-0.0371,0.0,0.0,0.0,0.0,0.0,0.0,0.0,0.0,0.0,0.0,0.0,0.0,0.0,0.0,0.0,0.0,0.0,0.0,0.0,0.0,0.0,0.0,0.0,0.0,0.0,0.0,0.0,0.0,0.0,0.0,0.0,0.0,0.0,0.0,0.0,0.0,0.0,0.0,0.0,0.0,0.0,0.0,0.0,0.0,0.0,0.0,0.0,0.0,0.0,0.0,0.0,0.0,0.0,0.0,0.0,0.0,0.0,0.0,0.0,0.0,0.0,0.0,0.0,0.0,0.0,0.0,0.0,0.0,0.0,0.0,0.0,0.0,0.0,0.0,0.0,0.0,0.0,0.0,0.0,0.0,0.0,0.0,0.0,0.0,0.0,0.0,0.0,0.0,0.0,0.0,0.0,0.0,0.0,0.0,0.0,0.0,0.0,0.0,0.0,0.0,0.0,0.0,0.0,0.0,0.0,0.0,0.0,0.0,-0.498,-0.474,-0.3899,-0.2422,-0.1579,-0.041,0.0,0.0,0.0,0.0,0.0,0.0,0.0,0.0,0.0,0.0,0.0,0.0,0.0,0.0,0.0,0.0,0.0,0.0,0.0,0.0,0.0,0.0,0.0,0.0,0.0,0.0,0.0,0.0,0.0,0.0,0.0,0.0,0.0,0.0,0.0,0.0,0.0,0.0,0.0,0.0,0.0,0.0,0.0,0.0,0.0,0.0,0.0,0.0,0.0,0.0,0.0,0.0,0.0,0.0,0.0,0.0,0.0,0.0,0.0,0.0,0.0,0.0,0.0,0.0,0.0,0.0,0.0,0.0,0.0,0.0,0.0,0.0,0.0,0.0,0.0,0.0,0.0,0.0,0.0,0.0,0.0,0.0,0.0,0.0,0.0,0.0,0.0,0.0,0.0,0.0,0.0,0.0,0.0,0.0,0.0,0.0,0.0,0.0,0.0,0.0,0.0,0.0,0.0,0.0,0.0,0.0,0.0,0.0,0.0,-0.5926,-0.5992,-0.5328,-0.3855,-0.2446,-0.1236,0.0,0.0,0.0,0.0,0.0,0.0,0.0,0.0,0.0,0.0,0.0,0.0,0.0,0.0,0.0,0.0,0.0,0.0,0.0,0.0,0.0,0.0,0.0,0.0,0.0,0.0,0.0,0.0,0.0,0.0,0.0,0.0,0.0,0.0,0.0,0.0,0.0,0.0,0.0,0.0,0.0,0.0,0.0,0.0,0.0,0.0,0.0,0.0,0.0,0.0,0.0,0.0,0.0,0.0,0.0,0.0,0.0,0.0,0.0,0.0,0.0,0.0,0.0,0.0,0.0,0.0,0.0,0.0,0.0,0.0,0.0,0.0,0.0,0.0,0.0,0.0,0.0,0.0,0.0,0.0,0.0,0.0,0.0,0.0,0.0,0.0,0.0,0.0,0.0,0.0,0.0,0.0,0.0,0.0,0.0,0.0,0.0,0.0,0.0,0.0,0.0,0.0,0.0,0.0,0.0,0.0,0.0,0.0,-0.6378,-0.6878,-0.7252,-0.656,-0.4763,-0.3063,-0.1524,0.0,0.0,0.0,0.0,0.0,0.0,0.0,0.0,0.0,0.0,0.0,0.0,0.0,0.0,0.0,0.0,0.0,0.0,0.0,0.0,0.0,0.0,0.0,0.0,0.0,0.0,0.0,0.0,0.0,0.0,0.0,0.0,0.0,0.0,0.0,0.0,0.0,0.0,0.0,0.0,0.0,0.0,0.0,0.0,0.0,0.0,0.0,0.0,0.0,0.0,0.0,0.0,0.0,0.0,0.0,0.0,0.0,0.0,0.0,0.0,0.0,0.0,0.0,0.0,0.0,0.0,0.0,0.0,0.0,0.0,0.0,0.0,0.0,0.0,0.0,0.0,0.0,0.0,0.0,0.0,0.0,0.0,0.0,0.0,0.0,0.0,0.0,0.0,0.0,0.0,0.0,0.0,0.0,0.0,0.0,0.0,0.0,0.0,0.0,0.0,0.0,0.0,0.0,0.0,0.0,0.0,0.0,0.0,-0.7802,-0.788,-0.8362,-0.7479,-0.5217,-0.3479,-0.1483,0.0,0.0,0.0,0.0,0.0,0.0,0.0,0.0,0.0,0.0,0.0,0.0,0.0,0.0,0.0,0.0,0.0,0.0,0.0,0.0,0.0,0.0,0.0,0.0,0.0,0.0,0.0,0.0,0.0,0.0,0.0,0.0,0.0,0.0,0.0,0.0,0.0,0.0,0.0,0.0,0.0,0.0,0.0,0.0,0.0,0.0,0.0,0.0,0.0,0.0,0.0,0.0,0.0,0.0,0.0,0.0,0.0,0.0,0.0,0.0,0.0,0.0,0.0,0.0,0.0,0.0,0.0,0.0,0.0,0.0,0.0,0.0,0.0,0.0,0.0,0.0,0.0,0.0,0.0,0.0,0.0,0.0,0.0,0.0,0.0,0.0,0.0,0.0,0.0,0.0,0.0,0.0,0.0,0.0,0.0,0.0,0.0,0.0,0.0,0.0,0.0,0.0,0.0,0.0,0.0,0.0,0.0,0.0,-0.8416,-0.9017,-0.8774,-0.7607,-0.5556,-0.3411,-0.1436,0.0,0.0,0.0,0.0,0.0,0.0,0.0,0.0,0.0,0.0,0.0,0.0,0.0,0.0,0.0,0.0,0.0,0.0,0.0,0.0,0.0,0.0,0.0,0.0,0.0,0.0,0.0,0.0,0.0,0.0,0.0,0.0,0.0,0.0,0.0,0.0,0.0,0.0,0.0,0.0,0.0,0.0,0.0,0.0,0.0,0.0,0.0,0.0,-0.9257,0.0,0.0,0.0,0.0,0.0,0.0,0.0,0.0,0.0,0.0,0.0,0.0,0.0,0.0,0.0,0.0,0.0,0.0,0.0,0.0,0.0,0.0,0.0,0.0,0.0,0.0,0.0,0.0,0.0,0.0,0.0,0.0,0.0,0.0,0.0,0.0,0.0,0.0,0.0,0.0,0.0,0.0,0.0,0.0,0.0,0.0,0.0,0.0,0.0,0.0,0.0,0.0,0.0,0.0,0.0,0.0,0.0,0.0,0.0,-1.0431,-1.0015,-0.9474,-0.8005,-0.5488,-0.3162,-0.1158,0.0,0.0,0.0,0.0,0.0,0.0,0.0,0.0,0.0,0.0,0.0,0.0,0.0,0.0,0.0,0.0,0.0,0.0,0.0,0.0,0.0,0.0,0.0,0.0,0.0,0.0,0.0,0.0,0.0,0.0,0.0,0.0,0.0,0.0,0.0,0.0,0.0,0.0,0.0,0.0,0.0,0.0,0.0,0.0,0.0,0.0,0.0,0.0,0.0,0.0,0.0,0.0,0.0,0.0,0.0,0.0,0.0,0.0,0.0,0.0,0.0,0.0,0.0,0.0,0.0,0.0,0.0,0.0,0.0,0.0,0.0,0.0,0.0,0.0,0.0,0.0,0.0,0.0,0.0,0.0,0.0,0.0,0.0,0.0,0.0,0.0,0.0,0.0,0.0,0.0,0.0,0.0,0.0,0.0,0.0,0.0,0.0,0.0,0.0,0.0,0.0,0.0,0.0,0.0,0.0,0.0,0.0,-1.1718,-1.2347,-1.1112,-1.0409,-0.8564,-0.5441,-0.2963,-0.0872,0.0788,0.0,0.0,0.0,0.0,0.0,0.0,0.0,0.0,0.0,0.0,0.0,0.0,0.0,0.0,0.0,0.0,0.0,0.0,0.0,0.0,0.0,0.0,0.0,0.0,0.0,0.0,0.0,0.0,0.0,0.0,0.0,0.0,0.0,0.0,0.0,0.0,0.0,0.0,-0.7711,-0.7934,0.0,0.0,0.0,0.0,0.0,0.0,0.0,0.0,-0.9888,0.0,0.0,0.0,0.0,0.0,0.0,0.0,0.0,0.0,0.0,0.0,0.0,0.0,0.0,0.0,0.0,0.0,0.0,0.0,0.0,0.0,0.0,0.0,0.0,0.0,0.0,0.0,0.0,0.0,0.0,0.0,0.0,0.0,0.0,0.0,0.0,0.0,0.0,0.0,0.0,0.0,0.0,0.0,0.0,0.0,0.0,0.0,0.0,0.0,0.0,0.0,0.0,0.0,0.0,0.0,0.0,-1.0927,-1.0828,-1.1391,-1.2724,-1.1397,-0.9181,-0.6126,-0.3315,-0.0904,0.105,0.0,0.0,0.0,0.0,0.0,0.0,0.0,0.0,0.0,0.0,0.0,0.0,0.0,0.0,0.0,0.0,0.0,0.0,0.0,0.0,0.0,0.0,0.0,0.0,0.0,0.0,0.0,0.0,0.0,0.0,0.0,0.0,0.0,0.0,0.0,0.0,0.0,0.0,0.0,-0.916,-0.8829,0.0,0.0,0.0,0.0,0.0,0.0,0.0,0.0,-1.0011,0.0,0.0,0.0,0.0,0.0,0.0,0.0,0.0,0.0,0.0,0.0,0.0,0.0,0.0,0.0,0.0,0.0,0.0,0.0,0.0,0.0,0.0,0.0,0.0,0.0,0.0,0.0,0.0,0.0,0.0,0.0,0.0,0.0,0.0,0.0,0.0,0.0,0.0,0.0,0.0,0.0,0.0,0.0,0.0,0.0,0.0,0.0,0.0,0.0,0.0,0.0,0.0,0.0,0.0,0.0,-1.0659,-1.138,-1.2528,-1.4078,-1.2525,-1.0038,-0.6739,-0.3797,-0.1165,0.0,0.0,0.0,0.0,0.0,0.0,0.0,0.0,0.0,0.0,0.0,0.0,0.0,0.0,0.0,0.0,0.0,0.0,0.0,0.0,0.0,0.0,0.0,0.0,0.0,0.0,0.0,0.0,0.0,0.0,0.0,0.0,0.0,0.0,0.0,0.0,0.0,0.0,0.0,0.0,-0.9878,-0.9336,-0.9365,0.0,0.0,0.0,0.0,0.0,0.0,-1.0832,-1.0585,0.0,0.0,0.0,0.0,0.0,0.0,0.0,0.0,0.0,0.0,0.0,0.0,0.0,0.0,0.0,0.0,0.0,0.0,0.0,0.0,0.0,0.0,0.0,0.0,0.0,0.0,0.0,0.0,0.0,0.0,0.0,0.0,0.0,0.0,0.0,0.0,0.0,0.0,0.0,0.0,0.0,0.0,0.0,0.0,0.0,0.0,0.0,0.0,0.0,0.0,0.0,0.0,0.0,0.0,0.0,-1.0536,-1.2301,-1.4116,-1.5741,-1.3967,-1.1319,-0.7979,-0.475,-0.1839,0.0,0.0,0.0,0.0,0.0,0.0,0.0,0.0,0.0,0.0,0.0,0.0,0.0,0.0,0.0,0.0,0.0,0.0,0.0,0.0,0.0,0.0,0.0,0.0,0.0,0.0,0.0,0.0,0.0,0.0,0.0,0.0,0.0,0.0,0.0,0.0,0.0,0.0,0.0,0.0,0.0,-0.9928,-1.0402,-1.031,0.0,0.0,0.0,0.0,-1.1954,-1.222,0.0,0.0,0.0,0.0,0.0,0.0,0.0,0.0,0.0,0.0,0.0,0.0,0.0,0.0,0.0,0.0,0.0,0.0,0.0,0.0,0.0,0.0,0.0,0.0,0.0,0.0,0.0,0.0,0.0,0.0,0.0,0.0,0.0,0.0,0.0,0.0,0.0,0.0,0.0,0.0,0.0,0.0,0.0,0.0,0.0,0.0,0.0,0.0,0.0,0.0,0.0,0.0,0.0,0.0,0.0,0.0,-1.1531,-1.2934,-1.5263,-1.8306,-1.6097,-1.3428,-1.0597,-0.6701,-0.3359,0.0,0.0,0.0,0.0,0.0,0.0,0.0,0.0,0.0,0.0,0.0,0.0,0.0,0.0,0.0,0.0,0.0,0.0,0.0,0.0,0.0,0.0,0.0,0.0,0.0,0.0,0.0,0.0,0.0,0.0,0.0,0.0,0.0,0.0,0.0,0.0,0.0,0.0,0.0,0.0,0.0,-1.056,-1.1101,-1.118,-1.1254,0.0,0.0,-1.3745,-1.2419,-1.4889,0.0,0.0,0.0,0.0,0.0,0.0,0.0,0.0,0.0,0.0,0.0,0.0,0.0,0.0,0.0,0.0,0.0,0.0,0.0,0.0,0.0,0.0,0.0,0.0,0.0,0.0,0.0,0.0,0.0,0.0,0.0,0.0,0.0,0.0,0.0,0.0,0.0,0.0,0.0,0.0,0.0,0.0,0.0,0.0,0.0,0.0,0.0,0.0,0.0,0.0,0.0,0.0,0.0,0.0,0.0,-0.9759,-1.2415,-1.5249,-1.76,-1.9303,-1.7322,-1.5064,-1.265,-0.852,-0.4953,0.0,0.0,0.0,0.0,0.0,0.0,0.0,0.0,0.0,0.0,0.0,0.0,0.0,0.0,0.0,0.0,0.0,0.0,0.0,0.0,0.0,0.0,0.0,0.0,0.0,0.0,0.0,0.0,0.0,0.0,0.0,0.0,0.0,0.0,0.0,0.0,0.0,0.0,0.0,0.0,0.0,0.0,-1.2277,-1.2249,0.0,0.0,0.0,-1.6708,-1.3966,0.0,0.0,0.0,0.0,0.0,0.0,0.0,0.0,0.0,0.0,0.0,0.0,0.0,0.0,0.0,0.0,0.0,0.0,0.0,0.0,0.0,0.0,0.0,0.0,0.0,0.0,0.0,0.0,0.0,0.0,0.0,0.0,0.0,0.0,0.0,0.0,0.0,0.0,0.0,0.0,0.0,0.0,0.0,0.0,0.0,0.0,0.0,0.0,0.0,0.0,0.0,0.0,0.0,0.0,0.0,0.0,0.0,-1.303,-1.6948,-1.9387,-2.0162,-1.863,-1.6781,-1.4665,-1.0338,0.0,0.0,0.0,0.0,0.0,0.0,0.0,0.0,0.0,0.0,0.0,0.0,0.0,0.0,0.0,0.0,0.0,0.0,0.0,0.0,0.0,0.0,0.0,0.0,0.0,0.0,0.0,-0.5176,0.0,0.0,0.0,0.0,0.0,0.0,0.0,0.0,0.0,0.0,0.0,0.0,0.0,0.0,-1.0942,-1.3207,-1.3356,-1.328,0.0,0.0,-1.9482,-1.6335,-1.8433,-2.0903,0.0,0.0,0.0,0.0,0.0,0.0,0.0,0.0,0.0,0.0,0.0,0.0,0.0,0.0,0.0,0.0,0.0,0.0,0.0,0.0,0.0,0.0,0.0,0.0,0.0,0.0,0.0,0.0,0.0,0.0,0.0,0.0,0.0,0.0,0.0,0.0,0.0,0.0,0.0,0.0,0.0,0.0,0.0,0.0,0.0,0.0,0.0,0.0,0.0,0.0,0.0,0.0,0.0,0.0,-1.0431,-1.3278,-1.7008,-1.9825,-2.1604,-2.034,-1.8772,-1.6969,-1.2207,-0.8184,0.0,0.0,0.0,0.0,0.0,0.0,0.0,0.0,0.0,0.0,0.0,0.0,0.0,0.0,0.0,0.0,0.0,0.0,0.0,0.0,0.0,0.0,0.0,0.0,0.0,0.0,0.0,0.0,0.0,0.0,0.0,0.0,0.0,0.0,0.0,0.0,0.0,0.0,0.0,0.0,0.0,-1.0332,-1.3635,-1.4106,-1.4545,0.0,-1.9049,-2.1054,-2.0059,-2.2776,-2.4235,-2.1683,0.0,0.0,0.0,0.0,0.0,0.0,0.0,0.0,0.0,0.0,0.0,0.0,0.0,0.0,0.0,0.0,0.0,0.0,0.0,0.0,0.0,0.0,0.0,0.0,0.0,0.0,0.0,0.0,0.0,0.0,0.0,0.0,0.0,0.0,0.0,0.0,0.0,0.0,0.0,0.0,0.0,0.0,0.0,0.0,0.0,0.0,0.0,0.0,0.0,0.0,0.0,0.0,0.0,-1.064,-1.3828,-1.7275,-1.9941,-2.1762,-2.0925,-1.9541,-1.7668,-1.3067,-0.9061,0.0,0.0,0.0,0.0,0.0,0.0,0.0,0.0,0.0,0.0,0.0,0.0,0.0,0.0,0.0,0.0,0.0,0.0,0.0,0.0,0.0,0.0,0.0,0.0,0.0,0.0,0.0,0.0,-0.9686,-0.9457,-0.8617,0.0,0.0,0.0,0.0,0.0,0.0,0.0,0.0,0.0,0.0,-1.4411,-1.6166,-1.5754,0.0,0.0,-1.9842,-2.1805,-2.2071,-2.3619,-2.4008,-2.1832,-2.1401,0.0,0.0,0.0,0.0,0.0,0.0,0.0,0.0,0.0,0.0,0.0,0.0,0.0,0.0,0.0,0.0,0.0,0.0,0.0,0.0,0.0,0.0,0.0,0.0,0.0,0.0,0.0,0.0,0.0,0.0,0.0,0.0,0.0,0.0,0.0,0.0,0.0,0.0,0.0,0.0,0.0,0.0,0.0,0.0,0.0,0.0,0.0,0.0,0.0,0.0,0.0,0.0,-1.101,-1.4697,-1.77,-2.0117,-2.1855,-2.1101,-1.9721,-1.7654,-1.3371,-0.9472,0.0,0.0,0.0,0.0,0.0,0.0,0.0,0.0,0.0,0.0,0.0,0.0,0.0,0.0,0.0,0.0,0.0,0.0,0.0,0.0,0.0,0.0,0.0,0.0,0.0,0.0,0.0,0.0,-1.2506,-1.1225,-1.0004,0.0,0.0,0.0,0.0,0.0,0.0,0.0,0.0,0.0,0.0,-1.7999,-1.8503,-1.786,-1.7667,-1.8499,-2.0265,-2.1822,-2.2517,-2.3326,-2.3206,-2.1015,0.0,0.0,0.0,0.0,0.0,0.0,0.0,0.0,0.0,0.0,0.0,0.0,0.0,0.0,0.0,0.0,0.0,0.0,0.0,0.0,0.0,0.0,0.0,0.0,0.0,0.0,0.0,0.2163,0.0,0.0,0.0,0.0,0.0,0.0,0.0,0.0,0.0,0.0,0.0,0.0,0.0,0.0,0.0,0.0,0.0,0.0,0.0,0.0,0.0,0.0,0.0,0.0,0.0,-1.1489,-1.5905,-1.8338,-2.0328,-2.1797,-2.09,-1.9326,-1.7093,-1.3053,-0.9369,-0.6113,0.0,0.0,0.0,0.0,0.0,0.0,0.0,0.0,0.0,0.0,0.0,0.0,0.0,0.0,0.0,0.0,0.0,0.0,0.0,0.0,0.0,0.0,0.0,0.0,0.0,0.0,-1.7949,-1.3898,-1.0587,0.0,0.0,0.0,0.0,0.0,0.0,0.0,0.0,0.0,-2.1141,-2.0756,-2.0269,-2.0213,-2.0597,-2.049,-2.0063,-2.0372,-2.0822,-2.1004,-2.2476,-2.2391,0.0,0.0,0.0,0.0,0.0,0.0,0.0,0.0,0.0,0.0,0.0,0.0,0.0,0.0,0.0,0.0,0.0,0.0,0.0,0.0,0.0,0.0,0.0,0.0,0.0,0.0,0.0,0.6324,0.4914,0.0,0.0,0.0,0.0,0.0,0.0,0.0,0.0,0.0,0.0,0.0,-0.4592,-0.549,0.0,0.0,0.0,0.0,0.0,0.0,0.0,0.0,0.0,0.0,0.0,0.0,-1.1957,-1.5783,-1.838,-2.0167,-2.111,-2.0147,-1.8227,-1.5433,-1.196,-0.7827,-0.2999,0.0,0.0,0.0,0.0,0.0,0.0,0.0,0.0,0.0,0.0,0.0,0.0,0.0,0.0,0.0,0.0,0.0,0.0,0.0,0.0,0.0,0.0,0.0,0.0,0.0,-1.644,0.0,0.0,0.0,0.0,0.0,0.0,0.0,0.0,0.0,0.0,0.0,-2.2153,-2.2607,-2.1879,-2.1132,-2.0797,-2.151,-2.1736,0.0,0.0,0.0,0.0,0.0,0.0,0.0,0.0,0.0,0.0,0.0,0.0,0.0,0.0,-1.3977,-0.986,-0.7629,-0.5954,-0.4574,0.0,0.0,0.0,0.0,0.0,0.0,0.0,0.0,0.0,0.0,0.0,0.0,0.0,0.0,0.849,0.0,0.6006,0.0,0.0,0.0,0.0,0.0,0.0,0.0,0.0,-0.4322,-0.4844,-0.5421,-0.646,-0.6814,0.0,-0.7118,-0.6559,0.0,0.0,0.0,0.0,0.0,0.0,0.0,0.0,-1.2754,-1.6272,-1.8372,-1.9765,-2.0361,-1.8893,-1.6976,-1.472,-1.0118,-0.5602,-0.1315,0.079,0.2094,0.0,0.0,0.0,0.0,0.0,0.0,0.0,0.0,0.0,0.0,0.0,0.0,0.0,0.0,0.0,0.0,0.0,0.0,0.0,0.0,0.0,0.0,0.0,-1.6712,0.0,0.0,0.0,0.0,0.0,0.0,0.0,0.0,0.0,-2.5766,-2.4886,-2.386,-2.4004,-2.2715,-2.1815,-2.2022,0.0,0.0,0.0,0.0,0.0,0.0,0.0,-2.0568,-2.0309,-2.0862,-2.1183,-2.0847,-2.1364,-2.1235,-1.9305,0.0,0.0,-1.1455,-0.9119,-0.7308,-0.5548,-0.535,-0.5521,-0.5856,-0.5712,-0.6213,0.0,0.0,0.0,0.0,0.0,0.0,0.0,0.0,0.8787,0.9042,0.0,0.863,0.0,0.0,0.0,0.0,0.0984,-0.0406,0.0,0.0,-0.4538,-0.5631,-0.6349,-0.745,-0.7935,-0.7935,-0.953,-0.9444,-0.7707,-0.6401,0.0,0.0,0.0,0.0,0.0,0.0,-1.3932,-1.7312,-1.8431,-1.9175,-1.9585,-1.7203,-1.5514,-1.4547,-0.7612,-0.2937,-0.1114,0.0917,0.2274,0.281,0.3205,0.0,0.0,0.0,0.0,0.0,0.0,0.0,0.0,0.0,0.0,0.0,0.0,0.0,0.0,0.0,0.0,0.0,0.0,0.0,0.0,-1.4778,0.0,0.0,0.0,0.0,0.0,0.0,0.0,0.0,0.0,0.0,-2.2649,-2.299,-2.3813,-2.5373,0.0,0.0,0.0,0.0,-2.1165,-2.115,-1.9944,-1.9117,-1.914,-1.9109,-1.8962,-1.8791,0.0,0.0,-2.007,-2.0456,-2.0366,-1.8846,-1.8243,-1.7235,-1.4849,-1.2612,-1.0536,-0.8042,-0.7473,-0.7465,-0.7255,-0.7614,-0.8538,1.2747,0.0,0.0,0.0,0.0,1.0762,1.1642,1.2307,1.2662,1.2526,1.1966,1.0869,0.0,0.0,0.0,0.0,0.0,0.0,-0.1131,-0.3075,-0.4122,-0.5227,-0.6471,-0.781,-0.8346,-0.8283,-0.9811,-1.0397,-1.0116,-1.018,-0.9256,-0.7488,0.0,0.0,0.0,0.0,-1.5598,-1.805,-1.8854,-1.8676,-1.7659,-1.5909,-1.29,-0.8596,-0.4514,-0.1836,-0.0689,0.1316,0.2768,0.3479,0.3528,0.0,0.0,0.0,0.0,0.0,0.0,0.0,0.0,0.0,0.0,0.0,0.0,0.0,0.0,0.0,0.0,0.0,0.0,0.0,-1.7436,-1.9523,-2.0155,0.0,0.0,0.0,0.0,0.0,0.0,0.0,0.0,0.0,-2.5265,-2.4815,-2.4588,0.0,0.0,-2.3092,-2.2673,-2.2018,-2.1455,-2.1007,-1.9446,0.0,-1.8558,-1.8172,-1.7934,-1.8402,-1.9849,-2.1055,-2.1587,-2.1406,-2.0933,-2.0223,-1.7949,-1.5749,-1.465,-1.2252,-1.0013,-0.8446,-0.8199,-0.8384,-0.8292,-0.9074,-1.0013,1.784,1.5077,1.2915,1.2007,1.2044,1.3114,1.3953,1.4616,1.4581,1.4378,1.396,1.2439,1.045,0.806,0.5537,0.0,0.0,0.0,-0.0549,-0.2431,-0.3565,-0.4782,-0.6182,-0.7688,-0.8435,-0.8528,-1.0134,-1.1029,-1.126,-1.2538,-1.2335,-1.0777,0.0,0.0,-1.3652,-1.556,-1.7076,-1.8241,-1.881,-1.8002,-1.5759,-1.3182,-0.9485,-0.4706,-0.2319,-0.0677,0.027,0.1801,0.3029,0.3825,0.3788,0.369,0.0,0.0,0.0,0.0,0.0,0.0,0.0,0.0,0.0,0.0,0.0,-0.684,-0.6819,0.0,0.0,0.0,-1.1421,-1.497,-2.2615,-2.2996,0.0,0.0,0.0,0.0,0.0,0.0,0.0,-2.3111,-2.4016,-2.4923,-2.5626,-2.5674,-2.5375,-2.4591,-2.3788,-2.3037,-2.2597,0.0,-2.1335,-2.0171,-1.8682,-1.7728,-1.785,-1.7505,-1.7446,-1.8509,-1.9889,-2.1013,-2.1387,-2.113,-2.0696,-1.9779,-1.7457,-1.5252,-1.4546,-1.2681,-1.0734,-0.9097,-0.8942,-0.9199,-0.9094,-1.0044,-1.1055,2.27,2.0723,1.6217,1.4238,1.42,1.5153,1.5683,1.5786,1.5184,1.5114,1.5296,1.3554,1.1643,0.9619,0.5992,0.0,0.3011,0.1523,0.0139,-0.1248,-0.2827,-0.4207,-0.5559,-0.7187,-0.8124,-0.846,-1.048,-1.1479,-1.1601,-1.3678,-1.4846,-1.5,-1.481,-1.5196,-1.6253,-1.7743,-1.8306,-1.791,-1.8404,-1.7093,-1.383,-0.9586,-0.5867,-0.276,-0.1034,0.0342,0.1441,0.2272,0.3106,0.3934,0.3941,0.3877,0.3809,0.0,0.0,0.0,0.0,0.0,0.0,0.0,0.0,0.0,0.0,0.0,0.0,0.0,0.0,-1.209,-1.3484,0.0,-2.6009,-2.5452,0.0,0.0,0.0,-2.3996,-2.4211,-2.5094,-2.5505,-2.506,0.0,0.0,-2.4328,-2.5465,-2.5694,-2.3664,-2.2843,-2.2548,-2.2977,-2.2247,-2.1021,-1.91,-1.7676,-1.6868,-1.6995,-1.6854,-1.7174,-1.8506,-1.9691,-2.0163,-2.03,-2.0122,-1.9673,-1.8877,-1.7021,-1.5452,-1.4449,-1.3808,-1.2738,-1.0088,-0.9876,-0.9989,-0.9776,-1.0649,-1.1811,2.2793,2.2147,2.0291,1.8722,1.7559,1.7967,1.7735,1.7062,1.6829,1.6366,1.5696,1.4511,1.2163,0.9023,0.6623,0.4898,0.3726,0.2609,0.1281,-0.0207,-0.1511,-0.298,-0.457,-0.5965,-0.693,-0.7672,-0.9859,-1.1283,-1.2162,-1.4053,-1.5679,-1.6971,-1.7213,-1.7269,-1.7254,-1.8179,-1.8377,-1.775,-1.769,-1.5521,-1.1206,-0.731,-0.4579,-0.3103,-0.1528,-0.0101,0.1217,0.2237,0.311,0.3802,0.3942,0.3963,0.3941,0.3549,0.0,0.0,0.0,0.0,0.0,0.0,0.0,0.0,0.0,-0.7913,-0.7454,0.0,-1.2671,0.0,-1.4154,-1.7742,-2.5637,-2.7554,0.0,0.0,-2.6621,-2.6856,-2.7662,-2.7042,-2.6153,-2.5272,-2.5771,-2.5753,-2.4503,-2.3518,-2.2339,-2.0654,-2.124,-2.192,-2.1808,-2.1286,-2.0313,-1.8656,-1.6428,-1.513,-1.5875,-1.6142,-1.6388,-1.7092,-1.8302,-1.9089,-1.9155,-1.8777,-1.8461,-1.8213,-1.6484,-1.4971,-1.4463,-1.3908,-1.301,-1.1316,-1.0926,-1.0847,-1.0365,-1.1369,-1.2624,2.3932,2.3307,2.2792,2.1649,2.0142,1.9412,1.8873,1.8466,1.7646,1.693,1.6286,1.4252,1.1945,0.9394,0.7346,0.5818,0.4624,0.3219,0.186,0.0612,-0.0804,-0.2227,-0.3677,-0.5284,-0.6513,-0.7485,-0.966,-1.1177,-1.2173,-1.4103,-1.5961,-1.7615,-1.7951,-1.8085,-1.8135,-1.8561,-1.8438,-1.7708,-1.5385,-1.2569,-0.9198,-0.6129,-0.4018,-0.2873,-0.1966,-0.075,0.0792,0.1675,0.248,0.323,0.365,0.39,0.4,0.3611,0.3284,0.0,0.0,0.0,0.0,0.0,0.0,0.0,0.0,0.0,0.0,0.0,-1.4075,-1.5778,-1.6223,-1.9184,-2.5888,-2.7513,-2.7966,-2.7603,-2.7287,-2.7365,-2.7911,-2.6877,-2.5718,-2.4436,-2.4613,-2.4323,-2.288,-2.1517,-2.0226,-1.8886,-1.8676,-1.9115,-2.04,-2.0418,-1.9432,-1.7009,-1.522,-1.4315,-1.507,-1.5584,-1.6016,-1.6461,-1.7499,-1.8202,-1.804,-1.7938,-1.7671,-1.7168,-1.5798,-1.4408,-1.3731,-1.3421,-1.2794,-1.1488,-1.1176,-1.1134,-1.0912,-1.191,-1.3137,2.5213,2.4247,2.4154,2.342,2.2154,2.0366,1.9672,1.9604,1.787,1.7032,1.6661,1.3604,1.1574,1.0278,0.8228,0.6751,0.564,0.375,0.2345,0.136,-0.0365,-0.1805,-0.2985,-0.4836,-0.6323,-0.7511,-0.959,-1.1047,-1.1896,-1.4028,-1.59,-1.745,-1.7582,-1.797,-1.8575,-1.8346,-1.7825,-1.6996,-1.2576,-0.95,-0.7878,-0.5664,-0.391,-0.2689,-0.2296,-0.1303,0.0344,0.0989,0.1735,0.2663,0.3315,0.3743,0.393,0.3684,0.332,0.0,0.2485,0.0,0.0,0.0,0.0,0.0,0.0,0.0,0.0,-1.3608,-1.5775,-1.7752,-1.8726,-2.1224,-2.6081,-2.6115,-2.6218,-2.7063,-2.6784,-2.646,-2.6356,-2.5458,-2.4227,-2.2791,-2.2836,-2.2311,-2.056,-1.936,-1.8355,-1.7488,-1.5698,-1.5479,-1.8118,-1.9075,-1.8155,-1.4838,-1.4193,-1.4097,-1.4467,-1.5068,-1.5602,-1.6099,-1.6765,-1.7288,-1.7036,-1.705,-1.6891,-1.5947,-1.4965,-1.3927,-1.2666,-1.2422,-1.1986,-1.0799,-1.1084,-1.1343,-1.1397,-1.2151,-1.3385,2.4804,2.4426,2.4303,2.3864,2.3173,2.2323,2.0926,1.9142,1.7958,1.665,1.5313,1.3865,1.2503,1.1245,0.967,0.8041,0.6369,0.494,0.3656,0.2509,0.0614,-0.1294,-0.3164,-0.4344,-0.5643,-0.7029,-0.9112,-1.0777,-1.2067,-1.3972,-1.5578,-1.6774,-1.6497,-1.6749,-1.7378,0.0,0.0,0.0,-1.1018,-0.9192,-0.8043,-0.5815,-0.4388,-0.3753,-0.2384,0.0,0.0499,0.1098,0.1937,0.3089,0.3306,0.0,0.0,0.0,0.0,0.0,0.0,0.0,0.0,0.0,0.0,0.0,-0.8539,-1.0311,-1.1404,-1.47,-1.6797,-1.6885,-1.9756,-2.2555,-2.4764,-2.4123,-2.4379,-2.6411,-2.557,-2.4801,-2.4763,-2.3001,-2.125,-2.0252,-2.0688,-2.047,-1.868,-1.6803,-1.5463,-1.5022,-1.3229,-1.2602,-1.4135,-1.6035,-1.6316,-1.4226,-1.3557,-1.3573,-1.3693,-1.3916,-1.445,-1.5139,-1.5805,-1.6163,-1.632,-1.583,-1.5566,-1.5171,-1.3841,-1.2569,-1.1975,-1.0894,-1.024,-1.0482,-1.1251,-1.1785,-1.1435,-1.2198,-1.347,2.4231,2.3328,2.4041,2.3798,0.0,2.28,2.1514,1.941,1.8238,1.6697,1.5012,1.4249,1.311,1.1715,1.0391,0.8891,0.7233,0.5785,0.4432,0.3015,0.1531,-0.0257,-0.2184,-0.3378,-0.4797,-0.6383,-0.8413,-1.0052,-1.1457,-1.305,-1.4326,-1.5352,-1.5465,-1.5649,-1.5917,-1.4361,-1.2869,-1.1497,-1.0267,-0.8934,-0.7563,-0.5794,-0.4563,-0.3983,-0.2785,0.0,0.0,0.0,0.0,0.0,0.0,0.0,0.0,0.3909,0.0,0.3896,0.321,0.1508,-0.1278,-0.2758,-0.4366,-0.6498,-0.9293,-1.1559,-1.3005,-1.5794,-1.7334,-1.7084,-1.9467,-2.1605,-2.2935,-2.2551,-2.2732,-2.4023,-2.3334,-2.2734,-2.2579,-2.0782,-1.9034,-1.822,-1.857,-1.8361,-1.6873,-1.4921,-1.2931,-1.1443,-1.0858,-1.0773,-1.1558,-1.3309,-1.4156,-1.2912,-1.2934,-1.3185,-1.3479,-1.3511,-1.3719,-1.4545,-1.5351,-1.5624,-1.5491,-1.4907,-1.4496,-1.4765,-1.3395,-1.1822,-1.121,-1.0382,-0.9951,-1.0381,-1.1251,-1.2209,-1.2209,-1.2717,-1.347,2.3592,2.2359,2.3553,2.3381,2.2309,2.2652,2.1609,1.9641,0.0,0.0,0.0,1.4786,1.3726,1.2248,1.104,0.9708,0.8208,0.666,0.5095,0.3544,0.2315,0.0871,-0.0804,-0.2339,-0.3936,-0.5665,-0.7478,-0.9064,-1.0289,-1.1667,-1.2692,-1.3442,-1.4033,-1.4251,-1.4094,-1.3351,-1.2155,-1.0597,-0.9958,-0.8839,-0.7119,-0.5906,-0.4906,-0.4143,-0.3236,-0.2194,-0.1076,-0.0158,0.0864,0.2005,0.2933,0.3595,0.3887,0.406,0.4078,0.3966,0.3626,0.168,-0.2214,-0.2683,-0.4256,-0.7661,-1.0661,-1.3147,-1.4917,-1.6756,-1.7651,-1.7356,-1.9043,-2.0444,-2.1053,-2.0957,-2.1069,-2.1449,-2.0816,-2.0443,-2.0579,-1.8644,-1.6917,-1.6177,-1.6333,-1.6189,-1.4944,-1.3205,-1.1067,-0.8614,-0.8873,-0.9622,-1.0073,-1.1526,-1.2486,-1.2032,-1.2279,-1.2768,-1.3061,-1.3188,-1.3464,-1.3879,-1.4662,-1.5054,-1.4739,-1.389,-1.3688,-1.4597,-1.3003,-1.1405,-1.0622,-1.0274,-1.0217,-1.0212,-1.1424,-1.2637,-1.3143,-1.3313,-1.3737,2.3007,2.3105,2.285,2.2537,2.2211,2.2338,2.1102,1.8984,1.7865,1.6952,1.6191,1.5844,1.4869,1.3406,1.2248,1.0821,0.922,0.7985,0.6424,0.4692,0.306,0.1603,0.0402,-0.1605,-0.3205,-0.459,-0.629,-0.7698,-0.8786,-1.0181,-1.0865,-1.0897,-1.1456,-1.1788,-1.183,-1.1684,-1.115,-1.0294,-1.0119,-0.9156,-0.7397,-0.668,-0.5945,-0.504,-0.3684,-0.2246,-0.0815,-0.0234,0.0847,0.2481,0.2518,0.2728,0.3195,0.3393,0.3686,0.416,0.3518,0.1662,-0.155,-0.3797,-0.6301,-0.9203,-1.1449,-1.3511,-1.5581,-1.7496,-1.802,-1.6944,-1.9792,-2.1084,-1.959,-1.8922,-1.9155,-2.0049,-1.8619,-1.7809,-1.8747,-1.6374,-1.4532,-1.4106,-1.4061,-1.3942,-1.312,-1.1367,-0.9896,-0.8674,-0.8476,-0.8344,-0.9466,-1.0798,-1.1746,-1.1792,-1.1882,-1.2095,-1.2175,-1.2204,-1.2429,-1.2945,-1.3142,-1.3566,-1.4176,-1.2894,-1.229,-1.3489,-1.1764,-1.0479,-1.0328,-0.9984,-1.0207,-1.0895,-1.2112,-1.3149,-1.3568,-1.3893,-1.4314,2.2192,2.1573,2.2248,2.2204,2.1676,2.1746,2.1204,2.0192,1.8748,1.7276,1.5951,1.6153,1.5242,1.3496,1.2752,1.1516,0.9855,0.8614,0.719,0.5696,0.4069,0.2615,0.1216,-0.0584,-0.2137,-0.3314,-0.4708,-0.5939,-0.6876,-0.7758,-0.8303,-0.8659,-0.9862,-1.0674,-1.1042,-1.1665,-1.1358,-1.0094,-0.9581,-0.8635,-0.7281,-0.6596,-0.5803,-0.4974,-0.3929,-0.2762,-0.1401,-0.0622,0.0383,0.1738,0.2157,0.2597,0.3113,0.331,0.3775,0.4478,0.4181,0.2082,-0.2192,-0.4906,-0.7499,-1.0122,-1.1756,-1.3552,-1.5791,-1.7457,-1.8386,-1.8448,-2.0776,-2.1006,-1.8319,-1.7775,-1.7786,-1.8089,-1.7129,-1.645,-1.5997,-1.4536,-1.328,-1.3188,-1.3014,-1.2894,-1.2739,-1.1164,-1.005,-0.9648,-0.9192,-0.9066,-0.9435,-1.0455,-1.1173,-1.0912,-1.124,-1.1497,-1.1472,-1.1326,-1.1365,-1.175,-1.2106,-1.251,-1.2898,-1.1693,-1.0677,-1.0206,-0.9785,-0.98,-0.9777,-1.0033,-1.0636,-1.1327,-1.2534,-1.3561,-1.423,-1.4817,-1.5409,2.0894,2.0016,2.1544,2.198,2.1625,2.1257,2.1225,2.1217,1.9583,1.7745,1.6084,1.6357,1.547,1.3707,1.3057,1.2012,1.0638,0.9207,0.7858,0.6611,0.5008,0.3554,0.2153,0.0503,-0.0878,-0.1845,-0.313,-0.4232,-0.4942,-0.5521,-0.6105,-0.6927,-0.8296,-0.9484,-1.0427,-1.1451,-1.1313,-0.9966,-0.8964,-0.8094,-0.7309,-0.6574,-0.573,-0.4833,-0.426,-0.333,-0.1973,-0.1096,-0.0178,0.0796,0.1501,0.2144,0.2743,0.2896,0.3174,0.3644,0.4008,0.1633,-0.3872,-0.6389,-0.8545,-1.0774,-1.2261,-1.3848,-1.5678,-1.737,-1.8755,-1.9929,-2.1199,-2.0676,-1.7908,-1.7113,-1.6831,-1.6325,-1.6146,-1.5574,-1.4182,-1.3147,-1.2628,-1.2685,-1.248,-1.245,-1.2578,-1.1828,-1.1048,-1.0821,-1.0476,-1.0089,-0.9902,-1.0455,-1.0644,-1.02,-1.0537,-1.0979,-1.0813,-1.0468,-1.0388,-1.0631,-1.1003,-1.1186,-1.1121,-1.0313,-0.934,-0.8308,-0.8652,-0.9519,-0.968,-1.0371,-1.1241,-1.2015,-1.3215,-1.4314,-1.5318,-1.5899,-1.6265,1.8672,1.9779,2.0623,2.1798,2.2686,2.1289,2.0823,2.0893,1.9701,1.8507,1.7253,1.6607,1.5761,1.4714,1.3362,1.2375,1.1653,1.0001,0.8574,0.7415,0.5603,0.4342,0.343,0.1663,0.0493,-0.0184,-0.1718,-0.272,-0.3219,-0.4125,-0.5035,-0.5765,-0.6203,-0.7463,-0.9241,-0.991,-1.0043,-0.9811,-0.8416,-0.774,-0.7792,-0.7352,-0.6459,-0.5082,-0.4733,-0.3691,-0.2057,-0.1496,-0.0794,0.0213,0.0289,0.063,0.1408,0.1389,0.1024,0.0514,0.157,-0.071,-0.723,-0.874,-0.9785,-1.1437,-1.3494,-1.4861,-1.5525,-1.7375,-1.896,-1.9836,-2.083,-2.0213,-1.7604,-1.6833,-1.6455,-1.5892,-1.5515,-1.4842,-1.3908,-1.2941,-1.237,-1.2332,-1.2234,-1.2323,-1.2735,-1.2627,-1.2289,-1.1487,-1.1169,-1.075,-1.0282,-1.0768,-1.0773,-0.9952,-0.9848,-1.0156,-1.0187,-0.9587,-0.9235,-0.9726,-0.9598,-0.9506,-0.9327,-0.8807,-0.7937,-0.8552,-0.8815,-0.9423,-1.0636,-1.1499,-1.1757,-1.2772,-1.4035,-1.5274,-1.6304,-1.683,-1.6847,1.7955,1.9055,1.9278,2.0471,2.2008,2.2025,2.1801,2.1378,2.0142,1.8892,1.7602,1.6427,1.5462,1.4651,1.3472,1.2484,1.1585,1.0079,0.886,0.7827,0.6158,0.4912,0.3946,0.2488,0.1423,0.0642,-0.0296,-0.0989,-0.1551,-0.2548,-0.3486,-0.4336,-0.5052,-0.6316,-0.7896,-0.9,-0.9383,-0.9079,-0.7905,-0.7258,-0.7212,-0.7115,-0.6253,-0.4833,-0.505,-0.4548,-0.3025,-0.2378,-0.1811,-0.1136,-0.069,-0.0404,-0.0331,-0.0153,-0.0547,-0.1607,-0.2739,-0.5075,-0.9121,-0.974,-1.0577,-1.2027,-1.3819,-1.5097,-1.5648,-1.6961,-1.7863,-1.8149,-2.0007,-2.006,-1.6967,-1.6729,-1.6594,-1.5672,-1.5395,-1.4807,-1.319,-1.2679,-1.2351,-1.2131,-1.1877,-1.2076,-1.2686,-1.2891,-1.247,-1.1769,-1.1659,-1.1655,-1.0914,-1.1431,-1.1388,-1.0469,-0.9924,-0.9205,-0.8663,-0.8247,-0.7959,-0.761,-0.758,-0.7753,-0.8181,-0.7573,-0.7312,-0.846,-0.8999,-0.9694,-1.0722,-1.1843,-1.2443,-1.3587,-1.5101,-1.6596,-1.7316,-1.7527,-1.7249,1.7206,1.8183,1.9019,2.0371,2.1935,2.2772,2.2768,2.1944,2.0576,1.9282,1.807,1.6314,1.5139,1.4388,1.348,1.2468,1.137,1.0051,0.8919,0.7961,0.6494,0.5386,0.4563,0.3251,0.2232,0.1634,0.1031,0.0394,-0.0265,-0.1098,-0.1973,-0.2921,-0.3922,-0.5142,-0.6531,-0.7954,-0.8493,-0.8165,-0.757,-0.7023,-0.654,-0.6416,-0.5683,-0.4465,-0.4998,-0.483,-0.3521,-0.3113,-0.2725,-0.2379,-0.1775,-0.1581,-0.1839,-0.1678,-0.217,-0.3562,-0.5711,-0.7941,-1.001,-1.0604,-1.1428,-1.2751,-1.4124,-1.5205,-1.5879,-1.6607,-1.6824,-1.686,-1.8359,-1.8053,-1.6124,-1.6187,-1.616,-1.5248,-1.534,-1.4578,-1.2729,-1.2586,-1.2498,-1.1899,-1.1927,-1.2126,-1.2725,-1.2929,-1.27,-1.2192,-1.2324,-1.2517,-1.1775,-1.1948,-1.1889,-1.1115,-1.0384,-0.9302,-0.7748,-0.735,-0.6853,-0.6383,-0.6503,-0.6967,-0.7501,-0.6977,-0.7048,-0.8464,-0.9358,-1.0492,-1.1505,-1.2443,-1.3445,-1.4482,-1.5826,-1.7171,-1.7676,-1.8033,-1.7873,1.6003,1.7439,2.0535,2.2151,2.2849,2.3337,2.3277,2.2606,2.0908,1.9729,1.8727,1.6454,1.4957,1.4241,1.3301,1.2348,1.1255,1.0048,0.8976,0.8018,0.6546,0.5773,0.5605,0.3907,0.319,0.3181,0.213,0.1211,0.0423,-0.0102,-0.0753,-0.1696,-0.2503,-0.3672,-0.5229,-0.6442,-0.7102,-0.725,-0.7486,-0.7167,-0.601,-0.54,-0.4983,-0.4447,-0.4539,-0.4261,-0.3477,-0.3556,-0.3443,-0.3088,-0.3148,-0.3077,-0.2899,-0.322,-0.4077,-0.5363,-0.6537,-0.8181,-1.0293,-1.1399,-1.2396,-1.3529,-1.4565,-1.5501,-1.6027,-1.6362,-1.6497,-1.6679,-1.5915,-1.5204,-1.4598,-1.5028,-1.5279,-1.5081,-1.484,-1.3935,-1.2395,-1.2909,-1.2767,-1.1968,-1.2076,-1.252,-1.2822,-1.3094,-1.319,-1.2998,-1.2908,-1.2724,-1.2745,-1.2248,-1.2009,-1.1733,-1.1256,-1.0554,-0.8916,-0.7962,-0.704,-0.6631,-0.6822,-0.6731,-0.6977,-0.7254,-0.7827,-0.8632,-0.9873,-1.1089,-1.2272,-1.3445,-1.4597,-1.552,-1.6085,-1.7053,-1.7825,-1.8569,-1.8468,1.6531,1.7992,2.0909,2.223,2.242,2.3325,2.3257,2.2365,2.1342,1.9974,1.8437,1.668,1.5179,1.3822,1.3042,1.2204,1.1295,1.0189,0.9375,0.8655,0.7399,0.6529,0.5991,0.5105,0.4336,0.3788,0.3176,0.2441,0.1694,0.0989,0.034,-0.0437,-0.1517,-0.2768,-0.413,-0.4952,-0.5733,-0.6563,-0.6804,-0.6436,-0.5793,-0.5742,-0.5356,-0.4462,-0.4845,-0.4781,-0.4169,-0.4148,-0.4077,-0.3946,-0.3732,-0.3605,-0.3739,-0.455,-0.4964,-0.5013,-0.6868,-0.9027,-1.0871,-1.1616,-1.2447,-1.3628,-1.447,-1.5247,-1.5867,-1.6044,-1.5855,-1.5451,-1.6087,-1.5545,-1.3996,-1.4246,-1.4714,-1.4503,-1.4651,-1.4252,-1.3253,-1.3154,-1.2925,-1.1725,-1.1477,-1.1728,-1.2822,-1.3372,-1.3695,-1.3652,-1.3721,-1.3704,-1.357,-1.3705,-1.3537,-1.2512,-1.2104,-1.1684,-1.0797,-0.9259,-0.825,-0.7865,-0.7684,-0.7567,-0.7556,-0.7692,-0.8186,-0.9416,-1.0575,-1.1776,-1.3124,-1.4118,-1.5334,-1.6038,-1.6621,-1.6859,-1.7887,-1.8232,-1.8294,1.7219,1.8498,2.082,2.1926,2.2147,2.3065,2.3136,2.2428,2.1617,2.0217,1.8443,1.6849,1.5205,1.3638,1.2783,1.2054,1.1211,1.0267,0.9552,0.9006,0.7835,0.7074,0.6588,0.5928,0.5269,0.4615,0.4067,0.3466,0.2829,0.2048,0.1331,0.0543,-0.0656,-0.1871,-0.3048,-0.3931,-0.4904,-0.5592,-0.5991,-0.5996,-0.5614,-0.5609,-0.5358,-0.4767,-0.4989,-0.5074,-0.487,-0.4848,-0.4918,-0.5013,-0.4828,-0.4763,-0.5031,-0.58,-0.5974,-0.5626,-0.7556,-0.9679,-1.1228,-1.1757,-1.248,-1.3743,-1.4234,-1.4844,-1.5692,-1.5824,-1.5404,-1.5093,-1.5135,-1.4987,-1.4185,-1.4064,-1.4175,-1.4051,-1.4512,-1.4369,-1.3309,-1.3519,-1.303,-1.1775,-1.1124,-1.1578,-1.2812,-1.3634,-1.3982,-1.3982,-1.429,-1.4274,-1.4178,-1.469,-1.4864,-1.3252,-1.2536,-1.2243,-1.1836,-1.0944,-1.0664,-1.0404,-0.9243,-0.8774,-0.8391,-0.8404,-0.9092,-1.0324,-1.1556,-1.27,-1.386,-1.4835,-1.561,-1.627,-1.6238,-1.6364,-1.7019,-1.7481,-1.7644,1.8024,1.8542,2.0301,2.1519,2.2067,2.2663,2.2982,2.2811,2.173,2.0417,1.8897,1.6908,1.5143,1.3582,1.26,1.175,1.0957,1.0156,0.9489,0.8811,0.7874,0.7456,0.73,0.6396,0.5909,0.5863,0.4787,0.4104,0.3696,0.3203,0.2362,0.1107,0.0212,-0.0812,-0.179,-0.3357,-0.4311,-0.4657,-0.5546,-0.5854,-0.534,-0.4927,-0.4856,-0.5011,-0.4821,-0.4993,-0.5461,-0.5663,-0.5949,-0.6358,-0.6498,-0.6694,-0.669,-0.6984,-0.7159,-0.7356,-0.8634,-1.004,-1.1394,-1.1968,-1.2743,-1.3851,-1.4052,-1.4617,-1.552,-1.5766,-1.5556,-1.4956,-1.4024,-1.3452,-1.444,-1.4219,-1.3803,-1.3683,-1.4272,-1.4146,-1.3657,-1.3807,-1.3701,-1.214,-1.1449,-1.1963,-1.3128,-1.3586,-1.379,-1.4081,-1.4359,-1.4471,-1.4385,-1.4944,-1.4838,-1.3768,-1.2887,-1.2305,-1.2476,-1.2751,-1.308,-1.2998,-1.1546,-1.0484,-0.9787,-0.9648,-1.1025,-1.2203,-1.2593,-1.3754,-1.4645,-1.5543,-1.5694,-1.6165,-1.5974,-1.5937,-1.6484,-1.7016,-1.7191,1.8897,1.9322,2.0642,2.1308,2.1623,2.2571,2.285,2.25,2.2065,2.0976,1.9275,1.7458,1.5599,1.3777,1.2408,1.1446,1.0813,1.013,0.96,0.913,0.8574,0.8043,0.7609,0.7544,0.7282,0.6692,0.6225,0.5511,0.4737,0.4184,0.3437,0.2454,0.1388,0.0228,-0.104,-0.2125,-0.3161,-0.4516,-0.5042,-0.5277,-0.5478,-0.5224,-0.5091,-0.5074,-0.5085,-0.5424,-0.622,-0.6555,-0.6773,-0.6873,-0.6932,-0.7212,-0.7622,-0.7846,-0.7976,-0.8242,-0.9706,-1.1163,-1.2238,-1.2674,-1.3179,-1.412,-1.4763,-1.5381,-1.5903,-1.5881,-1.5522,-1.4827,-1.3667,-1.3185,-1.3491,-1.402,-1.4093,-1.4129,-1.4316,-1.4638,-1.4644,-1.3979,-1.3229,-1.2734,-1.1884,-1.157,-1.1756,-1.2213,-1.2965,-1.3801,-1.4381,-1.4687,-1.4686,-1.492,-1.483,-1.3655,-1.2912,-1.2397,-1.2623,-1.3112,-1.3752,-1.4105,-1.3279,-1.2466,-1.1701,-1.1611,-1.2946,-1.3651,-1.4007,-1.4556,-1.5451,-1.5947,-1.6069,-1.6083,-1.5991,-1.6146,-1.6355,-1.6475,-1.6607,1.943,1.9771,2.0553,2.1031,2.1249,2.201,2.2284,2.2213,2.1986,2.1043,1.9514,1.779,1.5903,1.4062,1.2507,1.1489,1.0903,1.0441,0.9976,0.9465,0.9099,0.8625,0.8214,0.8383,0.835,0.7799,0.7316,0.6653,0.5918,0.5356,0.4666,0.3674,0.2553,0.136,0.0,-0.1148,-0.2516,-0.3793,-0.442,-0.4858,-0.5137,-0.5096,-0.5111,-0.5266,-0.5254,-0.5716,-0.6574,-0.7143,-0.7501,-0.7529,-0.7753,-0.7995,-0.823,-0.8484,-0.8543,-0.8613,-1.0273,-1.2091,-1.2978,-1.3116,-1.3651,-1.4621,-1.5171,-1.5672,-1.604,-1.593,-1.5332,-1.4643,-1.3551,-1.2891,-1.3036,-1.3821,-1.4337,-1.4384,-1.4743,-1.5188,-1.5603,-1.4835,-1.3705,-1.3215,-1.2461,-1.2063,-1.1914,-1.1979,-1.2388,-1.3313,-1.3939,-1.4588,-1.4474,-1.4608,-1.4116,-1.3459,-1.2762,-1.2527,-1.274,-1.3424,-1.4294,-1.4747,-1.4898,-1.449,-1.4008,-1.4248,-1.5089,-1.5065,-1.53,-1.5291,-1.603,-1.6141,-1.6227,-1.6145,-1.6115,-1.6234,-1.6335,-1.5881,-1.5891,1.9745,1.9844,2.0096,2.057,2.1075,2.1014,2.1473,2.2104,2.1593,2.0816,1.973,1.7987,1.6107,1.4379,1.29,1.1816,1.114,1.1021,1.0549,0.9932,0.9539,0.9358,0.9141,0.8984,0.8946,0.8912,0.8274,0.764,0.7135,0.6724,0.5956,0.4745,0.361,0.2488,0.126,-0.0486,-0.1678,-0.2615,-0.3717,-0.4332,-0.4623,-0.4494,-0.4783,-0.5479,-0.5232,-0.5526,-0.6516,-0.7402,-0.8066,-0.8438,-0.8804,-0.8844,-0.8686,-0.9077,-0.8926,-0.8359,-1.0756,-1.2448,-1.3355,-1.353,-1.3925,-1.513,-1.5314,-1.5294,-1.6171,-1.6068,-1.5499,-1.4722,-1.3828,-1.3204,-1.3233,-1.393,-1.4468,-1.4697,-1.5555,-1.6175,-1.6312,-1.6114,-1.521,-1.3884,-1.3431,-1.3222,-1.2849,-1.2852,-1.2539,-1.2914,-1.3441,-1.4664,-1.4322,-1.4389,-1.3848,-1.3299,-1.2786,-1.256,-1.2679,-1.3699,-1.4552,-1.5245,-1.5827,-1.6123,-1.6008,-1.6282,-1.6251,-1.6228,-1.6165,-1.6234,-1.6224,-1.6239,-1.6294,-1.6264,-1.6311,-1.6384,-1.614,-1.5803,-1.5521,2.0345,2.005,2.0153,2.0344,2.0575,2.0793,2.1236,2.168,2.1488,2.0972,2.0131,1.8519,1.6821,1.5181,1.3507,1.2313,1.1715,1.1335,1.1023,1.0651,1.071,1.0272,0.9811,0.9741,0.982,0.9827,0.9475,0.8986,0.8091,0.7801,0.6918,0.5329,0.4791,0.3593,0.1952,0.0965,-0.0392,-0.1967,-0.2885,-0.369,-0.4261,-0.4313,-0.4516,-0.4786,-0.477,-0.5217,-0.62,-0.7553,-0.8509,-0.8961,-0.9217,-0.9332,-0.9292,-0.9634,-0.9791,-1.0173,-1.161,-1.3101,-1.3548,-1.4005,-1.454,-1.5026,-1.598,-1.6559,-1.6442,-1.6862,-1.6351,-1.5454,-1.4974,-1.451,-1.3701,-1.4289,-1.5152,-1.5929,-1.6786,-1.7517,-1.7274,-1.6673,-1.6184,-1.6226,-1.3865,-1.2814,-1.2451,-1.1989,-1.1465,-1.27,-1.4886,-1.643,-1.5246,-1.4821,-1.4624,-1.3818,-1.3259,-1.2794,-1.2896,-1.3922,-1.4887,-1.5684,-1.6514,-1.7467,-1.747,-1.7661,-1.7288,-1.6934,-1.666,-1.6654,-1.6406,-1.6258,-1.629,-1.6332,-1.6164,-1.6062,-1.6106,-1.5879,-1.5608,2.0733,2.0145,2.0249,2.0333,2.0385,2.0553,2.0982,2.1461,2.1267,2.1083,2.0542,1.8997,1.7469,1.6061,1.4316,1.3149,1.2441,1.188,1.1443,1.1133,1.1131,1.0979,1.0672,1.0621,1.0476,1.0523,1.0047,0.949,0.8908,0.8597,0.7628,0.6564,0.5773,0.4595,0.3081,0.1716,0.0402,-0.134,-0.235,-0.3123,-0.3663,-0.3661,-0.3895,-0.4075,-0.4224,-0.4761,-0.6194,-0.7396,-0.8279,-0.8918,-0.9494,-0.9746,-0.9539,-1.0035,-1.0718,-1.1427,-1.255,-1.3132,-1.3415,-1.4104,-1.4821,-1.5378,-1.6563,-1.6905,-1.6796,-1.724,-1.6974,-1.5405,-1.5322,-1.477,-1.417,-1.4522,-1.5266,-1.6017,-1.7299,-1.8094,-1.8198,-1.7855,-1.7646,-1.7083,-1.5168,-1.2254,-1.1721,-1.075,-1.1309,-1.2871,-1.6219,-1.6405,-1.5711,-1.5647,-1.5447,-1.4713,-1.4361,-1.4143,-1.3872,-1.4604,-1.5657,-1.6428,-1.7189,-1.8249,-1.8544,-1.861,-1.8109,-1.7551,-1.729,-1.6922,-1.6578,-1.6325,-1.6275,-1.6192,-1.5913,-1.5834,-1.5956,-1.585,-1.5553,2.0922,2.0225,2.0452,2.0516,2.0471,2.0327,2.0919,2.1578,2.1126,2.1066,2.1009,1.9541,1.8238,1.7046,1.5405,1.4194,1.3433,1.2628,1.2052,1.174,1.1627,1.1639,1.1804,1.1199,1.1005,1.0938,0.9948,0.9649,0.937,0.8847,0.8231,0.7322,0.6334,0.5322,0.3916,0.2252,0.0669,-0.0671,-0.1813,-0.2547,-0.2802,-0.2871,-0.3062,-0.3504,-0.3808,-0.4595,-0.6067,-0.7157,-0.7892,-0.8614,-0.9895,-1.0091,-0.9645,-1.0462,-1.1377,-1.2274,-1.2569,-1.2725,-1.3086,-1.3991,-1.4862,-1.5615,-1.6524,-1.7076,-1.6863,-1.7193,-1.6939,-1.5498,-1.4831,-1.4641,-1.4534,-1.447,-1.4965,-1.5905,-1.6989,-1.7894,-1.864,-1.9161,-1.9058,-1.8032,-1.6387,-1.3272,-1.0774,-1.0109,-1.1533,-1.2418,-1.5455,-1.6044,-1.6051,-1.6478,-1.6253,-1.5796,-1.5626,-1.5676,-1.5429,-1.5367,-1.6423,-1.7335,-1.7972,-1.8762,-1.9086,-1.9046,-1.8667,-1.8209,-1.769,-1.7134,-1.6641,-1.6472,-1.6343,-1.6106,-1.5873,-1.5824,-1.5807,-1.5585,-1.5322,2.0989,2.042,2.1133,2.1032,2.0555,2.0911,2.1464,2.1967,2.1316,2.1399,2.164,2.059,1.9271,1.8004,1.6571,1.5345,1.4297,1.3558,1.3006,1.2665,1.2827,1.2818,1.2644,1.1964,1.1469,1.1161,1.0952,1.0257,0.9506,0.9008,0.8385,0.7269,0.6497,0.5471,0.4111,0.3,0.1543,-0.0134,-0.1075,-0.1747,-0.2218,-0.2359,-0.2496,-0.2958,-0.3605,-0.4382,-0.547,-0.7062,-0.8153,-0.8866,-0.9831,-1.0537,-1.0639,-1.0743,-1.1302,-1.1886,-1.2144,-1.2252,-1.2968,-1.4069,-1.4912,-1.53,-1.6167,-1.6623,-1.6929,-1.7088,-1.691,-1.6108,-1.5407,-1.5027,-1.4783,-1.4368,-1.4937,-1.6125,-1.7106,-1.8013,-1.8846,-1.9258,-1.9169,-1.8361,-1.6479,-1.3622,-0.9971,-0.9226,-1.0541,-1.2283,-1.3826,-1.5235,-1.6163,-1.6992,-1.7116,-1.6876,-1.7107,-1.7086,-1.6679,-1.6663,-1.7457,-1.8302,-1.8958,-1.9459,-1.9768,-1.9625,-1.9238,-1.8626,-1.7968,-1.7401,-1.6972,-1.6556,-1.6414,-1.614,-1.5871,-1.5907,-1.5806,-1.5493,-1.5389,2.1081,2.0519,2.1382,2.1465,2.1107,2.1369,2.1952,2.2416,2.1728,2.1743,2.2073,2.1201,2.0011,1.8734,1.7505,1.6353,1.532,1.4411,1.3805,1.3488,1.3508,1.3441,1.3233,1.258,1.1971,1.1442,1.0872,1.0122,0.9406,0.8864,0.8215,0.725,0.6509,0.5592,0.4331,0.3284,0.1946,0.0672,-0.047,-0.1143,-0.148,-0.1842,-0.2215,-0.2643,-0.3366,-0.4087,-0.4984,-0.6455,-0.7479,-0.8361,-0.9587,-1.0802,-1.1396,-1.1431,-1.1436,-1.1311,-1.1986,-1.2588,-1.361,-1.4389,-1.511,-1.5723,-1.6426,-1.6698,-1.7073,-1.7298,-1.7175,-1.6557,-1.6168,-1.5959,-1.5139,-1.5142,-1.5581,-1.6113,-1.7021,-1.7827,-1.8664,-1.9354,-1.9718,-1.8933,-1.6973,-1.4285,-1.1829,-1.0071,-0.9775,-1.1652,-1.3209,-1.4645,-1.6114,-1.697,-1.8037,-1.8235,-1.8549,-1.8517,-1.7991,-1.8057,-1.8616,-1.9357,-1.9977,-2.04,-2.0651,-2.0335,-1.99,-1.9162,-1.8447,-1.7896,-1.7455,-1.7011,-1.6618,-1.6463,-1.6349,-1.6121,-1.6032,-1.6011,-1.5963,2.1161,2.0711,2.1596,2.1964,2.1866,2.1845,2.242,2.3162,2.2166,2.2066,2.2459,2.1666,2.0606,1.943,1.8282,1.7231,1.6064,1.5382,1.4704,1.4283,1.4232,1.4079,1.3799,1.3154,1.2397,1.1609,1.0801,0.9917,0.9037,0.8478,0.7907,0.7206,0.6341,0.5488,0.4509,0.3284,0.2082,0.121,0.0202,-0.074,-0.1081,-0.1518,-0.1978,-0.2446,-0.2954,-0.3732,-0.4734,-0.5976,-0.6883,-0.7624,-0.9243,-1.0607,-1.1538,-1.1921,-1.1688,-1.0693,-1.1878,-1.3374,-1.4606,-1.5018,-1.5458,-1.6583,-1.7014,-1.7056,-1.6957,-1.7372,-1.7306,-1.6992,-1.6627,-1.6612,-1.5437,-1.5384,-1.5772,-1.623,-1.6701,-1.745,-1.8302,-1.9427,-1.9798,-1.936,-1.7408,-1.4904,-1.2869,-1.1138,-1.092,-1.0953,-1.2487,-1.4025,-1.5455,-1.678,-1.7717,-1.8883,-1.9112,-1.9184,-1.8768,-1.9544,-2.0099,-2.0612,-2.123,-2.125,-2.1493,-2.1293,-2.0792,-1.9788,-1.9034,-1.8576,-1.7996,-1.7373,-1.7041,-1.6947,-1.6948,-1.6916,-1.682,-1.6645,-1.6559,2.0984,2.1638,2.2519,2.2803,2.2712,2.2694,2.3053,2.3373,2.2421,2.2447,2.3132,2.2346,2.1409,2.0356,1.9119,1.7639,1.6479,1.5946,1.5683,1.528,1.5253,1.5191,1.4479,1.3765,1.2871,1.1822,1.0912,0.9791,0.8532,0.7967,0.7637,0.6828,0.5945,0.5147,0.4495,0.3416,0.2284,0.1546,0.0807,-0.0067,-0.0948,-0.1457,-0.1786,-0.2195,-0.2718,-0.3514,-0.4535,-0.5615,-0.6783,-0.8282,-0.9188,-1.0015,-1.0735,-1.1289,-1.1207,-1.1158,-1.2045,-1.3815,-1.5771,-1.5778,-1.5839,-1.6324,-1.6747,-1.6675,-1.6631,-1.7001,-1.7194,-1.702,-1.6742,-1.6565,-1.5687,-1.549,-1.5637,-1.6107,-1.6704,-1.7271,-1.804,-1.8936,-1.9453,-1.9036,-1.7381,-1.5834,-1.4011,-1.2233,-1.1256,-1.0916,-1.1547,-1.3059,-1.4497,-1.5855,-1.7014,-1.8243,-1.9421,-1.9439,-1.9376,-2.0644,-2.157,-2.2077,-2.241,-2.1981,-2.2189,-2.2271,-2.173,-2.0895,-2.0137,-1.9621,-1.8883,-1.8007,-1.7881,-1.8099,-1.7957,-1.7851,-1.7745,-1.77,-1.7166,2.2058,2.2539,2.3411,2.3702,2.3576,2.3507,2.3813,2.4138,2.3089,2.2887,2.3187,2.2876,2.196,2.0972,2.04,1.9031,1.774,1.6831,1.6686,1.6549,1.6527,1.6334,1.5533,1.4697,1.3451,1.2317,1.1223,0.9938,0.8453,0.781,0.7394,0.679,0.5892,0.5258,0.4707,0.3689,0.2753,0.1949,0.1144,0.0337,-0.0541,-0.0979,-0.16,-0.225,-0.2723,-0.3327,-0.4011,-0.5246,-0.6129,-0.7053,-0.8175,-0.8988,-0.9729,-1.0425,-1.1023,-1.1239,-1.2289,-1.4091,-1.6175,-1.6065,-1.5835,-1.6501,-1.6656,-1.6542,-1.6522,-1.6772,-1.6951,-1.7005,-1.6859,-1.6602,-1.6093,-1.5526,-1.5372,-1.567,-1.6311,-1.7015,-1.7733,-1.8782,-1.9031,-1.8826,-1.7755,-1.6556,-1.5273,-1.352,-1.1808,-1.118,-1.1023,-1.2139,-1.3662,-1.4784,-1.6085,-1.8143,-1.948,-2.0038,-2.0244,-2.1401,-2.2458,-2.3048,-2.3301,-2.2922,-2.2834,-2.2951,-2.2801,-2.2289,-2.1597,-2.0934,-2.0059,-1.935,-1.9324,-1.9349,-1.9651,-1.9707,-1.9121,-1.8648,-1.8117,2.3203,2.3418,2.4098,2.4417,2.4418,2.4091,2.4317,2.4609,2.3598,2.3197,2.3401,2.3119,2.2375,2.1503,2.1069,2.0387,1.9041,1.804,1.7962,1.7887,1.7666,1.7312,1.6589,1.5512,1.4076,1.2757,1.1335,1.0161,0.8725,0.7891,0.7386,0.6954,0.6212,0.5653,0.5256,0.3885,0.3288,0.2418,0.1411,0.0539,0.0069,-0.0713,-0.1493,-0.2262,-0.2666,-0.2969,-0.3583,-0.4436,-0.5407,-0.6256,-0.7289,-0.836,-0.8913,-0.9965,-1.088,-1.1521,-1.2337,-1.414,-1.5532,-1.5975,-1.5774,-1.656,-1.6523,-1.6437,-1.6318,-1.635,-1.6538,-1.692,-1.7043,-1.6874,-1.6586,-1.6067,-1.5665,-1.5544,-1.6146,-1.6891,-1.7771,-1.8632,-1.9407,-1.8994,-1.8243,-1.7208,-1.5947,-1.4257,-1.2411,-1.1214,-1.1075,-1.1773,-1.3134,-1.3813,-1.5299,-1.7882,-1.9561,-2.043,-2.112,-2.1998,-2.285,-2.3385,-2.3593,-2.3434,-2.3492,-2.3623,-2.3509,-2.3393,-2.3186,-2.2489,-2.1575,-2.0757,-2.0649,-2.0827,-2.1514,-2.1259,-2.0147,-1.9431,-1.8972,2.3534,2.4262,2.4323,2.4696,2.5136,2.434,2.4236,2.4553,2.3607,2.3194,2.3305,2.2928,2.2671,2.2297,2.1584,2.0681,1.9918,1.9515,1.9204,1.8918,1.8659,1.8029,1.6991,1.5431,1.45,1.3213,1.1551,0.9869,0.8777,0.8178,0.767,0.7254,0.6693,0.6217,0.5529,0.4079,0.2876,0.2415,0.1546,0.0551,-0.0358,-0.1091,-0.1502,-0.1783,-0.2042,-0.2515,-0.3224,-0.3853,-0.4535,-0.6254,-0.7051,-0.8125,-0.9165,-1.0275,-1.0895,-1.1462,-1.2393,-1.3678,-1.5146,-1.5493,-1.572,-1.6297,-1.6321,-1.6069,-1.5845,-1.5785,-1.5998,-1.6368,-1.6818,-1.7166,-1.711,-1.7236,-1.683,-1.6454,-1.6385,-1.7251,-1.8125,-1.8903,-1.9572,-2.0136,-1.9662,-1.8096,-1.6604,-1.4779,-1.3056,-1.1955,-1.1283,-1.2047,-1.2866,-1.378,-1.4738,-1.732,-1.9072,-1.9967,-2.0831,-2.1917,-2.2855,-2.3505,-2.3754,-2.3784,-2.3857,-2.396,-2.4493,-2.4381,-2.4249,-2.3911,-2.302,-2.2349,-2.202,-2.1769,-2.1793,-2.1379,-2.0716,-2.0202,-1.9731,2.4807,2.5138,2.5079,2.5162,2.529,2.4744,2.4537,2.4454,2.3933,2.3513,2.3353,2.3319,2.3291,2.2994,2.1985,2.1281,2.083,2.0368,1.9961,1.9726,1.9471,1.8955,1.7897,1.6711,1.5629,1.3746,1.2199,1.0744,0.9445,0.8406,0.7814,0.7274,0.6749,0.6193,0.5807,0.4478,0.3613,0.2827,0.1914,0.092,-0.0073,-0.0672,-0.0985,-0.1176,-0.1649,-0.2372,-0.295,-0.3595,-0.4343,-0.5827,-0.6735,-0.7817,-0.8921,-1.0088,-1.105,-1.2122,-1.2962,-1.4194,-1.5412,-1.5578,-1.5914,-1.6208,-1.614,-1.5757,-1.546,-1.5359,-1.5604,-1.6077,-1.6306,-1.6761,-1.7222,-1.7379,-1.7078,-1.6826,-1.6855,-1.7495,-1.8393,-1.9265,-2.0004,-2.0614,-2.1029,-1.9738,-1.8303,-1.6595,-1.4971,-1.3556,-1.2786,-1.2962,-1.374,-1.4622,-1.5641,-1.687,-1.8279,-1.9328,-2.0157,-2.1116,-2.2277,-2.3053,-2.3711,-2.3771,-2.3919,-2.4157,-2.4531,-2.5028,-2.5077,-2.4732,-2.4248,-2.3622,-2.2956,-2.24,-2.1849,-2.139,-2.0975,-2.0786,-2.0327,2.5628,2.5658,2.5604,2.5485,2.5281,2.5019,2.4724,2.442,2.4136,2.3714,2.3442,2.3574,2.3686,2.3438,2.2604,2.2261,2.214,2.0968,2.0501,2.0386,2.0185,1.9509,1.8449,1.752,1.6239,1.4352,1.2494,1.12,1.0092,0.9021,0.8049,0.7487,0.7237,0.6658,0.5954,0.5199,0.4425,0.3245,0.2175,0.1304,0.06,-0.0,-0.0537,-0.1015,-0.1581,-0.2155,-0.2675,-0.327,-0.4131,-0.5379,-0.6622,-0.785,-0.899,-1.0368,-1.1489,-1.2535,-1.3484,-1.4613,-1.5445,-1.5867,-1.6017,-1.6013,-1.5869,-1.5398,-1.5368,-1.5241,-1.5508,-1.6029,-1.6144,-1.6705,-1.7423,-1.7755,-1.7616,-1.7514,-1.7404,-1.7921,-1.8589,-1.9675,-2.0775,-2.1671,-2.2142,-2.2364,-2.0807,-1.8861,-1.7102,-1.5379,-1.4588,-1.4102,-1.4474,-1.5142,-1.5967,-1.6837,-1.7613,-1.8653,-1.9423,-2.039,-2.1571,-2.26,-2.326,-2.3611,-2.3642,-2.3881,-2.4268,-2.4837,-2.5546,-2.5781,-2.5442,-2.4648,-2.379,-2.306,-2.2366,-2.1727,-2.1314,-2.1139,-2.0818,2.5464,2.5517,2.557,2.5492,2.5274,2.4803,2.4561,2.4412,2.413,2.3701,2.3353,2.3587,2.3604,2.3322,2.3471,2.334,2.3113,2.2128,2.15,2.1116,2.0798,1.9814,1.8655,1.7619,1.6526,1.4748,1.2967,1.1658,1.0568,0.9444,0.8829,0.863,0.7907,0.748,0.6805,0.5905,0.4784,0.3572,0.2465,0.1767,0.1206,0.0533,-0.0307,-0.1021,-0.1522,-0.1869,-0.1952,-0.2817,-0.3902,-0.5287,-0.6663,-0.8142,-0.9533,-1.0863,-1.1982,-1.2685,-1.3887,-1.4913,-1.5655,-1.5792,-1.5549,-1.5407,-1.5292,-1.5185,-1.5157,-1.5145,-1.5536,-1.6243,-1.6519,-1.7386,-1.821,-1.8655,-1.8496,-1.8225,-1.818,-1.8757,-1.9438,-2.0288,-2.1391,-2.2585,-2.3137,-2.3299,-2.4013,-2.2276,-2.0243,-1.8549,-1.5862,-1.5312,-1.4653,-1.5128,-1.5891,-1.6622,-1.7144,-1.7925,-1.8684,-1.9726,-2.0904,-2.1993,-2.2846,-2.3083,-2.3187,-2.3539,-2.3818,-2.4828,-2.5533,-2.612,-2.6609,-2.5804,-2.4901,-2.3729,-2.2851,-2.22,-2.1486,-2.107,-2.0777,2.5398,2.5302,2.5348,2.5303,2.519,2.5475,2.5368,2.504,2.5172,2.4824,2.413,2.3988,2.3914,2.3898,2.3863,2.3767,2.329,2.2342,2.1841,2.1417,2.0862,1.9961,1.883,1.7822,1.6824,1.5081,1.3397,1.2315,1.1584,0.994,0.9472,0.9136,0.8379,0.7602,0.6907,0.6194,0.4994,0.3914,0.306,0.2566,0.1695,0.1007,0.0311,0.0079,-0.1207,-0.1721,-0.2159,-0.2882,-0.4183,-0.5536,-0.6873,-0.8395,-0.9949,-1.1344,-1.2144,-1.2534,-1.3901,-1.5127,-1.5994,-1.5955,-1.5443,-1.492,-1.4993,-1.5286,-1.5162,-1.5323,-1.5778,-1.6451,-1.7403,-1.8527,-1.9285,-1.942,-1.9202,-1.8915,-1.9024,-1.9545,-2.0161,-2.0928,-2.1936,-2.3069,-2.3719,-2.4071,-2.5099,-2.5859,-2.379,-2.1695,-1.8879,-1.6426,-1.5697,-1.5198,-1.5901,-1.643,-1.6965,-1.7593,-1.8341,-1.9289,-2.0283,-2.1278,-2.2267,-2.2349,-2.2443,-2.2826,-2.3276,-2.4425,-2.5492,-2.6059,-2.6476,-2.6692,-2.5979,-2.4597,-2.3478,-2.2613,-2.1862,-2.1077,-2.0666,2.564,2.5512,2.5492,2.5309,2.5152,2.5769,2.5783,2.5452,2.5778,2.5552,2.4761,2.4329,2.4137,2.4212,2.4095,2.3794,2.3201,2.2449,2.1888,2.1444,2.0952,2.0101,1.9136,1.8136,1.7009,1.5417,1.3747,1.2568,1.1943,1.0227,0.948,0.9055,0.8508,0.7674,0.715,0.6222,0.5129,0.4249,0.3368,0.3001,0.2038,0.1491,0.0628,0.0316,-0.081,-0.1571,-0.2284,-0.3123,-0.4318,-0.5796,-0.729,-0.878,-1.0291,-1.1505,-1.2258,-1.2944,-1.3809,-1.5362,-1.6287,-1.6163,-1.5366,-1.4812,-1.523,-1.5342,-1.5336,-1.5684,-1.6137,-1.6545,-1.8105,-1.9715,-2.0358,-2.0004,-1.9664,-1.9359,-1.9709,-2.0218,-2.0682,-2.1393,-2.2465,-2.3505,-2.4085,-2.4672,-2.5167,-2.5865,-2.4081,-2.202,-1.9623,-1.7411,-1.643,-1.5964,-1.5925,-1.6372,-1.6724,-1.7384,-1.8094,-1.8913,-1.9703,-2.0284,-2.1104,-2.1382,-2.1583,-2.2109,-2.2843,-2.3798,-2.4833,-2.577,-2.6315,-2.6535,-2.6096,-2.5346,-2.4069,-2.2709,-2.1982,-2.121,-2.0705,2.6162,2.6162,2.6113,2.5643,2.4974,2.551,2.5576,2.5445,2.5667,2.5452,2.4791,2.4712,2.441,2.4074,2.3999,2.3769,2.3275,2.2366,2.1753,2.1583,2.0952,2.0114,1.9206,1.8211,1.7112,1.5808,1.4049,1.2595,1.1986,1.0077,0.9189,0.8805,0.8298,0.7691,0.7611,0.6379,0.5484,0.4745,0.3357,0.2818,0.2352,0.1963,0.1021,0.0079,-0.09,-0.1674,-0.2644,-0.3645,-0.4787,-0.6227,-0.7855,-0.9415,-1.0844,-1.2143,-1.303,-1.3437,-1.4601,-1.5763,-1.6705,-1.6071,-1.5415,-1.4965,-1.5358,-1.5678,-1.5732,-1.6052,-1.6377,-1.6791,-1.8813,-2.0483,-2.0768,-2.0366,-1.9945,-1.9965,-2.0308,-2.072,-2.1185,-2.1857,-2.2863,-2.3583,-2.4449,-2.5166,-2.5365,-2.523,-2.3675,-2.1833,-1.9937,-1.8416,-1.7242,-1.6794,-1.6592,-1.667,-1.7024,-1.7523,-1.8175,-1.8547,-1.9119,-1.9608,-2.0073,-2.0541,-2.1304,-2.2177,-2.2851,-2.3426,-2.4287,-2.5436,-2.593,-2.6312,-2.5692,-2.5033,-2.3815,-2.2615,-2.1929,-2.1342,-2.0849,2.6255,2.5682,2.5652,2.517,2.4633,2.5964,2.6545,2.6477,2.618,2.5906,2.5597,2.5015,2.4622,2.4406,2.4081,2.3893,2.364,2.2594,2.2033,2.2065,2.1094,2.0167,1.9266,1.8215,1.7092,1.5891,1.4164,1.2757,1.2369,1.0124,0.932,0.895,0.8009,0.7301,0.6938,0.6083,0.5443,0.4535,0.3761,0.3294,0.2588,0.1961,0.1256,0.0157,-0.0903,-0.211,-0.3257,-0.4226,-0.5498,-0.6884,-0.853,-1.0005,-1.1332,-1.2646,-1.334,-1.401,-1.5038,-1.5796,-1.6264,-1.5928,-1.5522,-1.5279,-1.5599,-1.6083,-1.6078,-1.6792,-1.6991,-1.7195,-1.8599,-2.0028,-2.073,-2.0025,-1.9698,-2.0105,-2.0523,-2.1006,-2.1568,-2.2338,-2.3142,-2.3542,-2.4217,-2.5132,-2.5609,-2.3798,-2.2125,-2.1635,-1.9953,-1.9037,-1.7963,-1.7676,-1.7522,-1.739,-1.7555,-1.7915,-1.8325,-1.861,-1.8932,-1.9433,-1.9813,-2.0092,-2.1026,-2.2108,-2.2875,-2.3409,-2.426,-2.5068,-2.5502,-2.577,-2.5342,-2.4599,-2.3771,-2.2978,-2.2352,-2.1707,-2.1082,2.6316,2.5758,2.5404,2.5063,2.4899,2.6103,2.6874,2.7076,2.6563,2.6336,2.6148,2.5125,2.4712,2.4663,2.4273,2.3881,2.3833,2.3082,2.2228,2.2319,2.1277,2.0407,1.9447,1.8192,1.7155,1.5907,1.4328,1.2935,1.2231,1.0104,0.8857,0.809,0.7467,0.6776,0.6386,0.5899,0.5544,0.4776,0.4153,0.3686,0.2746,0.1804,0.0863,0.0079,-0.1063,-0.2536,-0.3809,-0.502,-0.6334,-0.7715,-0.9184,-1.0633,-1.1829,-1.2898,-1.3511,-1.4202,-1.5611,-1.6106,-1.6171,-1.6373,-1.5855,-1.5184,-1.5983,-1.6388,-1.6496,-1.7119,-1.7586,-1.7897,-1.8291,-1.8797,-1.9595,-1.8967,-1.9409,-1.9811,-2.0673,-2.1166,-2.1866,-2.2593,-2.3169,-2.3559,-2.317,-2.4249,-2.4846,-2.2528,-2.0355,-2.0263,-2.0068,-1.9333,-1.8705,-1.8449,-1.8257,-1.8131,-1.8037,-1.8311,-1.8499,-1.8643,-1.8949,-1.9307,-1.9688,-2.006,-2.077,-2.1838,-2.2631,-2.3447,-2.4137,-2.4709,-2.5094,-2.5216,-2.4964,-2.4784,-2.4458,-2.3685,-2.2865,-2.2232,-2.1642,2.6291,2.6334,2.5451,2.5337,2.5725,2.5936,2.6454,2.7078,2.6759,2.6551,2.6435,2.5369,2.502,2.4878,2.4204,2.3793,2.3706,2.3326,2.2807,2.2167,2.1581,2.079,1.9622,1.8309,1.7166,1.5788,1.4191,1.2452,1.1784,0.9654,0.8005,0.7045,0.6734,0.6304,0.6048,0.5738,0.5433,0.4706,0.4233,0.3688,0.2826,0.1256,0.0394,-0.0479,-0.1478,-0.2695,-0.398,-0.5282,-0.669,-0.8229,-0.9707,-1.0886,-1.2078,-1.3188,-1.3471,-1.445,-1.6399,-1.6684,-1.6451,-1.6589,-1.6228,-1.5602,-1.6225,-1.641,-1.6812,-1.7485,-1.8091,-1.8261,-1.8461,-1.7903,-1.7669,-1.8225,-1.8768,-1.9592,-2.061,-2.1307,-2.1997,-2.2627,-2.315,-2.3004,-2.1931,-2.2181,-2.265,-2.1033,-1.9882,-1.9683,-1.9782,-1.9735,-1.9192,-1.8998,-1.8803,-1.8737,-1.8674,-1.8647,-1.8832,-1.9062,-1.9223,-1.9629,-2.0049,-2.0476,-2.1041,-2.1661,-2.2587,-2.3375,-2.3913,-2.4319,-2.461,-2.4778,-2.4708,-2.4584,-2.4288,-2.4329,-2.3503,-2.3054,-2.2603,2.6869,2.6329,2.6045,2.57,2.5372,2.5721,2.5975,2.6111,2.6493,2.6689,2.6493,2.5591,2.5293,2.544,2.4361,2.421,2.4089,2.3823,2.3325,2.2666,2.1924,2.0955,1.9755,1.8294,1.7139,1.558,1.3793,1.2013,1.1001,0.9094,0.7344,0.6261,0.6153,0.5961,0.5685,0.5359,0.4718,0.4258,0.3781,0.3303,0.2519,0.1025,-0.0079,-0.1134,-0.2069,-0.3223,-0.4642,-0.6112,-0.7538,-0.8999,-1.0288,-1.1404,-1.1976,-1.3403,-1.4346,-1.5752,-1.701,-1.7597,-1.6755,-1.6643,-1.6428,-1.6095,-1.6539,-1.6902,-1.732,-1.7889,-1.8695,-1.8612,-1.8603,-1.8249,-1.7705,-1.7923,-1.8506,-1.9291,-2.0258,-2.1126,-2.1838,-2.2548,-2.3023,-2.2803,-2.1703,-2.1284,-2.1556,-2.097,-1.9997,-1.959,-1.9418,-1.9588,-1.9667,-1.9467,-1.9375,-1.9331,-1.9455,-1.9497,-1.9556,-1.9815,-1.9805,-1.9958,-2.047,-2.0848,-2.1264,-2.1906,-2.2667,-2.3251,-2.3645,-2.3878,-2.4002,-2.4073,-2.4002,-2.391,-2.3682,-2.4058,-2.4216,-2.3665,-2.353,2.6023,2.5727,2.5432,2.5317,2.5476,2.5758,2.5816,2.5898,2.6426,2.6661,2.6595,2.5834,2.5546,2.5571,2.4731,2.4301,2.4403,2.3933,2.3342,2.2588,2.2076,2.0794,1.9532,1.8112,1.6656,1.5101,1.3427,1.167,1.0383,0.869,0.6887,0.5667,0.5583,0.5507,0.5076,0.4448,0.3796,0.3317,0.2948,0.2613,0.1749,0.0561,-0.0814,-0.1978,-0.2943,-0.4052,-0.5463,-0.6933,-0.8313,-0.9527,-1.0825,-1.1727,-1.2461,-1.3952,-1.5404,-1.6685,-1.7447,-1.7799,-1.74,-1.7159,-1.666,-1.6403,-1.683,-1.7357,-1.7668,-1.8037,-1.836,-1.8464,-1.8721,-1.8711,-1.8143,-1.7755,-1.8344,-1.8987,-1.9901,-2.0822,-2.1575,-2.2342,-2.2542,-2.2577,-2.2115,-2.1506,-2.1075,-2.0572,-2.0236,-2.0034,-1.9826,-1.9712,-1.9824,-1.9853,-1.988,-1.9911,-2.0143,-2.0345,-2.0404,-2.0523,-2.0841,-2.0949,-2.1137,-2.1479,-2.1701,-2.2135,-2.2858,-2.3128,-2.3327,-2.3437,-2.3497,-2.3305,-2.3173,-2.3175,-2.3334,-2.3616,-2.3962,-2.4063,-2.415,2.4402,2.4854,2.411,2.4658,2.5749,2.5829,2.5878,2.6036,2.6264,2.6532,2.6592,2.5956,2.5645,2.5647,2.494,2.435,2.4175,2.3857,2.3148,2.2243,2.185,2.0717,1.9041,1.773,1.6451,1.4622,1.2832,1.1129,0.9771,0.8085,0.6515,0.5196,0.5122,0.4952,0.4426,0.4052,0.3313,0.2172,0.2201,0.217,0.0981,-0.0498,-0.2111,-0.3128,-0.3935,-0.4776,-0.6109,-0.74,-0.8723,-0.9934,-1.0989,-1.2015,-1.3423,-1.4545,-1.6023,-1.7152,-1.7827,-1.7985,-1.7948,-1.7652,-1.7107,-1.6988,-1.7294,-1.7752,-1.7983,-1.8302,-1.862,-1.8438,-1.8619,-1.8386,-1.7897,-1.81,-1.8614,-1.923,-2.0013,-2.0764,-2.1458,-2.2132,-2.2497,-2.2532,-2.2529,-2.1952,-2.1507,-2.1102,-2.1421,-2.0917,-2.0441,-2.0194,-2.0231,-2.0337,-2.0261,-2.0377,-2.0514,-2.0737,-2.0889,-2.1079,-2.1818,-2.203,-2.1999,-2.1956,-2.2092,-2.2517,-2.3053,-2.3198,-2.3258,-2.303,-2.2909,-2.2775,-2.2837,-2.312,-2.3255,-2.3349,-2.3624,-2.3961,-2.4343,2.4541,2.4629,2.4146,2.4525,2.5296,2.512,2.5386,2.5893,2.5742,2.6029,2.6419,2.58,2.5628,2.5907,2.4964,2.4327,2.3984,2.3423,2.2927,2.2092,2.1467,2.0117,1.8721,1.7775,1.6307,1.4205,1.2283,1.0456,0.8657,0.7279,0.6282,0.5475,0.509,0.4603,0.416,0.3864,0.3032,0.1288,0.1855,0.1161,-0.0502,-0.1722,-0.3077,-0.3902,-0.459,-0.5234,-0.6496,-0.7888,-0.9069,-1.0149,-1.1289,-1.2826,-1.4658,-1.5334,-1.6218,-1.7179,-1.8034,-1.8257,-1.8193,-1.7943,-1.7486,-1.7159,-1.7343,-1.7836,-1.8303,-1.8738,-1.8826,-1.8574,-1.8273,-1.8039,-1.798,-1.8437,-1.9042,-1.9654,-2.0215,-2.0832,-2.1394,-2.1993,-2.248,-2.2673,-2.2799,-2.248,-2.1983,-2.2013,-2.236,-2.2055,-2.141,-2.1058,-2.1109,-2.1153,-2.0698,-2.0712,-2.0729,-2.0907,-2.1138,-2.1587,-2.2243,-2.2524,-2.2418,-2.2384,-2.2408,-2.2702,-2.3065,-2.3138,-2.3138,-2.2909,-2.2665,-2.2494,-2.2591,-2.2862,-2.3366,-2.3541,-2.3567,-2.3851,-2.4254,2.3692,2.3763,2.4311,2.4797,2.5089,2.4862,2.4862,2.5036,2.4683,2.4847,2.5425,2.5368,2.5574,2.5821,2.4888,2.3983,2.3539,2.2834,2.2077,2.1353,2.0377,1.9302,1.8331,1.7459,1.5846,1.3849,1.1464,0.9437,0.7731,0.6497,0.5627,0.5112,0.4639,0.4214,0.3762,0.3457,0.2466,0.044,0.1474,0.0345,-0.1898,-0.3086,-0.3835,-0.4483,-0.4745,-0.5561,-0.7065,-0.8364,-0.941,-1.0544,-1.1768,-1.3442,-1.494,-1.5686,-1.6371,-1.722,-1.7971,-1.8458,-1.8302,-1.8073,-1.7675,-1.7399,-1.757,-1.8181,-1.8523,-1.8999,-1.925,-1.8975,-1.8826,-1.8564,-1.8572,-1.8869,-2.0146,-2.1056,-2.1131,-2.1366,-2.2224,-2.3042,-2.3363,-2.3475,-2.3348,-2.292,-2.2678,-2.2847,-2.3061,-2.2961,-2.2327,-2.197,-2.1999,-2.1773,-2.1322,-2.1059,-2.1106,-2.1201,-2.136,-2.192,-2.2618,-2.2797,-2.2739,-2.2604,-2.2531,-2.2763,-2.2992,-2.2944,-2.2896,-2.2775,-2.2543,-2.2432,-2.2333,-2.2504,-2.3235,-2.3879,-2.3867,-2.3924,-2.4397,2.2315,2.2543,2.3853,2.463,2.4726,2.4288,2.4135,2.4096,2.3518,2.3555,2.4156,2.4841,2.5188,2.5067,2.4624,2.3623,2.2786,2.1978,2.1175,2.0096,1.9039,1.8144,1.7339,1.634,1.4828,1.2876,1.0502,0.9003,0.7636,0.6262,0.5171,0.4395,0.387,0.3426,0.2974,0.2522,0.1619,0.0268,-0.0089,-0.107,-0.2683,-0.421,-0.4734,-0.4823,-0.4828,-0.5719,-0.7485,-0.9065,-1.0014,-1.0885,-1.2209,-1.3902,-1.5055,-1.5896,-1.6574,-1.7298,-1.7893,-1.8365,-1.8464,-1.8198,-1.7749,-1.7517,-1.7965,-1.8451,-1.8861,-1.9196,-1.9459,-1.9486,-1.9336,-1.9264,-1.9231,-1.9977,-2.1312,-2.1895,-2.1745,-2.2062,-2.3101,-2.3923,-2.4013,-2.41,-2.3705,-2.3257,-2.3349,-2.3554,-2.3568,-2.3451,-2.3275,-2.3098,-2.2785,-2.2243,-2.1785,-2.1605,-2.159,-2.1632,-2.1592,-2.2176,-2.2905,-2.2895,-2.28,-2.2665,-2.2543,-2.2653,-2.2653,-2.2714,-2.2653,-2.2714,-2.2665,-2.2543,-2.2457,-2.2368,-2.2492,-2.3161,-2.4244,-2.4329,-2.4829,2.1121,2.0584,2.0953,2.1712,2.2478,2.1781,2.2264,2.3591,2.2743,2.296,2.3645,2.3585,2.3729,2.4122,2.3922,2.3075,2.1779,2.1037,1.9998,1.8911,1.8006,1.7232,1.634,1.5402,1.3571,1.147,0.9505,0.8475,0.7312,0.5916,0.5058,0.4769,0.3952,0.3405,0.2854,0.2113,0.1005,-0.0362,-0.1705,-0.2601,-0.3667,-0.4919,-0.5897,-0.5897,-0.5719,-0.6871,-0.8456,-1.0111,-1.0717,-1.1413,-1.2404,-1.4176,-1.5318,-1.5984,-1.6592,-1.7589,-1.8179,-1.8265,-1.8349,-1.8387,-1.8063,-1.789,-1.8304,-1.8836,-1.9226,-1.9608,-1.9829,-1.991,-1.9813,-1.9888,-2.0104,-2.1427,-2.2594,-2.2043,-2.1772,-2.2991,-2.4159,-2.4305,-2.4303,-2.4091,-2.3703,-2.3519,-2.3518,-2.3672,-2.3763,-2.3659,-2.3466,-2.329,-2.3214,-2.2732,-2.2231,-2.2191,-2.21,-2.1779,-2.1643,-2.2422,-2.304,-2.2957,-2.286,-2.2604,-2.242,-2.2309,-2.2371,-2.2604,-2.2726,-2.2848,-2.2726,-2.2604,-2.2528,-2.2414,-2.1906,-2.2291,-2.3633,-2.4687,-2.5042]}]]